     2              OBSERVATION DATA    GPS                 RINEX VERSION / TYPE
teqc 2000Feb29 simon 20000628 03:39:30UTC                   PGM / RUN BY / DATE
                                                            COMMENT
L2: 1 -> 1; 150 -> 5; 250 -> 9                              COMMENT
L2: 1 -> 1; 150 -> 5; 250 -> 9                              COMMENT
L2: 1 -> 1; 150 -> 5; 250 -> 9                              COMMENT
L2: 1 -> 1; 150 -> 5; 250 -> 9                              COMMENT
L2: 1 -> 1; 150 -> 5; 250 -> 9                              COMMENT
Original Marker Name: GS24                                  COMMENT
Campaign Name: China Lake April 2000                        COMMENT
4-Character Station Name: GS24                              COMMENT
6-Character Antenna Code: ASHGD3                            COMMENT
Vertical Measurement Point: TGP                             COMMENT
Vertical Offset to Rinex Ref. Point: 0.0640                 COMMENT
Radial Measurement Point: RRP                               COMMENT
Radial Offset to Rinex Ref. Point: 0.0000                   COMMENT
Antenna Height from Field Measurement: 0.2300 m             COMMENT
Additional Antenna Identification Info.:                    COMMENT
The Whopper (700718AB)                                      COMMENT
Original XYZ: -2387019.4200 -4588684.1200 3722480.1200      COMMENT
New XYZ position is based on association with SCEC monument COMMENT
E1F4N3W8+0011. Position of that monument is believed to be  COMMENT
valid to within 1 m horizontally; vertical accuracy         COMMENT
should be no worse than 3-times this value.                 COMMENT
                                                            COMMENT
Revised Rinex header created by UCSD GPS archive for        COMMENT
GSAC on 14-Sep-2001 (2001:257) 20:54:00 GMT                 COMMENT
For assistance contact dagnew@ucsd.edu                      COMMENT
or anderson@python.ucsd.edu                                 COMMENT
                                                            COMMENT
GO24                                                        MARKER NAME
gs24                                                        MARKER NUMBER
JDT US NATIONAL IMAGERY MAPPING AGENCY                      OBSERVER / AGENCY
486 ASHTECH Z-XII3 4J30                                     REC # / TYPE / VERS
112 ASHTECH GEODETIC III                                    ANT # / TYPE
 -2386885.0146 -4588641.4775  3722489.1245                  APPROX POSITION XYZ
        0.1660        0.0000        0.0000                  ANTENNA: DELTA H/E/N
     1     1     0                                          WAVELENGTH FACT L1/2
     7    L1    L2    C1    P1    P2    S1    S2            # / TYPES OF OBSERV
    30                                                      INTERVAL
  2000     5    24    14     0    0.000000                  TIME OF FIRST OBS
  2000     5    24    21    29   60.000000                  TIME OF LAST OBS
                                                            END OF HEADER
 00  5 24 14  0  0.0000000  0  5G 2G 4G26G 7G 9
     -6919.65449     -2680.65257  19154974.468    19154976.069    19154982.670
       240.000         205.000
     -6234.39143                  19794689.489
       230.000          74.000
     17921.19549     10564.47846  21106629.368    21106630.934    21106636.654
       228.000         179.000
     -7976.45949     -4425.24647  18271190.808    18271193.485    18271199.663
       232.000         204.000
     -5517.48243                  19967170.925
       232.000          74.000
 00  5 24 14  0 30.0000000  0  5G 2G 4G26G 7G 9
    -14139.95559     -8306.88547  19153601.866    19153602.308    19153608.650
       240.000         205.000
   -156397.44549   -105491.27546  19770449.509    19770450.647    19770456.846
       230.000         186.000
     47435.39149     33562.46846  21112245.647    21112246.993    21112253.949
       228.000         177.000
    -16251.11449    -10873.04047  18269618.027    18269619.001    18269625.086
       235.000         205.000
   -136116.70449    -93329.77347  19945727.339    19945729.684    19945735.698
       235.000         194.000
 00  5 24 14  1  0.0000000  0  5G 2G 4G26G 7G 9
    -21048.88249    -13690.46847  21550627.159    21550627.228    21550633.620
       238.000         205.000
   -283344.78749   -204411.25546  22144632.260    22144633.015    22144639.118
       230.000         187.000
     77284.44349     56821.39946  23516265.772    23516266.734    23516273.217
       226.000         175.000
    -24129.78649    -17012.26947  20666459.015    20666459.449    20666465.511
       233.000         204.000
   -248343.54049   -180779.24047  22322712.278    22322713.529    22322719.697
       234.000         194.000
 00  5 24 14  1 30.0000000  0  5G 2G 4G26G 7G 9
    -27606.41949    -18800.24347  21549379.449    21549379.379    21549385.809
       239.000         206.000
   -409880.93249   -303010.81546  22120553.349    22120553.965    22120560.081
       231.000         187.000
    107524.49749     80385.04846  23522020.533    23522021.305    23522027.624
       225.000         173.000
    -31575.06949    -22813.80447  20665042.505    20665042.690    20665048.754
       234.000         205.000
   -360118.08949   -267876.25447  22301442.705    22301443.484    22301449.903
       234.000         195.000
 00  5 24 14  2  0.0000000  0  5G 2G 4G26G 7G 9
    -33950.39649    -23743.60247  21548172.324    21548172.173    21548178.625
       239.000         205.000
   -536109.11649   -401370.40146  22096532.910    22096533.476    22096539.673
       230.000         187.000
    138004.66849    104135.77446  23527820.879    23527821.514    23527827.820
       226.000         171.000
    -38726.62449    -28386.45247  20663681.792    20663681.832    20663687.866
       234.000         204.000
   -471548.17049   -354704.86647  22280238.461    22280239.012    22280245.431
       236.000         196.000
 00  5 24 14  2 29.9990000  0  5G 2G 4G26G 7G 9
    -40055.59649    -28500.89847  21547010.620    21547010.392    21547016.886
       238.000         205.000
   -661997.92949   -499465.55846  22072577.126    22072577.608    22072583.882
       233.000         187.000
    168745.27549    128089.45546  23533670.647    23533671.242    23533677.661
       223.000         172.000
    -45561.44349    -33712.29347  20662381.291    20662381.227    20662387.260
       234.000         205.000
   -582603.80449   -441241.70647  22259105.466    22259105.878    22259112.292
       234.000         196.000
 00  5 24 14  2 59.9990000  0  5G 2G 4G26G 7G 9
    -45940.06049    -33086.20347  21545890.883    21545890.615    21545897.126
       239.000         205.000
   -787570.92849   -597314.62547  22048681.399    22048681.881    22048688.143
       232.000         188.000
    199727.20249    152231.17446  23539566.352    23539566.904    23539573.421
       223.000         175.000
    -52099.88749    -38807.19747  20661137.205    20661137.035    20661143.027
       234.000         206.000
   -693308.40149   -527505.00847  22238039.162    22238039.477    22238045.922
       234.000         194.000
 00  5 24 14  3 29.9990000  0  5G 2G 4G26G 7G 9
    -51610.90149    -37505.06347  21544811.887    21544811.527    21544818.014
       241.000         205.000
   -912828.95549   -694918.25446  22024845.596    22024846.063    22024852.303
       233.000         187.000
    230938.36849    176551.52146  23545505.862    23545506.254    23545512.811
       226.000         176.000
    -58351.32249    -43678.45547  20659947.738    20659947.462    20659953.448
       236.000         206.000
   -803663.70149   -613496.13747  22217039.198    22217039.514    22217045.926
       236.000         194.000
 00  5 24 14  3 59.9990000  0  5G 2G 4G26G 7G 9
    -57065.60649    -41755.51047  21543774.035    21543773.569    21543780.036
       241.000         205.000
  -1037767.01249   -792272.56646  22001070.616    22001071.098    22001077.342
       233.000         187.000
    262378.08149    201049.95346  23551488.807    23551489.111    23551495.708
       224.000         175.000
    -64315.20149    -48325.64747  20658812.959    20658812.581    20658818.569
       236.000         206.000
   -913665.32849   -699211.65447  22196106.702    22196106.927    22196113.344
       237.000         196.000
 00  5 24 14  4 29.9990000  0  5G 2G 4G26G 7G 9
    -62299.91449    -45834.18847  21542778.015    21542777.543    21542784.004
       239.000         205.000
  -1162378.52549   -889372.42146  21977357.873    21977358.274    21977364.572
       231.000         187.000
    294047.00549    225727.00546  23557515.168    23557515.483    23557522.210
       222.000         174.000
    -69989.53949    -52747.22147  20657733.278    20657732.833    20657738.798
       235.000         206.000
  -1023307.32849   -784646.95747  22175242.562    22175242.724    22175249.076
       234.000         195.000
 00  5 24 14  4 59.9990000  0  5G 2G 4G26G 7G 9
    -67293.27949    -49725.11847  21541827.813    21541827.351    21541833.827
       238.000         205.000
  -1286640.53149   -986199.93047  21953711.694    21953711.996    21953718.344
       232.000         188.000
    325962.01849    250595.80346  23563588.478    23563588.749    23563595.494
       223.000         176.000
    -75355.93649    -56928.83847  20656712.070    20656711.645    20656717.600
       234.000         205.000
  -1132567.91149   -869785.05547  22154451.027    22154451.161    22154457.495
       234.000         196.000
 00  5 24 14  5 29.9990000  0  5G 2G 4G26G 7G 9
    -72043.87749    -53426.88447  21540923.806    21540923.352    21540929.844
       239.000         205.000
  -1410548.87449  -1082751.86347  21930132.709    21930133.024    21930139.408
       232.000         189.000
    358121.57149    275655.12146  23569708.319    23569708.525    23569715.405
       223.000         177.000
    -80414.95849    -60870.94547  20655749.387    20655748.953    20655754.917
       235.000         206.000
  -1241443.31749   -954623.01647  22133732.693    22133732.828    22133739.174
       234.000         195.000
 00  5 24 14  5 59.9990000  0  5G 2G 4G26G 7G 9
    -76519.79949    -56914.61647  21540072.086    21540071.625    21540078.125
       239.000         205.000
  -1534069.09149  -1179001.35547  21906627.575    21906627.907    21906634.282
       233.000         189.000
    390554.23749    300927.29146  23575880.208    23575880.352    23575887.198
       222.000         177.000
    -85136.61049    -64550.15747  20654850.963    20654850.485    20654856.418
       235.000         206.000
  -1349899.42249  -1039134.24047  22113094.227    22113094.316    22113100.734
       235.000         197.000
 00  5 24 14  6 29.9990000  0  6G 2G 4G26G 7G 8G 9
    -80738.44249    -60201.87447  21539269.334    21539268.867    21539275.355
       239.000         204.000
  -1657216.43849  -1274960.30447  21883193.327    21883193.736    21883200.069
       232.000         189.000
    423238.89849    326395.82446  23582099.766    23582100.034    23582106.987
       222.000         173.000
    -89540.49349    -67981.75947  20654012.934    20654012.464    20654018.408
       235.000         206.000
    239818.31659    171840.20355  24405712.445    24405711.346    24405719.399
       211.000         158.000
  -1457952.20249  -1123331.18547  22092532.498    22092532.572    22092539.017
       232.000         196.000
 00  5 24 14  6 59.9990000  0  7G 2G24G 4G26G 7G 8G 9
    -84688.39349    -63279.77347  21538517.733    21538517.250    21538523.691
       239.000         205.000
   -279812.77855                  24037309.090                    24037316.492
       210.000         137.000
  -1779976.88349  -1370617.76247  21859832.841    21859833.211    21859839.523
       234.000         190.000
    456183.43049    352066.83046  23588368.971    23588369.186    23588376.208
       222.000         173.000
    -93617.31949    -71158.51747  20653237.168    20653236.684    20653242.630
       235.000         206.000
    317124.23949    232078.46445  24420423.163    24420422.402    24420430.316
       211.000         160.000
  -1565588.59149  -1207203.66447  22072049.969    22072050.056    22072056.531
       234.000         197.000
 00  5 24 14  7 29.9990000  0  7G 2G24G 4G26G 7G 8G 9
    -88362.77449    -66142.93247  21537818.543    21537818.070    21537824.506
       239.000         204.000
   -547417.03149   -393410.60145  24009567.147    24009564.178    24009574.673
       210.000         144.000
  -1902341.33149  -1465966.65747  21836547.795    21836548.065    21836554.351
       234.000         189.000
    489391.42849    377943.12846  23594688.320    23594688.530    23594695.503
       221.000         169.000
    -97362.47749    -74076.82447  20652524.513    20652524.032    20652529.959
       236.000         205.000
    394566.60359    292423.04555  24435159.749    24435159.219    24435167.280
       212.000         161.000
  -1672800.04749  -1290745.04147  22051648.423    22051648.436    22051654.878
       234.000         196.000
 00  5 24 14  7 59.9990000  0  7G 2G24G 4G26G 7G 8G 9
    -91771.63749    -68799.20147  21537169.931    21537169.398    21537175.826
       239.000         204.000
   -693153.11259   -506971.10055  23981834.305    23981833.480    23981841.964
       209.000         144.000
  -2024317.38649  -1561012.89747  21813336.509    21813336.801    21813343.101
       234.000         190.000
    522849.20549    404014.09246  23601055.057    23601055.320    23601062.361
       220.000         168.000
   -100788.22649    -76746.24347  20651872.650    20651872.169    20651878.075
       236.000         206.000
    472132.65649    352864.01245  24449919.943    24449919.437    24449927.734
       212.000         161.000
  -1779594.95249  -1373961.81347  22031325.979    22031326.015    22031332.497
       233.000         196.000
 00  5 24 14  8 29.9990000  0  7G 2G24G 4G26G 7G 8G 9
    -94892.63649    -71231.16347  21536576.093    21536575.545    21536581.931
       239.000         204.000
   -838817.09249   -620475.42945  23954115.124    23954114.609    23954122.881
       209.000         149.000
  -2145880.39449  -1655737.27747  21790203.836    21790204.130    21790210.419
       233.000         192.000
    556575.58749    430294.35446  23607473.088    23607473.315    23607480.340
       220.000         168.000
   -103874.25549    -79150.94947  20651285.415    20651284.925    20651290.834
       235.000         207.000
    549841.80649    413416.48245  24464707.543    24464706.903    24464715.514
       213.000         160.000
  -1885949.15949  -1456835.21647  22011087.558    22011087.533    22011093.879
       234.000         198.000
 00  5 24 14  8 59.9990000  0  7G 2G24G 4G26G 7G 8G 9
    -97737.18549    -73447.72147  21536034.842    21536034.286    21536040.647
       240.000         203.000
   -984418.15149   -733930.72345  23926407.977    23926407.629    23926416.039
       213.000         151.000
  -2267039.60349  -1750146.99247  21767147.937    21767148.283    21767154.564
       235.000         191.000
    590555.43349    456772.08246  23613939.283    23613939.498    23613946.569
       222.000         169.000
   -106634.17149    -81301.53347  20650760.210    20650759.742    20650765.654
       237.000         206.000
    627679.93449    474069.44945  24479519.685    24479519.012    24479527.786
       215.000         161.000
  -1991872.05649  -1539372.50147  21990931.080    21990931.046    21990937.406
       237.000         197.000
 00  5 24 14  9 29.9990000  0  7G 2G24G 4G26G 7G 8G 9
   -100305.88949    -75449.32847  21535546.046    21535545.499    21535551.846
       238.000         203.000
  -1129954.60349   -847335.67645  23898713.075    23898712.912    23898721.455
       211.000         151.000
  -2387793.05249  -1844240.55047  21744169.191    21744169.657    21744175.900
       232.000         192.000
    624784.96749    483444.37046  23620453.022    23620453.199    23620460.213
       223.000         170.000
   -109070.78749    -83200.21147  20650296.601    20650296.097    20650302.010
       237.000         207.000
    705643.83749    534820.42045  24494355.740    24494355.180    24494363.996
       214.000         160.000
  -2097362.86449  -1621573.10647  21970856.850    21970856.813    21970863.123
       234.000         198.000
 00  5 24 14  9 59.9990000  0  7G 2G24G 4G26G 7G 8G 9
   -102604.31349    -77240.32147  21535108.683    21535108.155    21535114.500
       240.000         203.000
  -1275430.11849   -960693.13945  23871029.783    23871029.738    23871038.383
       211.000         152.000
  -2508144.25249  -1938020.65047  21721267.138    21721267.583    21721273.828
       234.000         192.000
    659254.79149    510303.87046  23627012.553    23627012.659    23627019.705
       223.000         172.000
   -111191.94149    -84853.06647  20649893.012    20649892.497    20649898.391
       238.000         207.000
    783724.93349    595662.71345  24509214.127    24509213.632    24509222.441
       214.000         160.000
  -2202425.64949  -1703440.19647  21950864.153    21950864.101    21950870.297
       236.000         198.000
 00  5 24 14 10 29.9990000  0  7G 2G24G 4G26G 7G 8G 9
   -104631.70249    -78820.12847  21534722.925    21534722.379    21534728.710
       238.000         203.000
  -1420841.96049  -1074000.98045  23843358.855    23843358.746    23843367.361
       210.000         152.000
  -2628090.16249  -2031484.95247  21698442.212    21698442.614    21698448.891
       233.000         192.000
    693961.93449    537348.32846  23633617.245    23633617.319    23633624.306
       221.000         173.000
   -112999.21449    -86261.34847  20649549.125    20649548.599    20649554.504
       237.000         207.000
    861921.00949    656594.59445  24524094.373    24524093.948    24524102.767
       212.000         159.000
  -2307058.03649  -1784971.89347  21930953.204    21930953.192    21930959.435
       236.000         200.000
 00  5 24 14 10 59.9990000  0  7G 2G24G 4G26G 7G 8G 9
   -106398.11349    -80196.55847  21534386.823    21534386.276    21534392.589
       238.000         203.000
  -1566197.99249  -1187265.29745  23815698.560    23815698.397    23815706.952
       209.000         150.000
  -2747638.56349  -2124639.50847  21675692.848    21675693.255    21675699.586
       233.000         193.000
    728893.14749    564567.36246  23640264.483    23640264.579    23640271.523
       220.000         171.000
   -114504.65149    -87434.43247  20649262.693    20649262.143    20649268.063
       237.000         208.000
    940219.50749    717606.28945  24538994.181    24538993.753    24539002.522
       213.000         157.000
  -2411268.42849  -1866174.78547  21911122.619    21911122.627    21911128.783
       236.000         199.000
 00  5 24 14 11 29.9990000  0  7G 2G24G 4G26G 7G 8G 9
   -107892.73949    -81361.23347  21534102.446    21534101.891    21534108.191
       241.000         203.000
  -1711485.37549  -1300476.14845  23788051.138    23788050.976    23788059.626
       209.000         148.000
  -2866776.31749  -2217474.09347  21653021.653    21653022.068    21653028.414
       235.000         193.000
    764055.51249    591966.50946  23646955.670    23646955.813    23646962.784
       224.000         173.000
   -115699.78649    -88365.72547  20649035.289    20649034.747    20649040.650
       239.000         207.000
   1018628.31449    778703.93545  24553915.157    24553914.545    24553923.293
       215.000         157.000
  -2515044.50149  -1947039.23247  21891374.817    21891374.736    21891380.870
       237.000         201.000
 00  5 24 14 11 59.9990000  0  7G 2G24G 4G26G 7G 8G 9
   -109105.61649    -82306.33947  21533871.657    21533871.132    21533877.392
       238.000         203.000
  -1856691.97649  -1413624.07145  23760419.251    23760418.974    23760427.624
       204.000         147.000
  -2985491.02749  -2309979.01447  21630431.041    21630431.384    21630437.704
       233.000         193.000
    799455.61649    619550.92046  23653692.208    23653692.313    23653699.258
       223.000         172.000
   -116576.57549    -89048.94747  20648868.483    20648867.926    20648873.838
       237.000         208.000
   1097154.80149    839893.28245  24568858.505    24568857.747    24568866.415
       212.000         153.000
  -2618374.38749  -2027556.01447  21871711.860    21871711.723    21871717.827
       237.000         200.000
 00  5 24 14 12 29.9990000  0  7G 2G24G 4G26G 7G 8G 9
   -110045.22749    -83038.52247  21533692.858    21533692.349    21533698.600
       238.000         203.000
  -2001823.91749  -1526713.79245  23732801.348    23732801.121    23732809.828
       206.000         147.000
  -3103788.85649  -2402159.09647  21607919.673    21607920.025    21607926.327
       233.000         193.000
    835081.48549    647311.24146  23660471.822    23660471.795    23660478.635
       223.000         170.000
   -117145.54049    -89492.31747  20648760.216    20648759.664    20648765.607
       237.000         208.000
   1175787.91749    901165.71945  24583822.052    24583821.149    24583829.806
       211.000         152.000
  -2721264.59449  -2107730.17347  21852132.530    21852132.382    21852138.509
       235.000         200.000
 00  5 24 14 12 59.9990000  0  7G 2G24G 4G26G 7G 8G 9
   -110717.32449    -83562.24247  21533565.047    21533564.491    21533570.703
       239.000         203.000
  -2146884.77549  -1639748.12945  23705196.845    23705196.769    23705205.557
       205.000         148.000
  -3221673.15249  -2494016.91847  21585486.893    21585487.325    21585493.682
       233.000         193.000
    870923.92549    675240.35346  23667292.525    23667292.481    23667299.333
       219.000         169.000
   -117414.67649    -89702.04347  20648709.056    20648708.486    20648714.422
       237.000         208.000
   1254518.95049    962514.45845  24598803.930    24598803.151    24598811.891
       208.000         151.000
  -2823719.58049  -2187565.21547  21832635.987    21832635.848    21832641.918
       235.000         200.000
 00  5 24 14 13 29.9990000  0  7G 2G24G 4G26G 7G 8G 9
   -111123.35549    -83878.65247  21533487.853    21533487.258    21533493.470
       239.000         203.000
  -2291873.87549  -1752726.54245  23677606.074    23677606.136    23677614.983
       208.000         151.000
  -3339143.21949  -2585551.96947  21563133.076    21563133.476    21563139.878
       234.000         194.000
    906977.96549    703334.32146  23674153.362    23674153.387    23674160.249
       218.000         165.000
   -117387.58749    -89680.92847  20648714.245    20648713.658    20648719.602
       237.000         208.000
   1333343.77449   1023936.27345  24613803.689    24613803.083    24613811.791
       206.000         148.000
  -2925739.18449  -2267060.98747  21813222.309    21813222.160    21813228.239
       235.000         200.000
 00  5 24 14 13 59.9990000  0  7G 2G24G 4G26G 7G 8G 9
   -111275.08149    -83996.90247  21533459.024    21533458.423    21533464.629
       239.000         203.000
  -2436801.07849  -1865656.72945  23650027.112    23650027.382    23650036.234
       208.000         152.000
  -3456208.86349  -2676771.90347  21540856.244    21540856.656    21540863.016
       235.000         195.000
    943228.15849    731581.13746  23681051.477    23681051.589    23681058.489
       220.000         168.000
   -117078.31849    -89439.94247  20648773.106    20648772.541    20648778.476
       238.000         208.000
   1412247.75649   1085419.77045  24628818.621    24628818.065    24628826.822
       206.000         146.000
  -3027333.57149  -2346225.42447  21793889.538    21793889.401    21793895.496
       236.000         200.000
 00  5 24 14 14 29.9990000  0  7G 2G24G 4G26G 7G 8G 9
   -111154.02349    -83902.60247  21533482.084    21533481.475    21533487.691
       238.000         203.000
  -2581645.68749  -1978522.52745  23622463.820    23622464.290    23622473.151
       209.000         154.000
  -3572849.15249  -2767660.40547  21518660.409    21518660.761    21518667.071
       235.000         195.000
    979689.39149    759992.39046  23687989.940    23687990.043    23687996.956
       219.000         168.000
   -116470.46949    -88966.30347  20648888.836    20648888.256    20648894.163
       237.000         208.000
   1491246.60149   1146977.19645  24643851.743    24643851.168    24643859.898
       206.000         144.000
  -3128482.49649  -2425042.75447  21774641.563    21774641.424    21774647.481
       235.000         200.000
 00  5 24 14 14 59.9990000  0  7G 2G24G 4G26G 7G 8G 9
   -110765.77349    -83600.10947  21533555.970    21533555.383    21533561.592
       240.000         203.000
  -2726410.92849  -2091326.49545  23594915.741    23594916.310    23594925.208
       212.000         153.000
  -3689067.27349  -2858219.92847  21496544.751    21496545.162    21496551.450
       236.000         196.000
   1016352.74549    788561.15246  23694966.860    23694966.952    23694973.851
       220.000         167.000
   -115571.63449    -88265.91847  20649059.881    20649059.323    20649065.221
       240.000         208.000
   1570332.19049   1208602.20645  24658901.602    24658900.773    24658909.526
       205.000         145.000
  -3229189.66449  -2503515.85247  21755477.504    21755477.451    21755483.516
       237.000         199.000
 00  5 24 14 15 29.9990000  0  7G 2G24G 4G26G 7G 8G 9
   -110118.48349    -83095.75447  21533679.234    21533678.611    21533684.797
       239.000         203.000
  -2871103.00649  -2204073.43545  23567381.686    23567382.314    23567391.143
       209.000         152.000
  -3804869.29149  -2948455.21847  21474508.300    21474508.742    21474515.025
       235.000         196.000
   1053206.44549    817278.17545  23701979.837    23701980.015    23701986.943
       217.000         162.000
   -114392.35449    -87347.01047  20649284.304    20649283.775    20649289.646
       239.000         208.000
   1649493.49849   1270286.23845  24673965.660    24673964.845    24673973.549
       205.000         141.000
  -3329461.68849  -2581649.87247  21736396.460    21736396.344    21736402.361
       235.000         200.000
 00  5 24 14 15 59.9990000  0  7G 2G24G 4G26G 7G 8G 9
   -109193.59749    -82375.09447  21533855.288    21533854.662    21533860.830
       241.000         203.000
  -3015701.05649  -2316747.11645  23539865.628    23539866.186    23539874.945
       210.000         151.000
  -3920234.25449  -3038349.94447  21452555.180    21452555.496    21452561.773
       237.000         196.000
   1090265.65649    846155.36345  23709031.986    23709032.211    23709039.077
       216.000         161.000
   -112915.94049    -86196.56847  20649565.266    20649564.738    20649570.602
       240.000         208.000
   1728746.43449   1332041.64345  24689047.447    24689046.281    24689055.071
       205.000         140.000
  -3429278.49449  -2659429.16847  21717401.923    21717401.823    21717407.861
       236.000         200.000
 00  5 24 14 16 29.9990000  0  7G 2G24G 4G26G 7G 8G 9
   -107995.28949    -81441.38647  21534083.329    21534082.730    21534088.904
       240.000         203.000
  -3160207.06549  -2429349.11445  23512367.084    23512367.615    23512376.226
       213.000         150.000
  -4035164.30249  -3127905.79747  21430684.753    21430685.047    21430691.298
       236.000         195.000
   1127522.78649    875186.78945  23716121.961    23716122.130    23716128.921
       215.000         160.000
   -111148.79149    -84819.58447  20649901.648    20649901.066    20649906.900
       240.000         208.000
   1808084.03649   1393863.04045  24704145.074    24704143.794    24704152.689
       204.000         138.000
  -3528642.36449  -2736855.55547  21698493.486    21698493.467    21698499.472
       238.000         200.000
 00  5 24 14 16 59.9990000  0  7G 2G24G 4G26G 7G 8G 9
   -106536.34349    -80304.56247  21534360.945    21534360.375    21534366.595
       238.000         203.000
  -3304631.59949  -2541887.64145  23484884.284    23484884.589    23484893.090
       212.000         150.000
  -4149669.99049  -3217130.95647  21408895.050    21408895.331    21408901.570
       235.000         195.000
   1164961.51249    904359.74945  23723246.175    23723246.407    23723253.397
       215.000         162.000
   -109105.86949    -83227.69947  20650290.420    20650289.842    20650295.664
       238.000         208.000
   1887490.94649   1455738.43145  24719255.692    24719254.462    24719263.418
       199.000         135.000
  -3627564.78949  -2813937.93247  21679669.051    21679669.111    21679675.142
       236.000         200.000
 00  5 24 14 17 29.9990000  0  7G 2G24G 4G26G 7G 8G 9
   -104790.07249    -78943.86247  21534693.285    21534692.707    21534698.955
       238.000         202.000
  -3448945.89949  -2654340.27645  23457422.415    23457422.462    23457430.851
       214.000         151.000
  -4263722.46249  -3306002.97547  21387191.518    21387191.836    21387198.079
       235.000         195.000
   1202604.65149    933691.98045  23730409.546    23730409.769    23730416.749
       216.000         161.000
   -106762.54949    -81401.74147  20650736.338    20650735.792    20650741.574
       239.000         208.000
   1966990.67949   1517686.16945  24734383.744    24734382.904    24734391.754
       198.000         134.000
  -3726017.52949  -2890654.32847  21660934.068    21660934.130    21660940.202
       235.000         200.000
 00  5 24 14 17 59.9990000  0  7G 2G24G 4G26G 7G 8G 9
   -102789.81249    -77385.26547  21535073.955    21535073.373    21535079.631
       238.000         203.000
  -3593181.29549  -2766731.39245  23429975.300    23429975.374    23429983.676
       212.000         152.000
  -4377352.65849  -3394545.95647  21365568.308    21365568.697    21365574.934
       236.000         196.000
   1240415.63149    963155.02145  23737604.719    23737604.926    23737612.026
       214.000         162.000
   -104154.37649    -79369.41047  20651232.737    20651232.140    20651237.901
       238.000         208.000
   2046547.50749   1579678.37145  24749522.736    24749522.103    24749530.984
       196.000         133.000
  -3824032.45149  -2967029.57147  21642282.463    21642282.500    21642288.588
       236.000         200.000
 00  5 24 14 18 29.9990000  0  7G 2G24G 4G26G 7G 8G 9
   -100503.74249    -75603.95647  21535509.009    21535508.447    21535514.690
       238.000         202.000
  -3737303.57649  -2879034.37645  23402549.716    23402549.773    23402558.077
       212.000         154.000
  -4490526.84549  -3482733.59347  21344032.089    21344032.377    21344038.567
       237.000         197.000
   1278422.68949    992770.76746  23744837.295    23744837.466    23744844.627
       218.000         165.000
   -101251.57749    -77107.50447  20651785.101    20651784.546    20651790.293
       239.000         208.000
   2126190.45348   1641737.67744  24764678.106    24764677.699    24764686.809
       193.000         127.000
  -3921575.99349  -3043037.51747  21623720.583    21623720.586    21623726.663
       237.000         202.000
 00  5 24 14 18 59.9990000  0  7G 2G24G 4G26G 7G 8G 9
    -97955.74949    -73618.54847  21535993.890    21535993.329    21535999.556
       238.000         201.000
  -3881334.58049  -2991266.23945  23375141.283    23375141.525    23375149.769
       211.000         153.000
  -4603266.70549  -3570582.80247  21322578.550    21322578.736    21322584.839
       237.000         197.000
   1316598.37849   1022517.96545  23752101.998    23752102.122    23752109.321
       215.000         162.000
    -98080.25249    -74636.36347  20652388.639    20652388.057    20652393.777
       239.000         208.000
   2205892.71749   1703843.20544  24779844.956    24779844.663    24779853.532
       195.000         125.000
  -4018670.61049  -3118695.64747  21605244.191    21605244.129    21605250.211
       238.000         203.000
 00  5 24 14 19 29.9990000  0  7G 2G24G 4G26G 7G 8G 9
    -95139.82249    -71424.35347  21536529.723    21536529.213    21536535.422
       238.000         201.000
  -4025265.75549  -3103420.30745  23347751.793    23347752.216    23347760.463
       208.000         153.000
  -4715563.81049  -3658087.00147  21301209.139    21301209.288    21301215.391
       237.000         197.000
   1354945.41549   1052398.67746  23759399.226    23759399.342    23759406.626
       220.000         164.000
    -94636.44649    -71952.89247  20653043.972    20653043.410    20653049.096
       239.000         208.000
   2285657.82549   1765997.71044  24795023.963    24795023.461    24795032.390
       195.000         126.000
  -4115308.63949  -3193997.98947  21586854.664    21586854.540    21586860.615
       237.000         201.000
 00  5 24 14 19 59.9990000  0  7G 2G24G 4G26G 7G 8G 9
    -92047.88149    -69015.07947  21537118.143    21537117.616    21537123.817
       238.000         201.000
  -4169086.92349  -3215488.67445  23320383.215    23320383.793    23320392.128
       213.000         154.000
  -4827408.18249  -3745238.42347  21279925.704    21279925.979    21279932.087
       234.000         196.000
   1393468.27749   1082416.40746  23766730.151    23766730.153    23766737.397
       218.000         166.000
    -90914.14049    -69052.41147  20653752.355    20653751.776    20653757.411
       240.000         208.000
   2365491.09548   1828205.34644  24810215.942    24810215.223    24810224.337
       192.000         122.000
  -4211480.23849  -3268936.89347  21568553.846    21568553.698    21568559.679
       238.000         202.000
 00  5 24 14 20 29.9990000  0  7G 2G24G 4G26G 7G 8G 9
    -88692.31049    -66400.36947  21537756.739    21537756.201    21537762.401
       238.000         202.000
  -4312808.49849  -3327479.44645  23293033.855    23293034.418    23293042.738
       214.000         155.000
  -4938809.88249  -3832044.91347  21258726.571    21258726.894    21258732.996
       235.000         195.000
   1432151.08449   1112558.75845  23774091.380    23774091.361    23774098.662
       216.000         162.000
    -86927.81949    -65946.19047  20654511.009    20654510.400    20654515.987
       239.000         208.000
   2445377.58648   1890454.41144  24825418.044    24825417.431    24825426.237
       193.000         120.000
  -4307196.06749  -3343520.63947  21550339.716    21550339.582    21550345.589
       238.000         203.000
 00  5 24 14 20 59.9990000  0  7G 2G24G 4G26G 7G 8G 9
    -85083.91849    -63588.66147  21538443.453    21538442.888    21538449.107
       239.000         202.000
  -4456438.80549  -3439399.10745  23265702.037    23265702.436    23265710.704
       216.000         157.000
  -5049777.61549  -3918513.26147  21237610.143    21237610.451    21237616.439
       235.000         196.000
   1470979.47149   1142814.57845  23781480.182    23781480.223    23781487.497
       217.000         162.000
    -82690.36749    -62644.29347  20655317.394    20655316.792    20655322.342
       239.000         208.000
   2525303.53048   1952734.26744  24840627.735    24840627.022    24840635.471
       192.000         117.000
  -4402465.66049  -3417756.67047  21532210.473    21532210.375    21532216.392
       238.000         202.000
 00  5 24 14 21 29.9990000  0  7G 2G24G 4G26G 7G 8G 9
    -81209.94549    -60570.00547  21539180.703    21539180.122    21539186.352
       238.000         202.000
  -4599962.66349  -3551235.81145  23238390.511    23238390.698    23238398.973
       215.000         160.000
  -5160296.35249  -4004631.73047  21216579.209    21216579.452    21216585.381
       236.000         197.000
   1509963.09149   1173191.30345  23788898.593    23788898.659    23788905.916
       217.000         162.000
    -78190.96949    -59138.27147  20656173.628    20656173.013    20656178.563
       239.000         208.000
   2605279.13048   2015052.82044  24855846.510    24855845.739    24855854.748
       190.000         116.000
  -4497274.69049  -3491633.81447  21514168.927    21514168.829    21514174.818
       239.000         203.000
 00  5 24 14 21 59.9990000  0  7G 2G24G 4G26G 7G 8G 9
    -77067.06549    -57341.80147  21539969.138    21539968.526    21539974.765
       238.000         201.000
  -4743374.51549  -3662985.23545  23211100.057    23211100.270    23211108.578
       214.000         161.000
  -5270360.65749  -4090396.10147  21195634.664    21195634.895    21195640.832
       236.000         198.000
   1549101.57049   1203688.73046  23796346.716    23796346.627    23796353.773
       219.000         166.000
    -73428.41249    -55427.20847  20657079.908    20657079.313    20657084.869
       239.000         208.000
   2685305.33148   2077410.74944  24871074.686    24871074.372    24871083.318
       186.000         114.000
  -4591617.91249  -3565147.97947  21496215.982    21496215.875    21496221.896
       238.000         202.000
 00  5 24 14 22 29.9990000  0  7G 2G24G 4G26G 7G 8G 9
    -72660.80849    -53908.37247  21540807.693    21540807.012    21540813.256
       238.000         200.000
  -4886677.61749  -3774649.91545  23183830.370    23183830.562    23183838.887
       215.000         161.000
  -5379973.65849  -4175808.81447  21174775.878    21174776.192    21174782.161
       236.000         198.000
   1588386.18449   1234300.02046  23803822.486    23803822.359    23803829.526
       221.000         168.000
    -68410.08649    -51516.83247  20658034.831    20658034.255    20658039.835
       239.000         207.000
   2765373.87148   2139801.64944  24886311.146    24886311.227    24886320.173
       191.000         108.000
  -4685499.31649  -3638302.29547  21478350.943    21478350.838    21478356.851
       238.000         202.000
 00  5 24 14 22 59.9990000  0  7G 2G24G 4G26G 7G 8G 9
    -67975.30449    -50257.35547  21541699.339    21541698.664    21541704.899
       237.000         199.000
  -5029854.01949  -3886215.86545  23156584.773    23156584.972    23156593.319
       218.000         162.000
  -5489117.85049  -4260856.22847  21154006.467    21154006.774    21154012.683
       237.000         198.000
   1627829.11249   1265034.67646  23811328.432    23811328.271    23811335.425
       221.000         169.000
    -63122.43549    -47396.60047  20659041.010    20659040.468    20659046.046
       240.000         207.000
   2845497.58248   2202235.61144  24901558.392    24901558.268    24901567.478
       187.000         110.000
  -4778901.63249  -3711083.30147  21460577.165    21460576.995    21460582.925
       239.000         203.000
 00  5 24 14 23 29.9990000  0  7G 2G24G 4G26G 7G 8G 9
    -63018.65849    -46395.06647  21542642.575    21542641.905    21542648.135
       237.000         200.000
  -5172909.39449  -3997687.52045  23129362.310    23129362.408    23129370.731
       219.000         162.000
  -5597798.99949  -4345542.81547  21133325.233    21133325.480    21133331.328
       236.000         199.000
   1667418.90649   1295883.80446  23818862.154    23818862.067    23818869.242
       217.000         168.000
    -57575.39549    -43074.24247  20660096.617    20660096.055    20660101.631
       239.000         207.000
                   2264704.34554  24916814.695                    24916823.214
       180.000         105.000
  -4871831.53949  -3783496.17947  21442893.095    21442892.993    21442898.917
       238.000         201.000
 00  5 24 14 23 59.9980000  0  7G 2G24G 4G26G 7G 8G 9
    -57794.45549    -42324.28947  21543636.730    21543636.064    21543642.296
       238.000         200.000
  -5315840.28149  -4109062.18045  23102163.572    23102163.585    23102171.767
       218.000         160.000
  -5706014.87849  -4429866.85347  21112732.392    21112732.661    21112738.506
       236.000         198.000
   1707147.31049   1326840.93846  23826422.178    23826422.147    23826429.482
       221.000         168.000
    -51774.85349    -38554.35647  20661200.415    20661199.849    20661205.480
       240.000         207.000
                   2327201.10454  24932077.307
       182.000         103.000
  -4964288.00649  -3855540.16747  21425299.313    21425299.155    21425304.962
       241.000         202.000
 00  5 24 14 24 29.9980000  0  7G 2G24G 4G26G 7G 8G 9
    -52290.33049    -38035.38947  21544684.215    21544683.510    21544689.720
       237.000         200.000
  -5458641.88449  -4220336.10245  23074989.296    23074989.318    23074997.417
       217.000         159.000
  -5813758.68249  -4513823.04447  21092229.316    21092229.651    21092235.526
       236.000         198.000
   1747025.38149   1357914.68846  23834010.861    23834010.826    23834018.080
       218.000         165.000
    -45710.29649    -33828.74547  20662354.464    20662353.910    20662359.549
       239.000         207.000
                   2389737.10354  24947349.107
       182.000         105.000
  -5056263.66049  -3927209.48147  21407796.786    21407796.714    21407802.546
       239.000         202.000
 00  5 24 14 24 59.9980000  0  7G 2G24G 4G26G 7G 8G 9
    -46529.07149    -33546.13747  21545780.606    21545779.894    21545786.100
       239.000         200.000
  -5601329.98649  -4331521.57745  23047836.616    23047836.635    23047844.700
       217.000         157.000
  -5921047.15649  -4597424.43947  21071813.034    21071813.325    21071819.182
       239.000         198.000
   1787025.73949   1389083.73346  23841622.751    23841622.732    23841629.968
       218.000         166.000
    -39406.73349    -28916.89347  20663554.033    20663553.452    20663559.102
       241.000         207.000
                   2452290.33654  24962624.873
       173.000         105.000
  -5147776.39849  -3998518.09347  21390382.443    21390382.399    21390388.250
       242.000         202.000
 00  5 24 14 25 29.9980000  0  6G 2G24G 4G26G 7G 9
    -40473.33049    -28827.41647  21546933.026    21546932.323    21546938.530
       238.000         201.000
  -5743864.58449  -4442587.44545  23020713.182    23020713.177    23020721.257
       214.000         157.000
  -6027841.08349  -4680640.46847  21051490.808    21051491.121    21051496.959
       237.000         198.000
   1827182.59249   1420374.69046  23849264.415    23849264.402    23849271.636
       219.000         165.000
    -32828.76349    -23791.20847  20664805.796    20664805.212    20664810.871
       239.000         207.000
  -5238787.36349  -4069435.70847  21373063.684    21373063.611    21373069.427
       240.000         203.000
 00  5 24 14 25 59.9980000  0  6G 2G24G 4G26G 7G 9
    -34156.35049    -23905.14447  21548135.148    21548134.456    21548140.664
       240.000         200.000
  -5886277.10849  -4553558.17545  22993613.009    22993612.892    22993621.003
       217.000         156.000
  -6134171.71149  -4763495.49747  21031256.766    21031257.068    21031262.918
       238.000         198.000
   1867458.79649   1451758.64846  23856928.745    23856928.746    23856936.076
       218.000         164.000
    -26011.65149    -18479.18047  20666103.103    20666102.484    20666108.163
       242.000         206.000
  -5329328.29349  -4139987.06347  21355834.315    21355834.233    21355840.067
       241.000         202.000
 00  5 24 14 26 29.9980000  0  6G 2G24G 4G26G 7G 9
    -27590.90749    -18789.26947  21549384.560    21549383.870    21549390.090
       238.000         201.000
  -6028577.58249  -4664441.60545  22966534.130    22966533.925    22966542.061
       214.000         155.000
  -6240049.67849  -4845997.80947  21011108.854    21011109.146    21011114.972
       237.000         199.000
   1907838.41849   1483223.14846  23864612.846    23864612.790    23864620.181
       214.000         163.000
    -18970.18149    -12992.34247  20667443.045    20667442.441    20667448.143
       240.000         207.000
  -5419410.31449  -4210180.83347  21338692.314    21338692.195    21338698.024
       239.000         203.000
 00  5 24 14 26 59.9980000  0  6G 2G24G 4G26G 7G 9
    -20729.83149    -13443.00447  21550690.212    21550689.543    21550695.789
       237.000         201.000
  -6170716.65349  -4775199.28245  22939485.764    22939485.664    22939493.845
       212.000         156.000
  -6345425.68149  -4928108.96147  20991056.388    20991056.720    20991062.550
       235.000         199.000
   1948365.39649   1514802.47446  23872324.891    23872324.862    23872332.339
       213.000         163.000
    -11659.11449     -7295.41047  20668834.367    20668833.726    20668839.429
       240.000         208.000
  -5508984.88449  -4279979.17747  21321646.841    21321646.731    21321652.501
       238.000         202.000
 00  5 24 14 27 29.9980000  0  6G 2G24G 4G26G 7G 9
    -13622.24849     -7904.66447  21552042.804    21552042.108    21552048.375
       239.000         200.000
  -6312741.17549  -4885867.66745  22912459.057    22912459.143    22912467.444
       212.000         154.000
  -6450346.90149  -5009865.74447  20971090.465    20971090.845    20971096.705
       238.000         198.000
   1988987.09449   1546455.62446  23880054.906    23880054.969    23880062.455
       217.000         164.000
     -4129.54149     -1428.22247  20670267.255    20670266.589    20670272.266
       241.000         207.000
  -5598099.90249  -4349419.42647  21304688.740    21304688.668    21304694.469
       240.000         201.000
 00  5 24 14 27 59.9980000  0  6G 2G24G 4G26G 7G 9
     -6263.53849     -2170.64547  21553443.124    21553442.467    21553448.741
       237.000         199.000
  -6454643.93449  -4996441.18545  22885455.395    22885455.869    22885464.209
       211.000         158.000
  -6554806.52549  -5091262.84547  20951212.475    20951212.846    20951218.710
       236.000         198.000
   2029704.89749   1578183.68446  23887803.375    23887803.407    23887810.897
       217.000         163.000
      3621.17549      4611.28647  20671742.171    20671741.527    20671747.187
       240.000         207.000
  -5686749.01449  -4418496.65547  21287819.381    21287819.307    21287825.040
       239.000         202.000
 00  5 24 14 28 29.9980000  0  6G 2G24G 4G26G 7G 9
      1342.49949      3756.10347  21554890.519    21554889.876    21554896.154
       238.000         199.000
  -6596426.90549  -5106921.34345  22858474.874    22858475.389    22858483.722
       217.000         160.000
  -6658806.67349  -5172301.90547  20931421.880    20931422.239    20931428.144
       238.000         199.000
   2070511.23249   1609980.76145  23895568.570    23895568.659    23895576.157
       218.000         161.000
     11587.00449     10818.40447  20673258.007    20673257.396    20673263.049
       241.000         206.000
  -5774934.94249  -4487212.95247  21271038.214    21271038.086    21271043.825
       240.000         203.000
 00  5 24 14 28 59.9980000  0  6G 2G24G 4G26G 7G 9
      9187.06749      9868.72447  21556383.284    21556382.675    21556388.950
       238.000         198.000
  -6738096.28349  -5217312.99346  22831516.189    22831516.556    22831524.875
       218.000         163.000
  -6762354.14149  -5252988.22647  20911717.475    20911717.808    20911723.690
       239.000         199.000
   2111394.23349   1641837.58245  23903348.484    23903348.541    23903356.039
       214.000         159.000
     19757.45349     17184.97447  20674812.809    20674812.186    20674817.838
       241.000         206.000
  -5862664.73449  -4555573.80447  21254343.771    21254343.652    21254349.401
       241.000         203.000
 00  5 24 14 29 29.9980000  0  6G 2G24G 4G26G 7G 9
     17303.47549     16193.16547  21557927.761    21557927.178    21557933.482
       236.000         198.000
  -6879616.49149  -5327588.40246  22804586.077    22804586.138    22804594.456
       217.000         166.000
  -6865413.17649  -5333293.95447  20892106.041    20892106.342    20892112.172
       237.000         200.000
   2152383.73149   1673777.35945  23911148.565    23911148.613    23911156.148
       212.000         160.000
     28163.94349     23735.47447  20676412.488    20676411.908    20676417.547
       239.000         207.000
  -5949903.39849  -4623551.96847  21237742.769    21237742.658    21237748.408
       239.000         202.000
 00  5 24 14 29 59.9980000  0  6G 2G24G 4G26G 7G 9
     25687.50649     22726.14047  21559523.242    21559522.630    21559528.954
       236.000         198.000
  -7020989.17349  -5437748.86946  22777683.909    22777683.842    22777692.080
       218.000         168.000
  -6967986.29249  -5413221.03147  20872587.039    20872587.332    20872593.143
       236.000         200.000
   2193472.05449   1705794.13945  23918967.540    23918967.553    23918975.085
       215.000         160.000
     36800.23249     30465.03747  20678056.022    20678055.370    20678060.996
       240.000         207.000
  -6036653.88249  -4691149.73847  21221234.669    21221234.577    21221240.301
       239.000         202.000
 00  5 24 14 30 29.9980000  0  6G 2G24G 4G26G 7G 9
     34333.71049     29463.40747  21561168.628    21561167.988    21561174.304
       236.000         198.000
  -7162217.62849  -5547796.93946  22750809.121    22750808.923    22750817.155
       220.000         169.000
  -7070077.05249  -5492772.25647  20853159.866    20853160.114    20853165.918
       237.000         200.000
   2234650.69849   1737881.31445  23926803.539    23926803.609    23926811.210
       211.000         157.000
     45658.97749     37367.94347  20679741.711    20679741.143    20679746.782
       239.000         206.000
  -6122920.09849  -4758370.15847  21204818.824    21204818.686    21204824.385
       238.000         203.000
 00  5 24 14 30 59.9980000  0  6G 2G24G 4G26G 7G 9
     43232.93249     36397.83647  21562862.134    21562861.499    21562867.797
       236.000         198.000
  -7303308.62549  -5657737.91046  22723960.377    22723960.178    22723968.372
       219.000         169.000
  -7171692.66549  -5571953.24147  20833823.065    20833823.317    20833829.093
       236.000         200.000
   2275906.72549   1770028.79945  23934654.197    23934654.346    23934662.061
       212.000         159.000
     54728.91849     44435.41847  20681467.728    20681467.117    20681472.744
       239.000         207.000
  -6208709.99149  -4825219.41647  21188493.562    21188493.403    21188499.061
       238.000         202.000
 00  5 24 14 31 29.9980000  0  6G 2G24G 4G26G 7G 9
     52391.33949     43534.22047  21564604.946    21564604.295    21564610.620
       234.000         198.000
  -7444253.71049  -5767565.17446  22697139.442    22697139.202    22697147.355
       220.000         169.000
  -7272824.88349  -5650757.56347  20814578.161    20814578.466    20814584.266
       237.000         199.000
   2317243.28949   1802239.04145  23942520.395    23942520.483    23942528.215
       220.000         162.000
     64014.48849     51670.92647  20683234.696    20683234.091    20683239.746
       239.000         206.000
  -6294015.62049  -4891691.31647  21172260.358    21172260.263    21172265.976
       238.000         202.000
 00  5 24 14 31 59.9980000  0  6G 2G24G 4G26G 7G 9
     61792.94249     50860.10247  21566394.047    21566393.410    21566399.732
       237.000         198.000
  -7585066.31749  -5877289.21846  22670343.608    22670343.442    22670351.552
       219.000         169.000
  -7373488.00149  -5729196.34447  20795422.662    20795422.917    20795428.673
       238.000         199.000
   2358640.88349   1834496.83745  23950398.404    23950398.363    23950406.008
       219.000         162.000
     73497.65849     59060.39147  20685039.329    20685038.684    20685044.352
       240.000         206.000
  -6378852.08649  -4957797.64547  21156116.506    21156116.391    21156122.107
       241.000         202.000
 00  5 24 14 32 29.9980000  0  6G 2G24G 4G26G 7G 9
     71468.77849     58399.68847  21568235.430    21568234.719    21568241.048
       235.000         199.000
  -7725713.46849  -5986884.33446  22643579.334    22643579.199    22643587.255
       219.000         171.000
  -7473648.90149  -5807243.78447  20776362.758    20776362.953    20776368.656
       237.000         199.000
   2400127.17549   1866823.73645  23958293.008    23958292.986    23958300.693
       215.000         161.000
     83207.45949     66626.45347  20686887.044    20686886.425    20686892.083
       239.000         207.000
  -6463186.79349  -5023512.98147  21140068.211    21140068.044    21140073.715
       239.000         203.000
 00  5 24 14 32 59.9980000  0  6G 2G24G 4G26G 7G 9
     81408.43449     66144.82247  21570127.006    21570126.249    21570132.575
       235.000         198.000
  -7866202.90049  -6096356.54646  22616845.042    22616844.891    22616852.953
       220.000         169.000
  -7573316.17049  -5884906.57747  20757396.678    20757396.887    20757402.605
       237.000         200.000
   2441688.38149   1899208.97246  23966201.895    23966201.904    23966209.675
       219.000         163.000
     93131.72249     74359.62147  20688775.588    20688774.949    20688780.641
       239.000         206.000
  -6547028.96449  -5088844.52947  21124113.590    21124113.425    21124119.063
       238.000         203.000
 00  5 24 14 33 29.9980000  0  6G 2G24G 4G26G 7G 9
     91612.14749     74095.72547  21572068.698    21572067.984    21572074.329
       234.000         198.000
  -8006531.91949  -6205703.78146  22590141.285    22590141.145    22590149.192
       220.000         170.000
  -7672487.56349  -5962182.96847  20738524.951    20738525.170    20738530.949
       237.000         200.000
   2483321.70949   1931650.42545  23974124.560    23974124.521    23974132.281
       216.000         159.000
    103268.93549     82258.73447  20690704.661    20690704.015    20690709.683
       239.000         206.000
  -6630376.57549  -5153790.70247  21108253.026    21108252.915    21108258.521
       240.000         203.000
 00  5 24 14 33 59.9980000  0  6G 2G24G 4G26G 7G 9
    102091.44749     82261.38247  21574062.800    21574062.181    21574068.518
       234.000         197.000
  -8146686.87749  -6314915.38146  22563470.701    22563470.514    22563478.495
       221.000         169.000
  -7771149.69149  -6039062.52747  20719750.102    20719750.363    20719756.149
       237.000         200.000
   2525035.22149   1964154.38945  23982062.368    23982062.355    23982070.198
       215.000         155.000
    113628.62449     90331.21147  20692676.030    20692675.399    20692681.086
       239.000         206.000
  -6713217.06749  -5218341.72047  21092489.140    21092488.936    21092494.434
       240.000         203.000
 00  5 24 14 34 29.9980000  0  6G 2G24G 4G26G 7G 9
    112825.73849     90625.71347  21576105.466    21576104.855    21576111.230
       236.000         195.000
  -8286685.70449  -6424005.34046  22536829.934    22536829.610    22536837.471
       222.000         168.000
  -7869321.32649  -6115559.89447  20701068.678    20701068.933    20701074.693
       239.000         199.000
   2566805.04549   1996702.24145  23990011.045    23990010.955    23990018.746
       215.000         156.000
    124188.38649     98559.57847  20694685.500    20694684.884    20694690.556
       241.000         205.000
  -6795569.36549  -5282512.33147  21076817.974    21076817.806    21076823.309
       242.000         203.000
 00  5 24 14 34 59.9980000  0  6G 2G24G 4G26G 7G 9
    123820.31749     99192.88447  21578197.598    21578197.039    21578203.483
       234.000         196.000
  -8426520.57949  -6532967.52746  22510220.190    22510219.890    22510227.681
       223.000         169.000
  -7966995.26349  -6191669.44547  20682481.905    20682482.184    20682487.929
       238.000         199.000
   2608633.37349   2029295.69545  23997970.900    23997970.754    23997978.504
       215.000         157.000
    134951.78149    106946.62547  20696733.761    20696733.119    20696738.780
       241.000         206.000
  -6877426.92249  -5346297.42847  21061241.062    21061240.862    21061246.337
       240.000         203.000
 00  5 24 14 35 29.9980000  0  6G 2G24G 4G26G 7G 9
    135066.87149    107956.39047  21580337.808    21580337.197    21580343.700
       236.000         196.000
  -8566198.07549  -6641807.10346  22483640.291    22483640.117    22483647.859
       223.000         168.000
  -8064178.19549  -6267396.38747  20663988.624    20663988.863    20663994.634
       239.000         200.000
   2650508.31549   2061925.41545  24005939.463    24005939.355    24005947.176
       216.000         159.000
    145908.40649    115484.23147  20698818.748    20698818.115    20698823.778
       242.000         206.000
  -6958796.83249  -5409702.54747  21045756.852    21045756.685    21045762.146
       242.000         203.000
 00  5 24 14 35 59.9980000  0  6G 2G24G 4G26G 7G 9
    146582.68449    116929.71347  21582529.199    21582528.602    21582535.167
       234.000         195.000
  -8705698.04249  -6750508.30846  22457094.173    22457094.084    22457101.847
       221.000         168.000
  -8160850.75049  -6342725.62147  20645592.446    20645592.675    20645598.450
       237.000         200.000
   2692444.05649   2094602.56045  24013919.515    24013919.490    24013927.449
       213.000         158.000
    157073.79249    124184.53647  20700943.521    20700942.855    20700948.499
       240.000         206.000
  -7039660.47149  -5472713.14947  21030368.946    21030368.820    21030374.307
       241.000         202.000
 00  5 24 14 36 29.9980000  0  6G 2G24G 4G26G 7G 9
    158346.66849    126096.41347  21584767.898    21584767.261    21584773.839
       234.000         196.000
  -8845039.30049  -6859085.86546  22430578.147    22430578.256    22430586.052
       221.000         169.000
  -8257032.43849  -6417672.36447  20627289.773    20627289.931    20627295.677
       238.000         202.000
   2734416.16349   2127307.98945  24021906.603    24021906.597    24021914.517
       215.000         158.000
    168425.04749    133029.66147  20703103.577    20703102.929    20703108.582
       239.000         206.000
  -7120037.44149  -5535344.53847  21015073.810    21015073.625    21015079.068
       240.000         204.000
 00  5 24 14 36 59.9980000  0  6G 2G24G 4G26G 7G 9
    170381.39349    135474.07947  21587058.059    21587057.415    21587064.014
       234.000         195.000
  -8984196.89449  -6967520.30146  22404097.164    22404097.344    22404105.207
       221.000         169.000
  -8352698.70649  -6492217.48947  20609085.106    20609085.241    20609090.979
       240.000         202.000
   2776443.85949   2160056.77245  24029904.242    24029904.245    24029912.079
       216.000         153.000
    179982.74549    142035.65547  20705302.914    20705302.297    20705307.943
       242.000         206.000
  -7199904.27849  -5597578.42747  20999875.659    20999875.470    20999880.866
       241.000         203.000
 00  5 24 14 37 29.9980000  0  7G 2G24G 4G 5G26G 7G 9
    182682.23549    145059.10447  21589398.749    21589398.205    21589404.815
       233.000         195.000
  -9123172.83449  -7075813.18746  22377650.807    22377651.045    22377658.903
       222.000         170.000
  -8447852.54149  -6566363.32847  20590977.876    20590978.070    20590983.765
       239.000         201.000
   -214172.29655                  23711697.226                    23711705.805
       216.000         158.000
   2818519.31649   2192842.73845  24037911.068    24037911.031    24037918.885
       215.000         157.000
    191740.70349    151197.68547  20707540.404    20707539.782    20707545.432
       242.000         206.000
  -7279264.00849  -5659417.16147  20984773.953    20984773.769    20984779.234
       242.000         203.000
 00  5 24 14 37 59.9980000  0  7G 2G24G 4G 5G26G 7G 9
    195241.89249    154845.81247  21591788.862    21591788.267    21591794.867
       233.000         195.000
  -9261972.09149  -7183968.40646  22351238.226    22351238.389    22351246.213
       222.000         172.000
  -8542499.37049  -6640114.07847  20572967.176    20572967.385    20572973.040
       240.000         202.000
   -416602.57649   -308890.78945  23688566.253    23688566.243    23688574.507
       219.000         162.000
   2860632.17549   2225657.81445  24045925.124    24045924.964    24045932.749
       214.000         157.000
    203689.65849    160508.54647  20709814.212    20709813.614    20709819.263
       241.000         206.000
  -7358122.65849  -5720865.44547  20969767.668    20969767.480    20969772.948
       241.000         203.000
 00  5 24 14 38 29.9980000  0  7G 2G24G 4G 5G26G 7G 9
    208074.70049    164845.36247  21594230.943    21594230.310    21594236.908
       232.000         194.000
  -9400578.03249  -7291972.99246  22324862.304    22324862.517    22324870.313
       223.000         174.000
  -8636623.14649  -6713457.26647  20555056.097    20555056.252    20555061.863
       238.000         202.000
   -538159.72859   -403610.62656  23665434.889    23665435.218    23665442.317
       218.000         164.000
   2902793.26749   2258510.53945  24053948.352    24053948.144    24053955.797
       216.000         158.000
    215842.13449    169977.98447  20712126.815    20712126.187    20712131.828
       240.000         206.000
  -7436464.66249  -5781911.15547  20954859.595    20954859.459    20954864.958
       238.000         202.000
 00  5 24 14 38 59.9980000  0  7G 2G24G 4G 5G26G 7G 9
    221175.33649    175053.60147  21596724.014    21596723.317    21596729.944
       233.000         193.000
  -9538993.53049  -7399829.18146  22298522.691    22298522.909    22298530.672
       225.000         174.000
  -8730227.34949  -6786395.58547  20537243.789    20537243.960    20537249.574
       239.000         201.000
   -659723.24649   -498335.41045  23642302.208    23642302.302    23642309.601
       218.000         162.000
   2944994.37149   2291394.41645  24061979.003    24061978.799    24061986.595
       215.000         158.000
    228191.21449    179600.62347  20714476.792    20714476.166    20714481.790
       241.000         206.000
  -7514294.05749  -5842557.44047  20940049.259    20940049.055    20940054.490
       240.000         203.000
 00  5 24 14 39 29.9980000  0  7G 2G24G 4G 5G26G 7G 9
    234553.08449    185477.78447  21599269.732    21599269.056    21599275.699
       231.000         193.000
  -9677206.82849  -7507527.81446  22272221.740    22272221.791    22272229.504
       224.000         174.000
  -8823300.90749  -6858920.41747  20519532.407    20519532.620    20519538.238
       237.000         202.000
   -781283.41349   -593057.58345  23619170.182    23619170.063    23619177.459
       211.000         158.000
   2987241.48349   2324314.17745  24070018.359    24070018.208    24070026.063
       216.000         152.000
    240744.54149    189382.43447  20716865.622    20716864.990    20716870.630
       239.000         206.000
  -7591600.06149  -5902795.86347  20925338.421    20925338.196    20925343.678
       238.000         203.000
 00  5 24 14 39 59.9980000  0  7G 2G24G 4G 5G26G 7G 9
    248191.47649    196105.05247  21601864.989    21601864.356    21601871.037
       233.000         193.000
  -9815231.81249  -7615079.73646  22245956.583    22245956.497    22245964.160
       225.000         175.000
  -8915858.62349  -6931043.31447  20501919.210    20501919.460    20501925.086
       240.000         203.000
   -902856.53249   -687789.85045  23596035.531    23596035.345    23596042.961
       210.000         153.000
   3029514.97049   2357254.43345  24078062.619    24078062.580    24078070.531
       210.000         147.000
    253483.73549    199309.05747  20719289.787    20719289.183    20719294.843
       241.000         206.000
  -7668398.00149  -5962638.40747  20910724.160    20910724.010    20910729.512
       242.000         203.000
 00  5 24 14 40 29.9980000  0  7G 2G24G 4G 5G26G 7G 9
    262113.70149    206953.49847  21604514.342    21604513.680    21604520.381
       231.000         193.000
  -9953043.08149  -7722465.09246  22219732.066    22219731.886    22219739.549
       224.000         177.000
  -9007875.66449  -7002744.89247  20484408.944    20484409.221    20484414.845
       238.000         204.000
  -1024418.99649   -782513.81045  23572902.862    23572902.695    23572910.334
       209.000         150.000
   3071834.78149   2390230.76845  24086115.884    24086115.866    24086123.784
       213.000         153.000
    266430.22649    209397.21947  20721753.389    20721752.817    20721758.493
       239.000         206.000
  -7744663.64449  -6022066.17047  20896211.255    20896211.130    20896216.605
       239.000         203.000
 00  5 24 14 40 59.9980000  0  7G 2G24G 4G 5G26G 7G 9
    276300.81549    218008.34647  21607214.079    21607213.453    21607220.123
       230.000         193.000
 -10090657.11649  -7829696.77346  22193545.017    22193544.816    22193552.469
       225.000         178.000
  -9099369.32349  -7074038.63647  20466998.320    20466998.559    20467004.180
       238.000         204.000
  -1145989.35349   -877243.92045  23549768.780    23549768.537    23549776.283
       211.000         151.000
   3114178.58049   2423225.87545  24094173.719    24094173.687    24094181.703
       217.000         149.000
    279563.18449    219630.67547  20724252.571    20724251.960    20724257.630
       240.000         206.000
  -7820414.74349  -6081092.98247  20881796.269    20881796.157    20881801.629
       240.000         203.000
 00  5 24 14 41 29.9980000  0  7G 2G24G 4G 5G26G 7G 9
    290755.69849    229271.85147  21609964.755    21609964.158    21609970.821
       231.000         193.000
 -10228068.43649  -7936770.49046  22167396.640    22167396.310    22167403.947
       225.000         177.000
  -9190335.06849  -7144921.02847  20449688.066    20449688.334    20449693.967
       238.000         203.000
  -1267564.09749   -971977.46145  23526633.737    23526633.536    23526641.366
       213.000         153.000
   3156546.46349   2456239.70345  24102236.379    24102236.194    24102244.092
       213.000         145.000
    292883.96549    230010.48447  20726787.455    20726786.849    20726792.522
       240.000         205.000
  -7895646.74849  -6139715.31047  20867480.147    20867479.977    20867485.451
       240.000         204.000
 00  5 24 14 41 59.9980000  0  7G 2G24G 4G 5G26G 7G 9
    305485.96249    240749.93447  21612767.879    21612767.249    21612773.949
       230.000         192.000
 -10365267.02049  -8043678.43946  22141288.565    22141288.248    22141295.893
       222.000         176.000
  -9280763.26549  -7215384.55247  20432480.188    20432480.423    20432486.065
       238.000         204.000
  -1389135.08849  -1066708.10345  23503499.462    23503499.259    23503507.053
       214.000         155.000
   3198942.77849   2489275.69545  24110304.225    24110303.986    24110311.830
       214.000         146.000
    306398.67949    240541.40947  20729359.278    20729358.639    20729364.303
       239.000         205.000
  -7970351.00749  -6197926.40947  20853264.401    20853264.230    20853269.660
       240.000         204.000
 00  5 24 14 42 29.9980000  0  7G 2G24G 4G 5G26G 7G 9
    320486.78749    252438.84347  21615622.370    21615621.821    21615628.553
       230.000         192.000
 -10502255.17749  -8150422.41746  22115220.425    22115220.224    22115227.843
       223.000         176.000
  -9370657.36149  -7285431.89147  20415373.930    20415374.155    20415379.778
       238.000         203.000
  -1510706.60249  -1161439.12445  23480365.249    23480364.988    23480372.749
       214.000         157.000
   3241359.66049   2522327.75045  24118375.913    24118375.736    24118383.635
       217.000         152.000
    320100.58049    251218.19047  20731966.667    20731966.032    20731971.707
       239.000         206.000
  -8044531.22949  -6255729.16347  20839148.381    20839148.178    20839153.672
       240.000         204.000
 00  5 24 14 42 59.9980000  0  7G 2G24G 4G 5G26G 7G 9
    335751.63649    264333.47847  21618527.204    21618526.659    21618533.404
       231.000         192.000
 -10639037.00649  -8257005.62046  22089191.584    22089191.444    22089199.060
       223.000         176.000
  -9460022.19349  -7355066.82147  20398368.381    20398368.564    20398374.207
       238.000         203.000
  -1632284.84249  -1256175.37345  23457229.741    23457229.387    23457237.178
       211.000         154.000
   3283787.22549   2555388.09545  24126449.660    24126449.519    24126457.448
       217.000         152.000
    333981.38849    262034.37947  20734608.100    20734607.471    20734613.147
       239.000         205.000
  -8118192.95449  -6313127.91047  20825131.002    20825130.814    20825136.272
       238.000         203.000
 00  5 24 14 43 29.9980000  0  7G 2G24G 4G 5G26G 7G 9
    351287.42249    276439.24047  21621483.660    21621483.061    21621489.811
       231.000         193.000
 -10775603.15349  -8363420.75746  22063203.826    22063203.713    22063211.349
       223.000         178.000
  -9548849.17649  -7424282.64747  20381465.105    20381465.343    20381471.012
       237.000         203.000
  -1753862.32949  -1350911.03945  23434094.239    23434093.954    23434101.845
       213.000         154.000
   3326229.44449   2588459.85045  24134526.103    24134526.030    24134533.978
       215.000         150.000
    348046.51649    272994.20047  20737284.636    20737284.008    20737289.661
       239.000         205.000
  -8191327.81749  -6370116.10947  20811213.875    20811213.709    20811219.142
       240.000         204.000
 00  5 24 14 43 59.9980000  0  7G 2G24G 4G 5G26G 7G 9
    367116.21949    288773.32247  21624495.818    21624495.235    21624501.973
       231.000         192.000
 -10911928.90249  -8469648.58046  22037261.977    22037261.757    22037269.379
       225.000         178.000
  -9637114.53949  -7493060.84647  20364668.768    20364669.005    20364674.669
       239.000         204.000
  -1875416.43649  -1445628.51645  23410963.267    23410962.939    23410970.846
       214.000         157.000
   3368705.39549   2621557.89245  24142608.982    24142608.924    24142617.066
       210.000         143.000
    362316.54749    284113.68447  20740000.211    20739999.544    20740005.143
       239.000         205.000
  -8263912.47149  -6426675.57247  20797401.396    20797401.286    20797406.741
       239.000         204.000
 00  5 24 14 44 29.9980000  0  7G 2G24G 4G 5G26G 7G 9
    383218.73749    301320.69847  21627560.065    21627559.468    21627566.195
       233.000         192.000
 -11048031.32249  -8575702.38646  22011362.564    22011362.311    22011369.879
       227.000         177.000
  -9724836.03849  -7561415.25647  20347976.011    20347976.181    20347981.820
       240.000         204.000
  -1996966.04949  -1540342.49845  23387833.118    23387832.809    23387840.665
       213.000         157.000
   3411192.69549   2654664.77445  24150694.127    24150693.984    24150702.229
       206.000         134.000
    376770.39749    295376.40847  20742750.734    20742750.048    20742755.639
       241.000         205.000
  -8335965.27949  -6482820.60547  20783690.120    20783690.047    20783695.591
       240.000         204.000
 00  5 24 14 44 59.9980000  0  7G 2G24G 4G 5G26G 7G 9
    399598.02249    314083.73147  21630677.039    21630676.402    21630683.119
       232.000         193.000
 -11183904.71649  -8681577.72646  21985506.746    21985506.432    21985513.973
       224.000         178.000
  -9812008.97949  -7629342.20647  20331387.595    20331387.712    20331393.349
       238.000         204.000
  -2118507.48549  -1635050.05845  23364704.489    23364704.195    23364712.028
       210.000         156.000
   3453691.21549   2687780.43844  24158781.570    24158781.187    24158789.603
       199.000         124.000
    391409.39949    306783.41347  20745536.404    20745535.772    20745541.372
       239.000         205.000
  -8407482.01149  -6538547.92547  20770080.937    20770080.859    20770086.342
       239.000         204.000
 00  5 24 14 45 29.9980000  0  7G 2G24G 4G 5G26G 7G 9
    416257.94549    327065.44547  21633847.423    21633846.741    21633853.475
       233.000         193.000
 -11319542.74949  -8787269.67246  21959695.461    21959695.335    21959702.864
       226.000         177.000
  -9898627.93549  -7696837.48847  20314904.493    20314904.655    20314910.316
       239.000         204.000
  -2240036.41949  -1729747.86545  23341578.346    23341577.991    23341585.808
       216.000         157.000
   3496201.82558   2720905.48754  24166871.114    24166871.091    24166879.220
       192.000         113.000
    406235.98349    318336.57047  20748357.815    20748357.189    20748362.809
       240.000         204.000
  -8478457.88549  -6593853.79547  20756574.638    20756574.575    20756580.065
       240.000         205.000
 00  5 24 14 45 59.9980000  0  7G 2G24G 4G 5G26G 7G 9
    433177.37849    340249.38047  21637067.113    21637066.463    21637073.215
       233.000         193.000
 -11454964.16949  -8892792.81746  21933925.555    21933925.453    21933933.002
       226.000         176.000
  -9984712.89249  -7763916.65447  20298523.061    20298523.240    20298528.895
       240.000         205.000
  -2361573.58349  -1824452.12845  23318450.633    23318450.276    23318458.024
       215.000         157.000
                   2754020.99854  24174958.336
       190.000         101.000
    421226.98549    330017.85547  20751210.536    20751209.889    20751215.519
       240.000         204.000
  -8548912.92949  -6648753.81947  20743167.463    20743167.398    20743172.923
       240.000         204.000
 00  5 24 14 46 29.9970000  0  7G 2G24G 4G 5G26G 7G 9
    450368.13049    353644.73247  21640338.407    21640337.780    21640344.571
       230.000         192.000
 -11590149.97549  -8998132.36346  21908200.412    21908200.384    21908207.962
       222.000         176.000
 -10070246.83949  -7830566.46147  20282246.441    20282246.661    20282252.328
       238.000         205.000
  -2483101.95749  -1919149.55645  23295324.555    23295324.157    23295331.885
       213.000         155.000
                   2787133.03754  24183044.508
       189.000          99.000
    436392.94049    341835.45647  20754096.530    20754095.894    20754101.531
       238.000         204.000
  -8618831.17249  -6703235.57047  20729862.524    20729862.413    20729867.912
       238.000         205.000
 00  5 24 14 46 59.9970000  0  7G 2G24G 4G 5G26G 7G 9
    467842.69249    367261.21747  21643663.802    21643663.129    21643669.924
       232.000         190.000
 -11725094.68049  -9103284.06446  21882521.185    21882521.213    21882528.789
       224.000         175.000
 -10155222.43349  -7896781.19447  20266076.090    20266076.349    20266082.025
       240.000         204.000
  -2604617.40049  -2013836.87745  23272200.942    23272200.552    23272208.197
       213.000         155.000
                   2820250.38654  24191132.283
       177.000          95.000
    451744.71249    353797.85647  20757017.801    20757017.250    20757022.924
       240.000         203.000
  -8688204.71349  -6757292.86547  20716661.181    20716661.077    20716666.587
       240.000         205.000
 00  5 24 14 47 29.9970000  0  8G16G 2G24G 4G 5G26G 7G 9
  -3763313.17959  -2921270.62055  24472023.277    24472023.040    24472032.468
       212.000         144.000
    485581.76549    381083.82447  21647039.470    21647038.792    21647045.602
       231.000         192.000
 -11859810.27649  -9208257.21246  21856885.439    21856885.630    21856893.255
       222.000         176.000
 -10239654.11449  -7962572.09147  20250009.246    20250009.505    20250015.204
       238.000         204.000
  -2726133.91649  -2108525.04845  23249077.222    23249076.783    23249084.348
       214.000         159.000
                     24099.36853  24199217.044
       175.000          74.000
    467261.47449    365888.82347  20759970.605    20759969.998    20759975.691
       238.000         204.000
  -8757048.98449  -6810937.74147  20703560.615    20703560.464    20703565.931
       240.000         206.000
 00  5 24 14 47 59.9970000  0  8G16G 2G24G 4G 5G26G 7G 9
  -3854048.07049  -2991973.15245  24454757.112    24454756.741    24454766.055
       210.000         140.000
    503608.09949    395130.27047  21650469.836    21650469.149    21650475.936
       232.000         192.000
 -11994271.56949  -9313032.20046  21831298.386    21831298.452    21831306.095
       226.000         177.000
 -10323517.72249  -8027920.33747  20234050.519    20234050.764    20234056.472
       240.000         203.000
  -2847628.28949  -2203195.92245  23225957.627    23225957.175    23225964.714
       214.000         160.000
                     57289.69453  24207302.230
       172.000          77.000
    482964.31449    378124.78747  20762958.799    20762958.161    20762963.874
       239.000         203.000
  -8825340.09449  -6864151.57847  20690565.274    20690565.102    20690570.554
       241.000         206.000
 00  5 24 14 48 29.9970000  0  8G16G 2G24G 4G 5G26G 7G 9
  -3944494.15449  -3062450.59745  24437545.851    24437545.411    24437554.676
       211.000         144.000
    521921.10249    409400.09347  21653954.777    21653954.048    21653960.836
       231.000         193.000
 -12128476.53149  -9417607.46146  21805760.126    21805760.081    21805767.728
       226.000         178.000
 -10406812.25549  -8092825.14947  20218200.044    20218200.317    20218206.014
       238.000         204.000
  -2969100.31849  -2297849.36145  23202842.243    23202841.780    23202849.325
       214.000         160.000
                     90492.29753  24215387.967
       166.000          88.000
    498851.28549    390504.21447  20765981.935    20765981.343    20765987.076
       238.000         204.000
  -8893077.50149  -6916933.96747  20677675.311    20677675.132    20677680.551
       239.000         206.000
 00  5 24 14 48 59.9970000  0  8G16G 2G24G 4G 5G26G 7G 9
  -4034661.37149  -3132710.73345  24420387.699    24420387.153    24420396.533
       207.000         146.000
    540508.54249    423883.77047  21657491.938    21657491.184    21657497.978
       231.000         192.000
 -12262435.09349  -9521990.72046  21780268.646    21780268.598    21780276.243
       227.000         178.000
 -10489548.69549  -8157295.08547  20202455.829    20202456.086    20202461.760
       238.000         204.000
  -3090561.77749  -2392494.61745  23179728.914    23179728.434    23179735.940
       215.000         161.000
                     20784.21053  24223470.320
       168.000          74.000
    514908.47649    403016.29547  20769037.526    20769036.939    20769042.680
       238.000         203.000
  -8960272.67549  -6969293.83447  20664888.483    20664888.293    20664893.778
       240.000         207.000
 00  5 24 14 49 29.9970000  0  7G16G 2G24G 4G 5G 7G 9
  -4124540.08049  -3202746.04745  24403284.297    24403283.761    24403293.173
       206.000         142.000
    559377.18149    438586.55647  21661082.530    21661081.794    21661088.622
       230.000         191.000
 -12396137.86649  -9626174.67346  21754825.817    21754825.769    21754833.424
       227.000         180.000
 -10571718.43749  -8221323.43947  20186819.468    20186819.690    20186825.363
       239.000         205.000
  -3212005.03449  -2487125.68545  23156619.020    23156618.582    23156626.094
       213.000         159.000
    531141.22449    415665.16747  20772126.515    20772125.916    20772131.689
       238.000         203.000
  -9026917.57049  -7021224.92047  20652206.361    20652206.190    20652211.681
       239.000         207.000
 00  5 24 14 49 59.9970000  0  7G16G 2G24G 4G 5G 7G 9
  -4214135.53159  -3272560.70355  24386234.706    24386234.400    24386243.758
       200.000         139.000
    578518.51159    453501.98157  21664724.942    21664724.286    21664731.194
       230.000         191.000
 -12529590.68959  -9730163.70856  21729430.656    21729430.510    21729438.222
       227.000         181.000
 -10653328.79049  -8284915.76147  20171289.585    20171289.774    20171295.461
       239.000         205.000
  -3333437.91259  -2581748.57255  23133511.174    23133510.650    23133518.179
       215.000         158.000
    547539.40249    428443.08847  20775247.004    20775246.391    20775252.199
       238.000         203.000
  -9093019.55749  -7072732.81747  20639627.547    20639627.387    20639632.920
       241.000         207.000
 00  5 24 14 50 29.9970000  0  7G16G 2G24G 4G 5G 7G 9
  -4303420.33749  -3342133.03645  24369243.534    24369243.840    24369253.192
       201.000         137.000
    597958.09749    468649.52547  21668424.270    21668423.572    21668430.436
       233.000         191.000
 -12662765.45349  -9833936.35446  21704088.395    21704088.179    21704095.871
       228.000         182.000
 -10734351.84249  -8348050.50847  20155871.458    20155871.601    20155877.273
       241.000         206.000
  -3454834.21649  -2676343.12645  23110410.346    23110409.757    23110417.181
       217.000         160.000
    564127.26049    441368.53547  20778403.596    20778402.984    20778408.758
       239.000         204.000
  -9158551.03549  -7123796.21747  20627157.327    20627157.149    20627162.704
       241.000         207.000
 00  5 24 14 50 59.9970000  0  7G16G 2G24G 4G 5G 7G 9
  -4392405.37549  -3411472.07845  24352310.271    24352310.389    24352320.032
       204.000         140.000
    617682.59549    484019.20847  21672177.833    21672177.094    21672183.931
       232.000         190.000
 -12795673.14349  -9937500.76646  21678796.882    21678796.695    21678804.375
       227.000         182.000
 -10814801.09749  -8410738.22947  20140562.479    20140562.632    20140568.249
       241.000         205.000
  -3576206.49749  -2770918.90545  23087314.031    23087313.437    23087320.698
       215.000         162.000
    580890.14849    454430.49247  20781593.507    20781592.880    20781598.654
       240.000         203.000
  -9223526.41949  -7174426.38247  20614792.923    20614792.732    20614798.231
       242.000         207.000
 00  5 24 14 51 29.9970000  0  7G16G 2G24G 4G 5G 7G 9
  -4481085.83449  -3480573.67645  24335435.036    24335435.038    24335444.698
       204.000         142.000
    637693.64149    499612.19647  21675985.886    21675985.136    21675991.939
       229.000         191.000
 -12928309.29649 -10040853.55746  21653557.067    21653556.912    21653564.541
       228.000         181.000
 -10894672.94849  -8472976.01747  20125363.351    20125363.520    20125369.105
       238.000         205.000
  -3697552.05049  -2865473.84146  23064222.708    23064222.130    23064229.404
       219.000         167.000
    597828.10049    467628.88447  20784816.713    20784816.087    20784821.873
       239.000         203.000
  -9287942.14549  -7224620.43447  20602535.000    20602534.822    20602540.275
       239.000         208.000
 00  5 24 14 51 59.9970000  0  7G16G 2G24G 4G 5G 7G 9
  -4569478.35449  -3549450.99045  24318614.707    24318614.564    24318624.168
       206.000         141.000
    657971.75749    515413.28247  21679844.622    21679843.969    21679850.775
       230.000         190.000
 -13060691.24749 -10144008.27946  21628365.724    21628365.479    21628373.077
       226.000         180.000
 -10973985.24449  -8534777.78947  20110270.654    20110270.854    20110276.457
       239.000         204.000
  -3818889.69349  -2960022.60045  23041132.810    23041132.289    23041139.590
       212.000         161.000
    614920.25249    480947.43147  20788069.325    20788068.628    20788074.406
       238.000         203.000
  -9351816.55549  -7274392.69547  20590380.075    20590379.911    20590385.389
       240.000         207.000
 00  5 24 14 52 29.9970000  0  7G16G 2G24G 4G 5G 7G 9
  -4657548.09649  -3618076.75845  24301855.652    24301855.396    24301864.876
       207.000         143.000
    678549.18249    531447.59047  21683760.398    21683759.760    21683766.564
       231.000         191.000
 -13192784.08549 -10246937.72046  21603229.109    21603229.005    21603236.624
       225.000         180.000
 -11052704.40049  -8596117.37747  20095290.920    20095291.067    20095296.656
       239.000         205.000
  -3940186.39749  -3054539.43245  23018050.696    23018050.243    23018057.538
       217.000         161.000
    632197.22849    494409.98647  20791357.008    20791356.359    20791362.125
       238.000         204.000
  -9415116.67349  -7323717.46147  20578334.416    20578334.279    20578339.740
       240.000         207.000
 00  5 24 14 52 59.9970000  0  7G16G 2G24G 4G 5G 7G 9
  -4745310.05049  -3686462.64845  24285155.278    24285154.745    24285164.421
       210.000         142.000
    699408.54249    547701.59347  21687729.867    21687729.222    21687736.014
       233.000         191.000
 -13324602.69749 -10349653.48546  21578144.782    21578144.718    21578152.345
       229.000         181.000
 -11130846.59749  -8657007.38147  20080420.926    20080421.078    20080426.656
       241.000         205.000
  -4061459.13749  -3149037.64746  22994973.381    22994972.854    22994980.061
       218.000         163.000
    649640.36249    508002.01647  20794676.390    20794675.722    20794681.479
       239.000         204.000
  -9477858.66449  -7372607.31747  20566394.927    20566394.822    20566400.342
       241.000         207.000
 00  5 24 14 53 29.9970000  0  7G16G 2G24G 4G 5G 7G 9
  -4832729.02349  -3754581.32445  24268519.980    24268519.487    24268529.127
       207.000         143.000
    720582.04649    564200.38447  21691759.091    21691758.475    21691765.261
       231.000         191.000
 -13456112.24249 -10452128.40646  21553119.291    21553119.230    21553126.888
       228.000         183.000
 -11208378.41249  -8717421.76047  20065667.028    20065667.234    20065672.806
       240.000         206.000
  -4182674.64549  -3243491.21045  22971906.677    22971906.264    22971913.537
       216.000         161.000
    667280.39149    521747.47347  20798033.211    20798032.534    20798038.311
       238.000         204.000
  -9540009.73849  -7421036.72147  20554568.008    20554567.882    20554573.336
       240.000         208.000
 00  5 24 14 53 59.9970000  0  7G16G 2G24G 4G 5G 7G 9
  -4919847.07049  -3822465.47545  24251941.737    24251941.315    24251950.831
       209.000         138.000
    742025.29049    580909.36347  21695839.715    21695839.040    21695845.851
       231.000         190.000
 -13587354.79149 -10554395.28846  21528144.567    21528144.555    21528152.216
       229.000         184.000
 -11285342.81949  -8777394.00247  20051021.172    20051021.386    20051026.942
       240.000         205.000
  -4303876.86449  -3337934.46646  22948842.553    22948842.166    22948849.430
       217.000         166.000
    685071.32249    535610.51247  20801418.658    20801418.026    20801423.859
       237.000         203.000
  -9601613.45749  -7469039.60947  20542845.238    20542845.091    20542850.533
       241.000         208.000
 00  5 24 14 54 29.9970000  0  7G16G 2G24G 4G 5G 7G 9
  -5006652.95149  -3890106.42645  24235423.277    24235422.756    24235432.086
       210.000         148.000
    763746.55549    597834.97547  21699973.173    21699972.510    21699979.324
       231.000         190.000
 -13718319.42949 -10656445.62446  21503222.756    21503222.778    21503230.422
       231.000         185.000
 -11361730.31049  -8836916.70247  20036485.074    20036485.307    20036490.857
       241.000         206.000
  -4425056.67949  -3432360.23445  22925782.756    22925782.414    22925789.650
       216.000         160.000
    703020.25249    549596.66047  20804834.210    20804833.592    20804839.475
       238.000         204.000
  -9662660.34249  -7516608.60747  20531228.403    20531228.231    20531233.677
       241.000         208.000
 00  5 24 14 54 59.9970000  0  7G16G 2G24G 4G 5G 7G 9
  -5093134.60649  -3957494.62845  24218966.291    24218965.853    24218975.340
       209.000         150.000
    785755.45449    614984.72947  21704161.278    21704160.686    21704167.528
       229.000         188.000
 -13848994.07649 -10758269.99446  21478356.265    21478356.223    21478363.834
       230.000         184.000
 -11437529.89749  -8895981.29247  20022060.872    20022061.111    20022066.667
       240.000         206.000
  -4546203.25549  -3526760.16445  22902729.397    22902728.989    22902736.108
       217.000         160.000
    721135.50249    563712.41747  20808281.451    20808280.832    20808286.729
       238.000         203.000
  -9723139.99849  -7563735.60147  20519719.531    20519719.346    20519724.794
       240.000         208.000
 00  5 24 14 55 29.9970000  0  7G16G 2G24G 4G 5G 7G 9
  -5179287.73449  -4024626.82745  24202571.951    24202571.492    24202581.017
       212.000         152.000
    808053.25749    632359.56646  21708404.398    21708403.833    21708410.674
       229.000         187.000
 -13979374.84249 -10859865.38346  21453545.671    21453545.574    21453553.178
       229.000         184.000
 -11512738.95949  -8954585.75147  20007749.064    20007749.293    20007754.837
       240.000         205.000
  -4667314.42949  -3621132.44645  22879682.528    22879682.173    22879689.280
       214.000         159.000
    739417.01249    577957.70847  20811760.401    20811759.719    20811765.619
       237.000         203.000
  -9783050.30749  -7610418.97147  20508318.979    20508318.779    20508324.226
       240.000         208.000
 00  5 24 14 55 59.9970000  0  7G16G 2G24G 4G 5G 7G 9
  -5265105.67849  -4091497.90945  24186241.534    24186240.844    24186250.490
       213.000         151.000
    830644.17749    649962.85346  21712703.426    21712702.784    21712709.613
       229.000         187.000
 -14109454.64249 -10961226.20946  21428792.282    21428792.189    21428799.767
       229.000         183.000
 -11587352.15049  -9012725.86747  19993550.643    19993550.880    19993556.382
       240.000         205.000
  -4788384.98349  -3715473.12746  22856643.501    22856643.136    22856650.248
       219.000         165.000
    757867.54549    592334.73847  20815271.412    20815270.751    20815276.660
       238.000         204.000
  -9842385.86549  -7656654.45447  20497027.746    20497027.567    20497033.038
       240.000         209.000
 00  5 24 14 56 29.9970000  0  7G16G 2G24G 4G 5G 7G 9
  -5350604.12349  -4158120.03545  24169971.762    24169971.146    24169980.665
       203.000         147.000
    853509.70749    667780.09647  21717054.762    21717054.007    21717060.811
       230.000         188.000
 -14239249.86449 -11062365.31246  21404092.973    21404092.924    21404100.492
       228.000         182.000
 -11661386.70849  -9070415.11747  19979462.420    19979462.580    19979468.025
       241.000         205.000
  -4909432.48849  -3809795.79645  22833608.868    22833608.519    22833615.688
       213.000         162.000
    776467.58749    606828.25247  20818810.934    20818810.258    20818816.172
       239.000         204.000
  -9901164.29549  -7702455.82247  20485842.641    20485842.410    20485847.889
       241.000         209.000
 00  5 24 14 56 59.9970000  0  7G16G 2G24G 4G 5G 7G 9
  -5435760.70649  -4224475.72445  24153766.606    24153766.088    24153775.699
       210.000         144.000
    876669.97849    685827.01047  21721462.173    21721461.352    21721468.111
       229.000         188.000
 -14368737.76449 -11163264.93746  21379452.233    21379452.180    21379459.704
       229.000         182.000
 -11734821.39249  -9127636.93147  19965488.297    19965488.411    19965493.851
       240.000         205.000
  -5030436.22849  -3904084.33646  22810582.517    22810582.210    22810589.509
       219.000         167.000
    795235.38149    621452.48447  20822382.403    20822381.701    20822387.614
       238.000         203.000
  -9959364.97149  -7747807.00047  20474767.421    20474767.202    20474772.701
       240.000         209.000
 00  5 24 14 57 29.9970000  0  7G16G 2G24G 4G 5G 7G 9
  -5520576.64549  -4290565.95745  24137626.672    24137626.052    24137635.715
       207.000         140.000
    900120.64949    704100.19747  21725924.789    21725923.942    21725930.701
       230.000         188.000
 -14497920.26049 -11263926.59846  21354869.674    21354869.543    21354877.042
       230.000         183.000
 -11807659.47649  -9184393.86547  19951627.639    19951627.771    19951633.208
       240.000         205.000
  -5151399.61549  -3998341.49345  22787563.906    22787563.571    22787570.875
       218.000         162.000
    814165.76949    636203.41147  20825984.808    20825984.092    20825989.977
       238.000         203.000
 -10016991.15449  -7792710.51447  20463801.488    20463801.293    20463806.820
       240.000         209.000
 00  5 24 14 57 59.9970000  0  7G16G 2G24G 4G 5G 7G 9
  -5605053.63849  -4356392.14245  24121551.355    24121550.687    24121560.190
       209.000         146.000
    923857.66049    722596.50147  21730441.902    21730441.004    21730447.769
       231.000         189.000
 -14626798.51949 -11364351.20046  21330345.060    21330344.833    21330352.257
       231.000         183.000
 -11879903.61249  -9240687.98447  19937879.958    19937880.145    19937885.576
       240.000         206.000
  -5272325.55549  -4092569.46246  22764552.441    22764552.095    22764559.342
       217.000         165.000
    833253.29749    651076.78747  20829617.130    20829616.354    20829622.208
       237.000         203.000
 -10074046.32749  -7837169.09047  20452944.330    20452944.065    20452949.552
       241.000         209.000
 00  5 24 14 58 29.9970000  0  7G16G 2G24G 4G 5G 7G 9
  -5689185.66949  -4421949.51545  24105541.457    24105540.948    24105550.413
       205.000         148.000
    947883.78849    741318.09446  21735014.040    21735013.111    21735019.837
       233.000         186.000
 -14755367.25349 -11464534.62846  21305879.353    21305879.026    21305886.406
       233.000         183.000
 -11951549.51249  -9296515.94647  19924246.243    19924246.390    19924251.784
       242.000         205.000
  -5393210.12149  -4186765.19145  22741548.766    22741548.451    22741555.712
       218.000         161.000
    852499.64449    666073.91447  20833279.609    20833278.830    20833284.681
       239.000         202.000
 -10130526.59449  -7881179.68547  20442196.455    20442196.224    20442201.692
       241.000         208.000
 00  5 24 14 58 59.9970000  0  7G16G 2G24G 4G 5G 7G 9
  -5772984.33749  -4487247.12245  24089594.864    24089594.511    24089603.982
       208.000         149.000
    972185.25349    760254.24846  21739638.548    21739637.581    21739644.277
       231.000         186.000
 -14883637.83949 -11564485.70146  21281470.144    21281469.939    21281477.300
       230.000         184.000
 -12022610.30149  -9351887.98247  19910723.801    19910723.968    19910729.362
       241.000         206.000
  -5514066.48049  -4280938.91946  22718550.528    22718550.220    22718557.521
       214.000         163.000
    871889.53249    681182.89947  20836969.377    20836968.627    20836974.491
       239.000         202.000
 -10186445.01149  -7924752.47447  20431555.528    20431555.302    20431560.738
       241.000         209.000
 00  5 24 14 59 29.9970000  0  7G16G 2G24G 4G 5G 7G 9
  -5856439.01749  -4552276.65145  24073713.891    24073713.609    24073723.097
       208.000         151.000
    996770.01649    779411.15846  21744316.970    21744315.973    21744322.617
       230.000         187.000
 -15011599.78249 -11664196.26946  21257119.790    21257119.543    21257126.933
       230.000         186.000
 -12093076.79349  -9406796.92147  19897314.466    19897314.620    19897320.025
       240.000         206.000
  -5634885.59349  -4375083.63246  22695559.213    22695558.964    22695566.377
       221.000         165.000
    891429.83449    696409.07547  20840687.786    20840687.051    20840692.914
       237.000         202.000
 -10241792.91949  -7967880.70947  20421023.203    20421022.989    20421028.392
       240.000         209.000
 00  5 24 14 59 59.9970000  0  7G16G 2G24G 4G 5G 7G 9
  -5939539.60349  -4617030.30445  24057900.410    24057900.035    24057909.597
       209.000         150.000
   1021645.34949    798794.48246  21749050.586    21749049.647    21749056.284
       229.000         187.000
 -15139243.29549 -11763658.69446  21232829.976    21232829.761    21232837.143
       229.000         186.000
 -12162940.66349  -9461236.28747  19884019.797    19884019.964    19884025.369
       240.000         206.000
  -5755659.02649  -4469192.77446  22672576.870    22672576.568    22672583.908
       216.000         164.000
    911126.52949    711757.12747  20844435.954    20844435.209    20844441.079
       238.000         202.000
 -10296562.69349  -8010558.45347  20410600.948    20410600.659    20410606.062
       240.000         209.000
 00  5 24 15  0 29.9970000  0  7G16G 2G24G 4G 5G 7G 9
  -6022267.12749  -4681493.24445  24042157.782    24042157.424    24042167.073
       204.000         147.000
   1046827.72349    818417.04846  21753842.642    21753841.736    21753848.388
       229.000         186.000
 -15266549.21649 -11862858.07746  21208604.425    21208604.213    21208611.607
       230.000         187.000
 -12232184.37949  -9515192.41647  19870843.139    19870843.295    19870848.716
       240.000         206.000
  -5876369.28749  -4563252.70245  22649606.465    22649606.118    22649613.401
       217.000         162.000
    930994.83649    727238.90247  20848216.776    20848216.044    20848221.899
       237.000         202.000
 -10350736.67849  -8052771.94447  20400291.891    20400291.669    20400297.072
       240.000         209.000
 00  5 24 15  0 59.9970000  0  7G16G 2G24G 4G 5G 7G 9
  -6104633.01249  -4745674.37645  24026484.103    24026483.726    24026493.416
       210.000         153.000
   1072303.16649    838267.99446  21758690.373    21758689.565    21758696.281
       229.000         186.000
 -15393528.97449 -11961803.31046  21184440.896    21184440.741    21184448.140
       230.000         187.000
 -12300820.47249  -9568675.07247  19857782.107    19857782.270    19857787.693
       240.000         205.000
  -5997029.29349  -4657273.44446  22626645.637    22626645.233    22626652.555
       219.000         169.000
    951019.72549    742842.68947  20852027.419    20852026.684    20852032.513
       238.000         202.000
 -10404327.93549  -8094531.36847  20390093.726    20390093.559    20390098.974
       241.000         208.000
 00  5 24 15  1 29.9970000  0  7G16G 2G24G 4G 5G 7G 9
  -6186624.05949  -4809563.44545  24010881.698    24010881.382    24010890.933
       208.000         149.000
   1098081.78649    858355.17946  21763595.938    21763595.099    21763601.864
       228.000         186.000
 -15520170.01949 -12060484.61646  21160341.863    21160341.714    21160349.103
       232.000         186.000
 -12368838.24549  -9621675.92047  19844838.758    19844838.924    19844844.341
       240.000         206.000
  -6117627.78949  -4751246.26946  22603696.495    22603696.092    22603703.427
       219.000         163.000
    971209.96649    758575.32847  20855869.541    20855868.790    20855874.607
       237.000         202.000
 -10457326.02049  -8135828.57047  20380008.539    20380008.360    20380013.751
       240.000         209.000
 00  5 24 15  1 59.9970000  0  7G16G 2G24G 4G 5G 7G 9
  -6268265.18149  -4873179.80145  23995346.000    23995345.411    23995355.193
       207.000         148.000
   1124136.21849    878657.27746  21768553.971    21768553.133    21768559.896
       230.000         186.000
 -15646497.01749 -12158921.20546  21136302.661    21136302.435    21136309.780
       232.000         185.000
 -12436263.65749  -9674215.19047  19832008.169    19832008.286    19832013.701
       241.000         206.000
  -6238190.97449  -4845191.60146  22580754.155    22580753.664    22580761.002
       221.000         165.000
    991537.30949    774414.79147  20859737.755    20859736.977    20859742.804
       238.000         202.000
 -10509757.35849  -8176684.15347  20370031.239    20370031.023    20370036.421
       241.000         209.000
 00  5 24 15  2 29.9970000  0  7G16G 2G24G 4G 5G 7G 9
  -6349546.67649  -4936516.00145  23979878.622    23979877.970    23979887.651
       211.000         146.000
   1150473.39049    899179.68146  21773565.844    21773564.972    21773571.735
       231.000         186.000
 -15772500.49249 -12257105.71446  21112324.965    21112324.760    21112332.053
       233.000         186.000
 -12503088.77249  -9726286.71147  19819291.866    19819291.924    19819297.299
       242.000         206.000
  -6358710.66949  -4939103.00646  22557820.065    22557819.554    22557826.814
       222.000         167.000
   1012007.59949    790365.62547  20863633.162    20863632.373    20863638.203
       240.000         201.000
 -10561614.22549  -8217092.11247  20360163.174    20360162.972    20360168.360
       242.000         208.000
 00  5 24 15  2 59.9970000  0  7G16G 2G24G 4G 5G 7G 9
  -6430462.50649  -4999567.27345  23964480.857    23964480.220    23964489.794
       211.000         148.000
   1177096.88449    919925.21946  21778632.146    21778631.288    21778638.067
       229.000         184.000
 -15898173.90149 -12355033.00346  21088410.031    21088409.852    21088417.165
       231.000         185.000
 -12569308.93749  -9777886.82447  19806690.603    19806690.653    19806695.979
       241.000         205.000
  -6479182.28949  -5032976.96646  22534895.136    22534894.582    22534901.718
       222.000         167.000
   1032623.35049    806429.82347  20867556.155    20867555.420    20867561.285
       238.000         200.000
 -10612892.39149  -8257049.12447  20350405.289    20350405.066    20350410.451
       241.000         208.000
 00  5 24 15  3 29.9970000  0  7G16G 2G24G 4G 5G 7G 9
  -6511006.39649  -5062328.70745  23949154.023    23949153.309    23949162.748
       213.000         152.000
   1204010.08249    940896.48846  21783753.541    21783752.717    21783759.538
       230.000         186.000
 -16023511.76349 -12452698.82147  21064558.915    21064558.804    21064566.130
       231.000         188.000
 -12634919.97449  -9829012.29947  19794205.234    19794205.282    19794210.575
       240.000         205.000
  -6599601.32949  -5126809.94746  22511980.152    22511979.616    22511986.644
       221.000         166.000
   1053386.71749    822609.04647  20871507.345    20871506.581    20871512.451
       238.000         201.000
 -10663587.77649  -8296552.01647  20340758.290    20340758.058    20340763.438
       240.000         209.000
 00  5 24 15  3 59.9970000  0  7G16G 2G24G 4G 5G 7G 9
  -6591172.67549  -5124795.88545  23933898.696    23933898.137    23933907.527
       213.000         150.000
   1231215.94949    962095.81146  21788930.569    21788929.846    21788936.716
       229.000         187.000
 -16148508.30349 -12550098.68247  21040772.913    21040772.739    21040780.058
       232.000         189.000
 -12699917.57249  -9879659.77347  19781836.598    19781836.667    19781841.923
       239.000         205.000
  -6719963.56049  -5220598.67946  22489076.070    22489075.468    22489082.483
       222.000         167.000
   1074299.49049    838904.68147  20875486.941    20875486.186    20875492.041
       238.000         202.000
 -10713696.69049  -8335597.92547  20331222.908    20331222.671    20331228.037
       243.000         209.000
 00  5 24 15  4 29.9970000  0  7G16G 2G24G 4G 5G 7G 9
  -6670962.91049  -5186970.06945  23918715.227    23918714.618    23918723.953
       212.000         155.000
   1258710.29049    983519.92246  21794162.730    21794161.897    21794168.802
       229.000         187.000
 -16273165.15949 -12647233.83747  21017051.484    21017051.290    21017058.635
       232.000         190.000
 -12764305.28249  -9929832.00547  19769583.993    19769584.083    19769589.312
       238.000         205.000
  -6840271.79149  -5314345.34246  22466182.126    22466181.579    22466188.541
       222.000         169.000
   1095356.72249    855312.88747  20879493.980    20879493.271    20879499.110
       237.000         201.000
 -10763222.67249  -8374189.60047  20321798.502    20321798.230    20321803.557
       241.000         209.000
 00  5 24 15  4 59.9970000  0  7G16G 2G24G 4G 5G 7G 9
  -6750350.65249  -5248830.65045  23903608.102    23903607.599    23903616.886
       207.000         147.000
   1286517.42249   1005187.74846  21799454.361    21799453.501    21799460.395
       230.000         186.000
 -16397455.87649 -12744083.71247  20993399.723    20993399.541    20993406.871
       233.000         191.000
 -12828057.86349  -9979509.32747  19757452.197    19757452.345    19757457.587
       238.000         206.000
  -6960501.02849  -5408030.39646  22443303.162    22443302.636    22443309.623
       219.000         165.000
   1116581.11449    871851.34147  20883532.939    20883532.161    20883538.003
       238.000         201.000
 -10812141.21249  -8412307.94247  20312489.573    20312489.338    20312494.689
       240.000         209.000
 00  5 24 15  5 29.9970000  0  7G16G 2G24G 4G 5G 7G 9
  -6829362.02149  -5310397.91345  23888572.681    23888572.197    23888581.494
       213.000         153.000
   1314608.26449   1027076.64246  21804800.009    21804799.076    21804805.941
       230.000         184.000
 -16521406.74249 -12840668.77647  20969812.636    20969812.482    20969819.744
       234.000         191.000
 -12891203.51049 -10028713.72347  19745435.965    19745436.114    19745441.371
       240.000         206.000
  -7080678.80949  -5501675.40446  22420434.115    22420433.553    22420440.401
       225.000         167.000
   1137942.82749    888496.79847  20887598.010    20887597.204    20887603.028
       239.000         201.000
 -10860480.34849  -8449974.80547  20303290.987    20303290.728    20303296.065
       243.000         209.000
 00  5 24 15  5 59.9970000  0  7G16G 2G24G 4G 5G 7G 9
  -6907970.56449  -5371651.29145  23873613.963    23873613.525    23873622.786
       212.000         150.000
   1343006.53049   1049205.09746  21810203.951    21810203.092    21810209.994
       227.000         183.000
 -16644991.26149 -12936968.34947  20946295.372    20946295.122    20946302.358
       236.000         191.000
 -12953717.47149 -10077425.88347  19733539.972    19733540.106    19733545.352
       240.000         206.000
  -7200780.19149  -5595260.86646  22397579.663    22397579.057    22397585.834
       223.000         170.000
   1159464.62149    905267.00447  20891693.482    20891692.694    20891698.540
       239.000         201.000
 -10908215.80749  -8487171.25947  20294207.260    20294206.983    20294212.272
       243.000         208.000
 00  5 24 15  6 29.9970000  0  7G16G 2G24G 4G 5G 7G 9
  -6986199.61949  -5432608.97445  23858727.221    23858726.913    23858736.165
       210.000         145.000
   1371686.50349   1071553.06346  21815661.646    21815660.794    21815667.682
       231.000         182.000
 -16768232.85449 -13033000.73847  20922843.314    20922843.066    20922850.243
       236.000         191.000
 -13015624.71949 -10125665.29047  19721759.435    19721759.560    19721764.800
       241.000         206.000
  -7320829.87149  -5688806.01346  22374734.779    22374734.282    22374741.131
       222.000         165.000
   1181119.74049    922141.08847  20895814.306    20895813.549    20895819.414
       239.000         201.000
 -10955372.76849  -8523916.94047  20285233.595    20285233.322    20285238.626
       243.000         208.000
 00  5 24 15  6 59.9970000  0  7G16G 2G24G 4G 5G 7G 9
  -7064028.27349  -5493254.66645  23843916.997    23843916.595    23843925.772
       213.000         150.000
   1400666.06049   1094134.48446  21821176.450    21821175.510    21821182.380
       227.000         182.000
 -16891110.94449 -13128749.85947  20899460.402    20899460.130    20899467.264
       235.000         191.000
 -13076906.36749 -10173417.21647  19710097.883    19710098.033    19710103.279
       240.000         206.000
  -7440808.62149  -5782295.93046  22351903.509    22351903.036    22351909.888
       224.000         170.000
   1202924.99949    939132.17347  20899963.721    20899962.973    20899968.849
       239.000         201.000
 -11001932.81749  -8560197.50147  20276373.555    20276373.258    20276378.523
       242.000         208.000
 00  5 24 15  7 29.9970000  0  7G16G 2G24G 4G 5G 7G 9
  -7141450.46349  -5553583.63845  23829184.121    23829183.668    23829192.698
       211.000         146.000
   1429949.09749   1116952.37046  21826748.991    21826747.942    21826754.802
       226.000         182.000
 -17013618.93949 -13224210.58347  20876147.914    20876147.642    20876154.765
       234.000         193.000
 -13137557.44949 -10220677.79147  19698556.331    19698556.501    19698561.753
       238.000         206.000
  -7560711.24949  -5875726.55946  22329087.037    22329086.445    22329093.054
       221.000         166.000
   1224883.47549    956242.63247  20904142.345    20904141.567    20904147.431
       238.000         201.000
 -11047891.50449  -8596009.45947  20267627.878    20267627.580    20267632.891
       240.000         208.000
 00  5 24 15  7 59.9970000  0  7G16G 2G24G 4G 5G 7G 9
  -7218459.16549  -5613590.38045  23814529.791    23814529.390    23814538.398
       211.000         145.000
   1459539.71249   1140009.92846  21832379.782    21832378.863    21832385.757
       225.000         180.000
 -17135750.44949 -13319377.94747  20852907.025    20852906.754    20852913.872
       234.000         191.000
 -13197573.32349 -10267443.39647  19687135.707    19687135.859    19687141.095
       239.000         206.000
  -7680532.29049  -5969093.52146  22306285.811    22306285.216    22306291.844
       223.000         170.000
   1246998.16749    973474.82847  20908350.663    20908349.890    20908355.745
       238.000         200.000
 -11093243.99949  -8631349.07247  20258997.586    20258997.272    20259002.613
       241.000         208.000
 00  5 24 15  8 29.9970000  0  7G16G 2G24G 4G 5G 7G 9
  -7295065.98049  -5673284.00945  23799952.160    23799951.576    23799960.482
       214.000         147.000
   1489423.60149   1163295.99246  21838066.502    21838065.608    21838072.520
       228.000         181.000
 -17257517.09649 -13414261.01747  20829735.521    20829735.312    20829742.401
       234.000         192.000
 -13256967.40049 -10313724.49047  19675833.334    19675833.538    19675838.770
       238.000         206.000
  -7800284.67549  -6062407.01546  22283497.537    22283497.007    22283503.758
       221.000         167.000
   1269253.85149    990816.88447  20912585.809    20912585.031    20912590.898
       238.000         201.000
 -11138004.14949  -8666227.12047  20250479.995    20250479.691    20250485.038
       240.000         208.000
 00  5 24 15  8 59.9960000  0  7G16G 2G24G 4G 5G 7G 9
  -7371257.55949  -5732654.00845  23785453.249    23785452.718    23785461.656
       214.000         149.000
   1519608.14449   1186816.34846  21843810.595    21843809.611    21843816.551
       230.000         182.000
 -17378903.88949 -13508848.08547  20806636.428    20806636.160    20806643.224
       237.000         193.000
 -13315728.73049 -10359512.53147  19664651.395    19664651.609    19664656.862
       240.000         206.000
  -7919954.69949  -6155656.38946  22260725.202    22260724.614    22260731.302
       224.000         169.000
   1291657.08749   1008273.91947  20916849.071    20916848.270    20916854.142
       239.000         201.000
 -11182161.74749  -8700635.64347  20242077.114    20242076.813    20242082.121
       242.000         208.000
 00  5 24 15  9 29.9960000  0  7G16G 2G24G 4G 5G 7G 9
  -7447045.59949  -5791709.62045  23771031.263    23771030.800    23771039.579
       212.000         149.000
   1550086.19149   1210565.40346  21849610.502    21849609.457    21849616.434
       225.000         182.000
 -17499925.54749 -13603150.63247  20783606.851    20783606.487    20783613.527
       234.000         193.000
 -13373869.34949 -10404816.89547  19653587.616    19653587.813    19653593.045
       238.000         206.000
  -8039558.09849  -6248853.81546  22237965.490    22237964.887    22237971.443
       223.000         169.000
   1314199.49549   1025839.40647  20921138.800    20921137.995    20921143.859
       238.000         201.000
 -11225728.45049  -8734583.72447  20233786.626    20233786.342    20233791.635
       241.000         208.000
 00  5 24 15  9 59.9960000  0  7G16G 2G24G 4G 5G 7G 9
  -7522420.24549  -5850443.01345  23756687.963    23756687.488    23756696.230
       214.000         149.000
   1580861.37849   1234546.00046  21855466.914    21855465.862    21855472.860
       225.000         182.000
 -17620570.83449 -13697159.91347  20760648.841    20760648.448    20760655.447
       235.000         193.000
 -13431382.02849 -10449631.96647  19642643.338    19642643.511    19642648.724
       238.000         206.000
  -8159084.92649  -6341991.58846  22215220.292    22215219.691    22215226.136
       220.000         167.000
   1336883.82949   1043515.47547  20925455.536    20925454.724    20925460.595
       237.000         201.000
 -11268697.56449  -8768066.15447  20225609.949    20225609.626    20225614.895
       241.000         209.000
 00  5 24 15 10 29.9960000  0  7G16G 2G24G 4G 5G 7G 9
  -7597388.49249  -5908859.78245  23742421.996    23742421.524    23742430.124
       213.000         149.000
   1611924.01749   1258750.58346  21861378.039    21861376.956    21861383.927
       227.000         182.000
 -17740846.81149 -13790881.41447  20737760.995    20737760.653    20737767.654
       234.000         193.000
 -13488275.63649 -10493964.64047  19631816.807    19631817.025    19631822.224
       239.000         206.000
  -8278543.41949  -6435076.07246  22192487.839    22192487.324    22192493.940
       220.000         169.000
   1359699.86049   1061294.16847  20929797.347    20929796.510    20929802.384
       238.000         201.000
 -11311078.21649  -8801090.03947  20217545.249    20217544.879    20217550.116
       242.000         209.000
 00  5 24 15 10 59.9960000  0  7G16G 2G24G 4G 5G 7G 9
  -7671925.75049  -5966940.67045  23728237.842    23728237.497    23728246.183
       213.000         150.000
   1643296.10849   1283196.28346  21867348.060    21867346.952    21867353.881
       226.000         181.000
 -17860728.85549 -13884295.94947  20714947.995    20714947.786    20714954.832
       233.000         193.000
 -13544527.38049 -10537797.16447  19621112.516    19621112.686    19621117.879
       239.000         206.000
  -8397910.06949  -6528089.02146  22169773.308    22169772.707    22169779.259
       225.000         175.000
   1382668.59549   1079191.84147  20934168.118    20934167.340    20934173.220
       237.000         200.000
 -11352847.92149  -8833637.86847  20209596.639    20209596.343    20209601.636
       241.000         209.000
 00  5 24 15 11 29.9960000  0  7G16G 2G24G 4G 5G 7G 9
  -7746046.97149  -6024697.41045  23714133.008    23714132.719    23714141.348
       211.000         151.000
   1674960.13949   1307869.47946  21873373.545    21873372.481    21873379.386
       225.000         180.000
 -17980231.92849 -13977415.18747  20692207.184    20692207.063    20692214.115
       234.000         193.000
 -13600154.06849 -10581142.63647  19610527.158    19610527.276    19610532.484
       240.000         207.000
  -8517201.01949  -6621042.98346  22147073.072    22147072.407    22147078.966
       222.000         171.000
   1405771.67949   1097194.20547  20938564.556    20938563.743    20938569.619
       239.000         200.000
 -11394023.70849  -8865722.91347  20201761.153    20201760.869    20201766.140
       243.000         209.000
 00  5 24 15 11 59.9960000  0  7G16G 2G24G 4G 5G 7G 9
  -7819754.90449  -6082132.11345  23700106.884    23700106.533    23700115.228
       213.000         151.000
   1706910.75349   1332766.00946  21879453.473    21879452.515    21879459.480
       224.000         178.000
 -18099358.80349 -14070241.25347  20669538.089    20669537.940    20669545.000
       234.000         193.000
 -13655160.37549 -10624004.67547  19600059.783    19600059.946    19600065.128
       238.000         206.000
  -8636420.06449  -6713940.89846  22124386.289    22124385.698    22124392.297
       220.000         166.000
   1429003.04149   1115296.54347  20942985.411    20942984.571    20942990.443
       237.000         200.000
 -11434610.51349  -8897348.98747  20194037.718    20194037.470    20194042.715
       242.000         209.000
 00  5 24 15 12 29.9960000  0  7G16G 2G24G 4G 5G 7G 9
  -7893045.78549  -6139241.82245  23686160.020    23686159.669    23686168.460
       211.000         153.000
   1739149.18449   1357886.79346  21885588.153    21885587.328    21885594.328
       223.000         180.000
 -18218105.70949 -14162771.27747  20646941.379    20646941.176    20646948.193
       235.000         194.000
 -13709544.36749 -10666381.80547  19589710.858    19589711.036    19589716.181
       239.000         206.000
  -8755564.56549  -6806780.72246  22101713.647    22101713.139    22101719.781
       219.000         169.000
   1452363.15049   1133499.18647  20947430.706    20947429.896    20947435.764
       237.000         200.000
 -11474606.59549  -8928514.77547  20186426.806    20186426.527    20186431.697
       242.000         209.000
 00  5 24 15 12 59.9960000  0  7G16G 2G24G 4G 5G 7G 9
  -7965901.53149  -6196012.50045  23672296.138    23672295.605    23672304.385
       213.000         152.000
   1771690.76649   1383243.79246  21891780.603    21891779.822    21891786.853
       227.000         180.000
 -18336454.78449 -14254991.30147  20624420.335    20624420.096    20624427.089
       237.000         194.000
 -13763289.97349 -10708261.50147  19579483.519    19579483.592    19579488.735
       241.000         206.000
  -8874617.58049  -6899549.29546  22079058.634    22079058.096    22079064.697
       228.000         175.000
   1475866.29449   1151813.28147  20951903.225    20951902.420    20951908.305
       239.000         200.000
 -11513996.49349  -8959208.22247  20178931.246    20178930.902    20178936.054
       244.000         209.000
 00  5 24 15 13 29.9960000  0  7G16G 2G24G 4G 5G 7G 9
  -8038335.54149  -6252454.52745  23658512.444    23658511.914    23658520.665
       213.000         154.000
   1804519.56949   1408824.60546  21898027.792    21898026.979    21898034.036
       224.000         180.000
 -18454419.30849 -14346911.66347  20601972.384    20601972.168    20601979.150
       234.000         194.000
 -13816412.53149 -10749655.68947  19569374.687    19569374.721    19569379.869
       238.000         207.000
  -8993593.64649  -6992257.86746  22056418.352    22056417.737    22056424.344
       221.000         173.000
   1499495.97949   1170225.99247  20956399.805    20956399.024    20956404.933
       237.000         200.000
 -11552795.59649  -8989441.28947  20171548.013    20171547.679    20171552.850
       242.000         209.000
 00  5 24 15 13 59.9960000  0  7G16G 2G24G 4G 5G 7G 9
  -8110325.88749  -6308550.82945  23644813.376    23644812.665    23644821.404
       214.000         155.000
   1837655.26049   1434644.55246  21904333.308    21904332.542    21904339.629
       225.000         179.000
 -18571977.20749 -14438515.18647  20579601.828    20579601.600    20579608.585
       235.000         194.000
 -13868891.76649 -10790548.59147  19559388.248    19559388.259    19559393.389
       239.000         206.000
  -9112471.74549  -7084890.10946  22033796.503    22033795.947    22033802.607
       221.000         173.000
   1523271.00349   1188751.95847  20960924.065    20960923.283    20960929.199
       237.000         200.000
 -11590983.81149  -9019198.35147  20164280.999    20164280.718    20164285.858
       242.000         209.000
 00  5 24 15 14 29.9960000  0  7G16G 2G24G 4G 5G 7G 9
  -8181884.32549  -6364310.56345  23631196.248    23631195.400    23631204.347
       212.000         153.000
   1871083.43749   1460692.41546  21910694.499    21910693.750    21910700.900
       221.000         179.000
 -18689140.25149 -14529811.02247  20557306.365    20557306.166    20557313.166
       235.000         195.000
 -13920741.59449 -10830951.04447  19549521.558    19549521.543    19549526.683
       239.000         207.000
  -9231264.42049  -7177455.78346  22011190.915    22011190.403    22011197.070
       222.000         169.000
   1547176.19149   1207379.35247  20965473.112    20965472.321    20965478.230
       237.000         200.000
 -11628575.23949  -9048490.37447  20157127.650    20157127.321    20157132.457
       242.000         210.000
 00  5 24 15 14 59.9960000  0  7G16G 2G24G 4G 5G 7G 9
  -8253002.87949  -6419727.59245  23617662.716    23617661.972    23617670.777
       211.000         152.000
   1904809.22849   1486972.18846  21917112.238    21917111.601    21917118.793
       223.000         178.000
 -18805900.68749 -14620793.14247  20535087.553    20535087.353    20535094.374
       236.000         195.000
 -13971956.07549 -10870858.43147  19539775.789    19539775.762    19539780.867
       239.000         207.000
  -9349965.14649  -7269949.84846  21988602.907    21988602.383    21988608.952
       224.000         175.000
   1571216.20849   1226111.80247  20970047.835    20970047.013    20970052.914
       237.000         200.000
 -11665564.20149  -9077312.94747  20150088.893    20150088.569    20150093.675
       242.000         209.000
 00  5 24 15 15 29.9960000  0  7G16G 2G24G 4G 5G 7G 9
  -8323687.09349  -6474806.16345  23604211.873    23604211.178    23604219.756
       210.000         148.000
   1938824.63849   1513477.62746  21923585.207    21923584.572    21923591.752
       223.000         178.000
 -18922263.94149 -14711465.77647  20512944.364    20512944.150    20512951.159
       236.000         197.000
 -14022542.63849 -10910276.52847  19530149.486    19530149.469    19530154.561
       238.000         207.000
  -9468580.56949  -7362377.41546  21966031.123    21966030.609    21966037.159
       223.000         173.000
   1595382.11049   1244942.33847  20974646.423    20974645.638    20974651.540
       236.000         199.000
 -11701958.60049  -9105672.22647  20143163.229    20143162.939    20143168.052
       242.000         210.000
 00  5 24 15 15 59.9960000  0  7G16G 2G24G 4G 5G 7G 9
  -8393941.35049  -6529549.69345  23590842.497    23590842.092    23590850.645
       209.000         146.000
   1973123.02049   1540203.56146  21930112.055    21930111.390    21930118.592
       223.000         178.000
 -19038234.36549 -14801832.31147  20490875.989    20490875.717    20490882.686
       237.000         197.000
 -14072507.54349 -10949210.21147  19520641.481    19520641.467    19520646.573
       239.000         207.000
  -9587115.80749  -7454742.48546  21943474.586    21943474.066    21943480.720
       223.000         177.000
   1619666.48349   1263865.19247  20979267.627    20979266.840    20979272.735
       237.000         200.000
 -11737765.01149  -9133573.33047  20136349.579    20136349.232    20136354.315
       242.000         209.000
 00  5 24 15 16 29.9960000  0  7G16G 2G24G 4G 5G 7G 9
  -8463747.97749  -6583944.48145  23577558.653    23577558.272    23577566.677
       209.000         146.000
   2007719.22249   1567161.56546  21936695.550    21936694.894    21936702.143
       222.000         178.000
 -19153794.37049 -14891879.03547  20468885.654    20468885.349    20468892.317
       237.000         198.000
 -14121835.12949 -10987647.28847  19511254.772    19511254.752    19511259.850
       239.000         207.000
  -9705553.97649  -7547031.91346  21920936.587    21920936.017    21920942.733
       224.000         176.000
   1644083.61049   1282891.48947  20983914.095    20983913.301    20983919.191
       236.000         200.000
 -11772967.84949  -9161004.12347  20129650.708    20129650.368    20129655.419
       243.000         210.000
 00  5 24 15 16 59.9960000  0  7G16G 2G24G 4G 5G 7G 9
  -8533126.42249  -6638005.58345  23564356.703    23564356.085    23564364.345
       214.000         150.000
   2042591.25149   1594334.49446  21943331.572    21943330.891    21943338.142
       223.000         177.000
 -19268963.38649 -14981621.09147  20446969.655    20446969.380    20446976.374
       236.000         196.000
 -14170546.99249 -11025604.57547  19501985.280    19501985.216    19501990.276
       239.000         207.000
  -9823915.65549  -7639261.78346  21898413.106    21898412.531    21898419.195
       223.000         172.000
   1668610.89549   1302003.62547  20988581.570    20988580.739    20988586.622
       237.000         200.000
 -11807588.95949  -9187981.61847  20123062.566    20123062.203    20123067.285
       242.000         209.000
 00  5 24 15 17 29.9960000  0  7G16G 2G24G 4G 5G 7G 9
  -8602053.50949  -6691714.99945  23551240.291    23551239.684    23551247.825
       211.000         150.000
   2077760.09649   1621738.71346  21950024.138    21950023.389    21950030.588
       222.000         177.000
 -19383718.14749 -15071040.35347  20425132.493    20425132.238    20425139.238
       237.000         198.000
 -14218622.04149 -11063065.65147  19492836.913    19492836.842    19492841.887
       238.000         207.000
  -9942178.36149  -7731414.51546  21875908.540    21875907.896    21875914.507
       224.000         176.000
   1693268.39649   1321217.23047  20993273.821    20993272.949    20993278.824
       237.000         200.000
 -11841607.47749  -9214489.56247  20116589.065    20116588.712    20116593.780
       242.000         210.000
 00  5 24 15 17 59.9960000  0  7G16G 2G24G 4G 5G 7G 9
  -8670564.24849  -6745099.95345  23538203.056    23538202.442    23538210.728
       210.000         148.000
   2113188.07649   1649344.85146  21956766.001    21956765.184    21956772.355
       224.000         175.000
 -19498093.59949 -15160164.05847  20403367.576    20403367.308    20403374.307
       238.000         198.000
 -14266097.09049 -11100059.19747  19483802.628    19483802.642    19483807.670
       241.000         206.000
 -10060377.65649  -7823517.86646  21853416.103    21853415.416    21853421.855
       228.000         176.000
   1718017.98549   1340502.57947  20997983.560    20997982.686    20997988.561
       239.000         199.000
 -11875060.39849  -9240556.78947  20110223.181    20110222.839    20110227.905
       244.000         209.000
 00  5 24 15 18 29.9960000  0  7G16G 2G24G 4G 5G 7G 9
  -8738617.91049  -6798128.76345  23525252.747    23525252.143    23525260.654
       211.000         151.000
   2148913.13149   1677182.47146  21963564.344    21963563.509    21963570.657
       223.000         177.000
 -19612049.28049 -15248960.65747  20381682.540    20381682.262    20381689.227
       239.000         198.000
 -14312933.68549 -11136555.23347  19474889.847    19474889.932    19474894.957
       240.000         207.000
 -10178474.15549  -7915541.07046  21830943.015    21830942.376    21830948.846
       225.000         177.000
   1742897.07049   1359888.84847  21002717.863    21002717.029    21002722.942
       238.000         200.000
 -11907909.69849  -9266153.64247  20103972.214    20103971.820    20103976.908
       243.000         209.000
 00  5 24 15 18 59.9960000  0  7G16G 2G24G 4G 5G 7G 9
  -8806230.56549  -6850813.95845  23512386.489    23512385.956    23512394.448
       214.000         153.000
   2184917.04149   1705237.38146  21970415.750    21970414.931    21970422.030
       222.000         177.000
 -19725600.85149 -15337442.37647  20360074.459    20360074.114    20360081.060
       239.000         198.000
 -14359149.80149 -11172567.79347  19466095.210    19466095.289    19466100.313
       240.000         206.000
 -10296484.24349  -8007496.94646  21808486.424    21808485.808    21808492.283
       225.000         178.000
   1767886.79749   1379361.31747  21007473.330    21007472.441    21007478.377
       238.000         198.000
 -11940173.12349  -9291293.97947  20097832.728    20097832.315    20097837.390
       244.000         210.000
 00  5 24 15 19 29.9960000  0  7G16G 2G24G 4G 5G 7G 9
  -8873396.71949  -6903151.26845  23499605.279    23499604.688    23499612.928
       212.000         149.000
   2221202.47549   1733511.66046  21977320.676    21977319.892    21977327.040
       221.000         176.000
 -19838743.08849 -15425605.13047  20338544.088    20338543.843    20338550.788
       237.000         198.000
 -14404742.02649 -11208094.19947  19457419.320    19457419.379    19457424.406
       238.000         207.000
 -10414403.31049  -8099381.87846  21786047.050    21786046.483    21786053.025
       226.000         176.000
   1792989.30749   1398921.67447  21012250.182    21012249.321    21012255.244
       236.000         198.000
 -11971847.58949  -9315975.38047  20091805.295    20091804.890    20091809.931
       242.000         210.000
 00  5 24 15 19 59.9960000  0  7G16G 2G24G 4G 5G 7G 9
  -8940097.38949  -6955125.82045  23486912.429    23486911.931    23486920.101
       211.000         149.000
   2257786.38749   1762018.52646  21984282.418    21984281.621    21984288.845
       218.000         175.000
 -19951456.57649 -15513433.79747  20317095.396    20317095.171    20317102.109
       237.000         199.000
 -14449693.17749 -11243121.07147  19448865.331    19448865.449    19448870.485
       239.000         207.000
 -10532212.79749  -8191181.45846  21763628.741    21763628.108    21763634.521
       227.000         178.000
   1818221.00149   1418582.69047  21017051.653    21017050.788    21017056.710
       236.000         198.000
 -12002916.26849  -9340184.74447  20085893.135    20085892.716    20085897.791
       243.000         209.000
 00  5 24 15 20 29.9960000  0  7G16G 2G24G 4G 5G 7G 9
  -9006335.78349  -7006740.13045  23474307.488    23474307.014    23474315.354
       211.000         151.000
   2294662.79849   1790753.29646  21991299.824    21991298.988    21991306.243
       221.000         174.000
 -20063744.80149 -15600931.08947  20295727.655    20295727.421    20295734.355
       239.000         199.000
 -14494008.82249 -11277652.74847  19440432.402    19440432.495    19440437.478
       242.000         207.000
 -10649917.16549  -8282899.13146  21741230.261    21741229.667    21741236.071
       230.000         180.000
   1843575.17549   1438339.14447  21021876.387    21021875.556    21021881.465
       237.000         198.000
 -12033384.97249  -9363926.60447  20080095.105    20080094.716    20080099.776
       245.000         209.000
 00  5 24 15 20 59.9960000  0  7G16G 2G24G 4G 5G 7G 9
  -9072128.39549  -7058007.07345  23461787.414    23461787.044    23461795.643
       211.000         152.000
   2331812.63349   1819701.12946  21998369.265    21998368.448    21998375.658
       220.000         172.000
 -20175624.23249 -15688109.83647  20274437.700    20274437.488    20274444.381
       238.000         200.000
 -14537707.59549 -11311703.73847  19432116.831    19432116.915    19432121.864
       239.000         207.000
 -10767533.69349  -8374548.35046  21718848.506    21718847.939    21718854.379
       224.000         178.000
   1869032.47449   1458175.95747  21026720.776    21026719.945    21026725.862
       236.000         198.000
 -12063272.58449  -9387215.66447  20074407.731    20074407.313    20074412.353
       243.000         209.000
 00  5 24 15 21 29.9960000  0  7G16G 2G24G 4G 5G 7G 9
  -9137470.35049  -7108922.88345  23449353.426    23449352.937    23449361.591
       211.000         154.000
   2369238.44649   1848863.99646  22005491.315    22005490.397    22005497.614
       220.000         174.000
 -20287089.85749 -15774966.13747  20253226.534    20253226.274    20253233.177
       238.000         201.000
 -14580786.51549 -11345271.72047  19423919.200    19423919.246    19423924.204
       238.000         207.000
 -10885057.89449  -8466125.60646  21696484.349    21696483.773    21696490.273
       227.000         178.000
   1894594.85549   1478094.65747  21031585.196    21031584.356    21031590.257
       236.000         198.000
 -12092576.38449  -9410049.80847  20068831.349    20068830.976    20068835.978
       244.000         209.000
 00  5 24 15 21 59.9960000  0  7G16G 2G24G 4G 5G 7G 9
  -9202346.79149  -7159475.93445  23437008.094    23437007.426    23437016.009
       212.000         149.000
   2406952.48749   1878251.48446  22012668.194    22012667.187    22012674.452
       219.000         172.000
 -20398126.82749 -15861488.42747  20232096.907    20232096.625    20232103.537
       239.000         201.000
 -14623233.16349 -11378347.02947  19415841.918    19415841.917    19415846.856
       239.000         207.000
 -11002475.60849  -8557619.91846  21674140.534    21674139.913    21674146.397
       225.000         178.000
   1920274.08149   1498104.40247  21036471.861    21036470.985    21036476.888
       235.000         198.000
 -12121283.85949  -9432419.27847  20063368.552    20063368.134    20063373.130
       243.000         209.000
 00  5 24 15 22 29.9960000  0  7G16G 2G24G 4G 5G 7G 9
  -9266752.58749  -7209662.29745  23424751.994    23424751.353    23424759.753
       212.000         149.000
   2444957.65449   1907865.79946  22019900.307    22019899.365    22019906.710
       218.000         171.000
 -20508729.71049 -15947672.47147  20211049.801    20211049.576    20211056.471
       238.000         200.000
 -14665044.13149 -11410926.99847  19407885.621    19407885.590    19407890.492
       239.000         207.000
 -11119782.17249  -8649027.60246  21651817.793    21651817.183    21651823.677
       226.000         177.000
   1946072.63149   1518207.13047  21041381.150    21041380.301    21041386.237
       235.000         197.000
 -12149392.00849  -9454321.74447  20058019.810    20058019.346    20058024.279
       244.000         209.000
 00  5 24 15 22 59.9960000  0  7G16G 2G24G 4G 5G 7G 9
  -9330707.64549  -7259497.36245  23412581.797    23412581.110    23412589.630
       213.000         152.000
   2483231.37949   1937689.39346  22027183.667    22027182.680    22027190.022
       220.000         172.000
 -20618918.58349 -16033533.90347  20190081.506    20190081.301    20190088.198
       238.000         201.000
 -14706241.69349 -11443028.99547  19400045.992    19400045.968    19400050.847
       238.000         207.000
 -11236998.36749  -8740364.86446  21629512.130    21629511.587    21629518.080
       226.000         179.000
   1971967.61449   1538385.00047  21046308.860    21046307.973    21046313.941
       234.000         197.000
 -12176923.44049  -9475774.81547  20052780.736    20052780.297    20052785.243
       243.000         209.000
 00  5 24 15 23 29.9960000  0  7G16G 2G24G 4G 5G 7G 9
  -9394192.52349  -7308966.11445  23400501.293    23400500.527    23400508.838
       209.000         151.000
   2521790.79549   1967735.59746  22034521.500    22034520.385    22034527.689
       220.000         172.000
 -20728673.97349 -16119057.56447  20169195.828    20169195.557    20169202.423
       239.000         201.000
 -14746808.53249 -11474639.51947  19392326.309    19392326.339    19392331.244
       238.000         206.000
 -11354105.27249  -8831616.97946  21607227.449    21607226.892    21607233.361
       227.000         180.000
   1997975.28749   1558650.67147  21051257.885    21051257.067    21051263.060
       234.000         197.000
 -12203860.80949  -9496764.98947  20047654.763    20047654.327    20047659.231
       243.000         209.000
 00  5 24 15 23 59.9960000  0  7G16G 2G24G 4G 5G 7G 9
  -9457215.20949  -7358074.66945  23388508.374    23388507.559    23388516.066
       213.000         151.000
   2560625.32149   1997996.17046  22041911.747    22041910.460    22041917.739
       221.000         172.000
 -20838003.74349 -16204249.57647  20148391.069    20148390.778    20148397.641
       239.000         200.000
 -14786754.82449 -11505766.50347  19384724.819    19384724.829    19384729.709
       240.000         205.000
 -11471111.32149  -8922790.52046  21584962.021    21584961.413    21584967.821
       228.000         176.000
   2024084.99249   1578995.85447  21056226.382    21056225.595    21056231.591
       235.000         196.000
 -12230214.38349  -9517300.25447  20042639.834    20042639.432    20042644.310
       244.000         208.000
 00  5 24 15 24 29.9960000  0  7G16G 2G24G 4G 5G 7G 9
  -9519761.56049  -7406812.05145  23376606.136    23376605.398    23376613.976
       210.000         150.000
   2599746.76949   2028480.33046  22049356.485    22049355.127    22049362.418
       220.000         172.000
 -20946893.80149 -16289098.94647  20127669.884    20127669.662    20127676.518
       238.000         200.000
 -14826068.43149 -11536400.47747  19377243.690    19377243.678    19377248.556
       238.000         206.000
 -11588002.94749  -9013874.87146  21562718.218    21562717.631    21562724.119
       226.000         178.000
   2050308.17849   1599429.47447  21061216.517    21061215.714    21061221.717
       235.000         196.000
 -12255972.66949  -9537371.65247  20037738.084    20037737.756    20037742.668
       243.000         208.000
 00  5 24 15 24 59.9960000  0  7G16G 2G24G 4G 5G 7G 9
  -9581838.51149  -7455183.65945  23364793.530    23364792.609    23364801.026
       215.000         153.000
   2639146.11449   2059181.03846  22056853.999    22056852.680    22056859.984
       220.000         173.000
 -21055350.76549 -16373610.84747  20107031.143    20107030.933    20107037.834
       239.000         201.000
 -14864758.52749 -11566548.60547  19369881.159    19369881.196    19369886.083
       238.000         206.000
 -11704787.47549  -9104875.79546  21540494.762    21540494.237    21540500.719
       227.000         178.000
   2076634.96349   1619943.80947  21066226.426    21066225.578    21066231.579
       235.000         196.000
 -12281144.80749  -9556986.31547  20032947.953    20032947.648    20032952.557
       243.000         208.000
 00  5 24 15 25 29.9960000  0  7G16G 2G24G 4G 5G 7G 9
  -9643436.96549  -7503182.44645  23353071.830    23353070.884    23353079.192
       212.000         153.000
   2678829.76049   2090103.27346  22064405.654    22064404.320    22064411.615
       220.000         172.000
 -21163365.67649 -16457778.29347  20086476.550    20086476.378    20086483.259
       240.000         202.000
 -14902818.22649 -11596205.50947  19362638.637    19362638.678    19362643.573
       238.000         206.000
 -11821456.46149  -9195786.65446  21518293.419    21518292.880    21518299.377
       228.000         178.000
   2103071.79449   1640543.90147  21071257.230    21071256.371    21071262.359
       234.000         195.000
 -12305724.00849  -9576138.94347  20028270.677    20028270.385    20028275.303
       243.000         208.000
 00  5 24 15 25 59.9960000  0  7G16G 2G24G 4G 5G 7G 9
  -9704585.20749  -7550830.36045  23341435.480    23341434.775    23341443.150
       210.000         153.000
   2718767.01749   2121223.12146  22072005.380    22072004.217    22072011.518
       221.000         172.000
 -21270966.63449 -16541623.18447  20066000.829    20066000.596    20066007.464
       240.000         202.000
 -14940277.92049 -11625394.88247  19355510.315    19355510.338    19355515.232
       239.000         206.000
 -11938038.47749  -9286629.77446  21496108.649    21496108.071    21496114.478
       225.000         177.000
   2129587.50049   1661205.45547  21076303.025    21076302.165    21076308.173
       234.000         196.000
 -12329741.16149  -9594853.61847  20023700.367    20023700.078    20023704.960
       243.000         208.000
 00  5 24 15 26 29.9960000  0  7G16G 2G24G 4G 5G 7G 9
  -9765266.98949  -7598114.81845  23329887.964    23329887.397    23329895.841
       210.000         155.000
   2758971.87649   2152551.49546  22079656.211    22079654.976    22079662.335
       220.000         172.000
 -21378137.16849 -16625132.67247  20045606.959    20045606.718    20045613.557
       239.000         201.000
 -14977123.48449 -11654105.70747  19348498.822    19348498.870    19348503.745
       238.000         206.000
 -12054517.55849  -9377392.64246  21473943.231    21473942.745    21473949.234
       228.000         180.000
   2156195.83149   1681939.18547  21081366.479    21081365.608    21081371.603
       235.000         196.000
 -12353182.08749  -9613119.28147  20019239.747    20019239.434    20019244.315
       244.000         208.000
 00  5 24 15 26 59.9960000  0  7G16G 2G24G 4G 5G 7G 9
  -9825489.51959  -7645041.41355  23318427.901    23318427.377    23318435.857
       211.000         150.000
   2799434.67249   2184080.86046  22087355.977    22087354.852    22087362.246
       221.000         172.000
 -21484884.49749 -16708312.38447  20025293.523    20025293.340    20025300.183
       240.000         201.000
 -15013364.47749 -11682345.44547  19341602.375    19341602.438    19341607.293
       239.000         206.000
 -12170901.44049  -9468081.37046  21451796.090    21451795.608    21451802.072
       226.000         177.000
   2182886.69349   1702737.22247  21086445.704    21086444.767    21086450.750
       235.000         196.000
 -12376056.74549  -9630943.70147  20014886.917    20014886.550    20014891.431
       244.000         209.000
 00  5 24 15 27 29.9960000  0  7G16G 2G24G 4G 5G 7G 9
  -9885226.66549  -7691589.78745  23307060.408    23307059.700    23307068.110
       210.000         149.000
   2840179.10749   2215829.66746  22095109.423    22095108.323    22095115.758
       219.000         171.000
 -21591182.46149 -16791141.94247  20005065.633    20005065.448    20005072.336
       239.000         200.000
 -15048976.80849 -11710095.31447  19334825.589    19334825.648    19334830.469
       238.000         206.000
 -12287164.30349  -9558675.76446  21429672.031    21429671.504    21429678.044
       231.000         183.000
   2209683.61449   1723617.89847  21091545.000    21091544.091    21091550.074
       234.000         196.000
 -12398341.17349  -9648308.20647  20010646.375    20010645.984    20010650.863
       243.000         208.000
 00  5 24 15 27 59.9960000  0  7G16G 2G24G 4G 5G 7G 9
  -9944472.47749  -7737755.26045  23295786.324    23295785.634    23295794.076
       213.000         151.000
   2881208.86049   2247800.81446  22102917.126    22102916.030    22102923.590
       219.000         170.000
 -21697024.86449 -16873616.51547  19984924.481    19984924.293    19984931.170
       241.000         201.000
 -15083956.82249 -11737352.47347  19328169.144    19328169.172    19328173.988
       239.000         206.000
 -12403300.67049  -9649171.61546  21407572.028    21407571.485    21407577.963
       229.000         178.000
   2236589.85549   1744583.76147  21096665.100    21096664.201    21096670.195
       234.000         195.000
 -12420031.57849  -9665209.82847  20006518.721    20006518.398    20006523.326
       244.000         208.000
 00  5 24 15 28 29.9960000  0  7G16G 2G24G 4G 5G 7G 9
 -10003247.39049  -7783553.86045  23284601.963    23284601.149    23284609.304
       212.000         146.000
   2922500.87849   2279976.32046  22110774.639    22110773.668    22110781.277
       219.000         169.000
 -21802432.15149 -16955752.03947  19964866.198    19964865.961    19964872.801
       243.000         202.000
 -15118327.23149 -11764134.61147  19321628.618    19321628.705    19321633.509
       240.000         206.000
 -12519331.18349  -9739584.98446  21385492.283    21385491.655    21385498.032
       232.000         182.000
   2263582.43149   1765616.89447  21101801.620    21101800.743    21101806.745
       237.000         194.000
 -12441150.88049  -9681666.44047  20002499.856    20002499.539    20002504.480
       245.000         208.000
 00  5 24 15 28 59.9960000  0  7G16G 2G24G 4G 5G 7G 9
 -10061521.34549  -7828962.06445  23273512.332    23273511.814    23273520.069
       208.000         149.000
   2964083.16249   2312378.00946  22118687.463    22118686.577    22118694.195
       219.000         171.000
 -21907374.01549 -17037524.90047  19944896.500    19944896.209    19944902.979
       241.000         202.000
 -15152060.11049 -11790419.96847  19315209.510    19315209.557    19315214.351
       238.000         205.000
 -12635225.81649  -9829892.45846  21363438.266    21363437.650    21363443.979
       229.000         180.000
   2290688.94149   1786738.80847  21106959.885    21106958.984    21106965.000
       233.000         195.000
 -12461671.39449  -9697656.45747  19998594.959    19998594.632    19998599.559
       243.000         208.000
 00  5 24 15 29 29.9960000  0  7G16G 2G24G 4G 5G 7G 9
 -10119315.31249  -7873996.26145  23262514.297    23262513.834    23262522.198
       212.000         149.000
   3005932.48949   2344987.77346  22126651.344    22126650.314    22126657.971
       219.000         171.000
 -22011871.55149 -17118951.54547  19925011.226    19925010.970    19925017.692
       239.000         202.000
 -15185178.65249 -11816226.62647  19308907.241    19308907.294    19308912.108
       237.000         205.000
 -12751005.72549  -9920110.55246  21341406.149    21341405.468    21341411.754
       228.000         181.000
   2317885.70449   1807931.04947  21112135.271    21112134.399    21112140.419
       233.000         195.000
 -12481616.65449  -9713198.23447  19994799.498    19994799.153    19994804.117
       243.000         208.000
 00  5 24 15 29 59.9960000  0  7G16G 2G24G 4G 5G 7G 9
 -10176620.79149  -7918649.83145  23251609.464    23251608.970    23251617.299
       212.000         151.000
   3048054.74849   2377810.22046  22134667.069    22134665.968    22134673.679
       218.000         170.000
 -22115916.09449 -17200025.20647  19905212.172    19905211.931    19905218.645
       242.000         202.000
 -15217676.79449 -11841549.86047  19302723.057    19302723.104    19302727.925
       239.000         205.000
 -12866663.12149 -10010233.15346  21319397.231    21319396.577    21319402.924
       233.000         182.000
   2345178.44649   1829198.07747  21117328.984    21117328.073    21117334.111
       235.000         194.000
 -12500980.57349  -9728287.02547  19991114.704    19991114.347    19991119.292
       245.000         208.000
 00  5 24 15 30 29.9960000  0  7G16G 2G24G 4G 5G 7G 9
 -10233442.97349  -7962926.81245  23240796.391    23240796.033    23240804.398
       211.000         150.000
   3090442.87749   2410839.82746  22142733.123    22142732.208    22142739.975
       216.000         169.000
 -22219512.42749 -17280749.59847  19885498.471    19885498.192    19885504.888
       240.000         202.000
 -15249561.67349 -11866395.21447  19296655.591    19296655.597    19296660.425
       238.000         206.000
 -12982202.93849 -10100264.16746  21297410.815    21297410.096    21297416.359
       230.000         180.000
   2372559.92349   1850534.25847  21122539.491    21122538.622    21122544.685
       233.000         194.000
 -12519770.38149  -9742928.43947  19987539.107    19987538.767    19987543.762
       243.000         208.000
 00  5 24 15 30 59.9960000  0  7G16G 2G24G 4G 5G 7G 9
 -10289785.36749  -8006829.94845  23230074.806    23230074.443    23230082.730
       213.000         152.000
   3133090.88249   2444071.95046  22150848.847    22150847.933    22150855.719
       220.000         168.000
 -22322664.08449 -17361127.50547  19865869.372    19865869.120    19865875.756
       243.000         202.000
 -15280839.07349 -11890767.22247  19290703.737    19290703.720    19290708.546
       240.000         206.000
 -13097628.94849 -10190206.48146  21275445.796    21275445.195    21275451.482
       229.000         182.000
   2400023.96149   1871934.76347  21127765.843    21127764.905    21127770.985
       235.000         194.000
 -12537992.06849  -9757127.16647  19984071.575    19984071.285    19984076.302
       244.000         207.000
 00  5 24 15 31 29.9960000  0  7G16G 2G24G 4G 5G 7G 9
 -10345636.99649  -8050350.67845  23219446.855    23219446.353    23219454.541
       212.000         153.000
   3176007.73949   2477513.56646  22159015.780    22159014.869    22159022.630
       220.000         167.000
 -22425359.95649 -17441150.23147  19846327.013    19846326.728    19846333.362
       242.000         202.000
 -15311500.34549 -11914659.12147  19284869.105    19284869.077    19284873.898
       239.000         206.000
 -13212930.27949 -10280051.64746  21253504.687    21253504.077    21253510.339
       231.000         183.000
   2427579.16649   1893406.31647  21133009.428    21133008.532    21133014.641
       235.000         193.000
 -12555637.34549  -9770876.73247  19980713.751    19980713.480    19980718.513
       244.000         207.000
 00  5 24 15 31 59.9950000  0  7G16G 2G24G 4G 5G 7G 9
 -10400966.90549  -8093464.83845  23208917.888    23208917.409    23208925.602
       211.000         149.000
   3219218.29349   2511184.03046  22167238.652    22167237.684    22167245.415
       218.000         166.000
 -22527567.50349 -17520792.44647  19826877.521    19826877.262    19826883.858
       241.000         203.000
 -15341517.67849 -11938049.25247  19279156.968    19279156.964    19279161.770
       238.000         206.000
 -13328074.23549 -10369774.19146  21231593.428    21231592.857    21231599.143
       229.000         183.000
   2455251.17649   1914968.88447  21138275.281    21138274.370    21138280.501
       232.000         193.000
 -12572679.08949  -9784156.02547  19977470.867    19977470.551    19977475.599
       242.000         207.000
 00  5 24 15 32 29.9950000  0  7G16G 2G24G 4G 5G 7G 9
 -10455823.65449  -8136210.33845  23198479.270    23198478.578    23198486.622
       209.000         151.000
   3262678.57649   2545049.08946  22175509.017    22175507.950    22175515.698
       217.000         165.000
 -22629338.14349 -17600094.23247  19807511.237    19807510.931    19807517.500
       242.000         203.000
 -15370940.12949 -11960975.84747  19273558.065    19273558.059    19273562.862
       238.000         206.000
 -13443113.25649 -10459414.96446  21209702.152    21209701.614    21209707.977
       229.000         183.000
   2482994.74049   1936587.20247  21143554.708    21143553.830    21143559.969
       233.000         193.000
 -12589165.35849  -9797002.49347  19974333.707    19974333.351    19974338.389
       243.000         207.000
 00  5 24 15 32 59.9950000  0  7G16G 2G24G 4G 5G 7G 9
 -10510171.38049  -8178559.18545  23188137.096    23188136.472    23188144.472
       209.000         149.000
   3306418.88749   2579132.36746  22183832.550    22183831.511    22183839.299
       217.000         166.000
 -22730634.32249 -17679026.30447  19788235.208    19788234.913    19788241.469
       242.000         204.000
 -15399734.91449 -11983413.34947  19268078.595    19268078.597    19268083.407
       238.000         206.000
 -13558009.81349 -10548944.71946  21187838.033    21187837.510    21187843.881
       232.000         186.000
   2510840.50549   1958285.15747  21148853.666    21148852.739    21148858.863
       232.000         192.000
 -12605064.19449  -9809391.21547  19971308.203    19971307.892    19971312.954
       242.000         207.000
 00  5 24 15 33 29.9950000  0  7G16G 2G24G 4G 5G 7G 9
 -10564043.25849  -8220537.26345  23177885.693    23177884.940    23177892.973
       211.000         152.000
   3350403.87849   2613406.29746  22192202.753    22192201.675    22192209.451
       218.000         165.000
 -22831489.01549 -17757614.35347  19769043.198    19769042.905    19769049.471
       241.000         204.000
 -15427937.49349 -12005389.39247  19262711.873    19262711.829    19262716.632
       238.000         206.000
 -13672796.85949 -10638389.14546  21165994.799    21165994.242    21166000.623
       231.000         185.000
   2538752.99549   1980035.10847  21154165.248    21154164.327    21154170.460
       232.000         192.000
 -12620411.09049  -9821349.84947  19968387.842    19968387.467    19968392.538
       242.000         207.000
 00  5 24 15 33 59.9950000  0  7G16G 2G24G 4G 5G 7G 9
 -10617436.85949  -8262142.64845  23167725.067    23167724.397    23167732.485
       212.000         153.000
   3394633.49849   2647870.84646  22200619.490    22200618.361    22200626.191
       218.000         166.000
 -22931899.69249 -17835856.41547  19749935.680    19749935.373    19749941.960
       241.000         204.000
 -15455547.98149 -12026904.07247  19257457.785    19257457.738    19257462.543
       238.000         206.000
 -13787471.72949 -10727746.19246  21144172.988    21144172.370    21144178.642
       234.000         186.000
   2566732.22349   2001837.06147  21159489.501    21159488.591    21159494.768
       232.000         191.000
 -12635206.13649  -9832878.48147  19965572.421    19965572.080    19965577.160
       242.000         207.000
 00  5 24 15 34 29.9950000  0  7G16G 2G24G 4G 5G 7G 9
 -10670332.08049  -8303359.69345  23157659.426    23157658.736    23157666.850
       213.000         152.000
   3439125.95649   2682540.21046  22209086.076    22209085.049    22209092.927
       217.000         167.000
 -23031845.96449 -17913736.60547  19730916.567    19730916.233    19730922.805
       240.000         204.000
 -15482548.05649 -12047943.09947  19252319.917    19252319.838    19252324.625
       238.000         206.000
 -13902014.51749 -10817000.27346  21122376.222    21122375.591    21122381.904
       230.000         185.000
   2594796.28849   2023705.12547  21164829.897    21164829.027    21164835.216
       231.000         191.000
 -12649431.42649  -9843963.13847  19962865.453    19962865.087    19962870.193
       242.000         206.000
 00  5 24 15 34 59.9950000  0  7G16G 2G24G 4G 5G 7G 9
 -10722719.34049  -8344180.92945  23147690.553    23147689.720    23147697.949
       214.000         155.000
   3483888.27449   2717419.82946  22217604.190    22217603.114    22217610.993
       218.000         167.000
 -23131318.34549 -17991247.53247  19711987.613    19711987.277    19711993.811
       240.000         204.000
 -15508930.96949 -12068501.22247  19247299.408    19247299.343    19247304.140
       238.000         207.000
 -14016415.88549 -10906144.17846  21100606.368    21100605.738    21100612.000
       233.000         187.000
   2622952.20849   2045644.77147  21170187.778    21170186.946    21170193.151
       231.000         191.000
 -12663080.23449  -9854598.57747  19960268.206    19960267.836    19960272.947
       242.000         206.000
 00  5 24 15 35 29.9950000  0  7G16G 2G24G 4G 5G 7G 9
 -10774589.65349  -8384599.32445  23137819.897    23137819.074    23137827.479
       209.000         154.000
   3528927.75949   2752515.41846  22226175.147    22226173.982    22226181.818
       218.000         167.000
 -23230307.41449 -18068381.85947  19693150.646    19693150.281    19693156.785
       240.000         203.000
 -15534689.40549 -12088572.74047  19242397.771    19242397.682    19242402.486
       238.000         206.000
 -14130666.15749 -10995170.33446  21078865.282    21078864.628    21078870.913
       233.000         187.000
   2651206.95149   2067661.40847  21175564.525    21175563.665    21175569.888
       230.000         190.000
 -12676145.61949  -9864779.41447  19957781.997    19957781.573    19957786.660
       242.000         206.000
 00  5 24 15 35 59.9950000  0  7G16G 2G24G 4G 5G 7G 9
 -10825950.06849  -8424620.43745  23128046.269    23128045.468    23128053.907
       210.000         155.000
   3574234.53449   2787819.30246  22234796.860    22234795.641    22234803.542
       218.000         168.000
 -23328820.28949 -18145145.11747  19674404.199    19674403.889    19674410.398
       240.000         204.000
 -15559833.20449 -12108165.32647  19237613.113    19237613.016    19237617.802
       238.000         207.000
 -14244772.56149 -11084084.41047  21057151.571    21057150.911    21057157.135
       233.000         189.000
   2679550.94649   2089747.59347  21180958.294    21180957.398    21180963.612
       231.000         190.000
 -12688637.51949  -9874513.37747  19955404.890    19955404.464    19955409.533
       242.000         206.000
 00  5 24 15 36 29.9950000  0  7G16G 2G24G 4G 5G 7G 9
 -10876825.11249  -8464263.33145  23118364.553    23118364.052    23118372.786
       208.000         153.000
   3619782.21749   2823310.90546  22243464.448    22243463.161    22243471.142
       219.000         168.000
 -23426881.26249 -18221556.23947  19655743.780    19655743.492    19655750.020
       242.000         204.000
 -15584389.33049 -12127299.98847  19232940.283    19232940.153    19232944.957
       239.000         206.000
 -14358759.32049 -11172905.23247  21035460.557    21035459.913    21035466.183
       233.000         189.000
   2707957.71949   2111882.69547  21186363.897    21186363.048    21186369.295
       233.000         190.000
 -12700582.45849  -9883821.13047  19953131.863    19953131.442    19953136.506
       243.000         206.000
 00  5 24 15 36 59.9950000  0  7G16G 2G24G 4G 5G 7G 9
 -10927217.98649  -8503530.51245  23108774.936    23108774.519    23108783.348
       206.000         153.000
   3665565.54449   2858986.11446  22252176.819    22252175.545    22252183.508
       219.000         168.000
 -23524493.32049 -18297617.56247  19637168.897    19637168.555    19637175.050
       241.000         204.000
 -15608362.96249 -12145980.75247  19228378.226    19228378.140    19228382.927
       238.000         207.000
 -14472629.62949 -11261635.32446  21013791.691    21013791.073    21013797.336
       231.000         186.000
   2736421.96849   2134062.58847  21191780.545    21191779.660    21191785.922
       232.000         191.000
 -12711986.10049  -9892707.10047  19950961.839    19950961.417    19950966.488
       242.000         206.000
 00  5 24 15 37 29.9950000  0  7G16G 2G24G 4G 5G 7G 9
 -10977111.82349  -8542408.84045  23099280.153    23099279.816    23099288.883
       208.000         150.000
   3711599.10649   2894856.31646  22260936.702    22260935.542    22260943.458
       218.000         167.000
 -23621639.35549 -18373315.75447  19618682.644    19618682.286    19618688.762
       243.000         204.000
 -15631739.55149 -12164196.29247  19223929.809    19223929.731    19223934.512
       240.000         206.000
 -14586366.16349 -11350261.16146  20992148.265    20992147.685    20992154.019
       236.000         187.000
   2764958.54349   2156298.83147  21197210.928    21197210.037    21197216.298
       233.000         189.000
 -12722834.10049  -9901160.11247  19948897.620    19948897.150    19948902.196
       244.000         206.000
 00  5 24 15 37 59.9950000  0  7G16G 2G24G 4G 5G 7G 9
 -11026535.53359  -8580920.61755  23089875.134    23089874.769    23089883.788
       207.000         151.000
   3757851.69659   2930897.40156  22269738.151    22269737.180    22269745.076
       216.000         165.000
 -23718348.11159 -18448672.97857  19600279.507    19600279.210    19600285.718
       241.000         204.000
 -15654550.38159 -12181970.75057  19219588.993    19219588.964    19219593.620
       238.000         207.000
 -14699997.96659 -11438805.18256  20970524.851    20970524.262    20970530.630
       232.000         186.000
   2793536.12659   2178567.26157  21202649.104    21202648.219    21202654.479
       231.000         189.000
 -12733159.02759  -9909205.53057  19946932.760    19946932.375    19946937.402
       241.000         206.000
 00  5 24 15 38 29.9950000  0  7G16G 2G24G 4G 5G 7G 9
 -11075433.99449  -8619023.37945  23080569.874    23080569.557    23080578.686
       211.000         152.000
   3804376.49849   2967150.38946  22278591.500    22278590.596    22278598.489
       216.000         165.000
 -23814564.21849 -18523646.55447  19581970.153    19581969.854    19581976.356
       243.000         204.000
 -15676742.57049 -12199263.38947  19215365.934    19215365.918    19215370.605
       241.000         207.000
 -14813469.49449 -11527224.54446  20948931.832    20948931.273    20948937.622
       233.000         187.000
   2822208.05949   2200908.97147  21208105.244    21208104.325    21208110.565
       232.000         189.000
 -12742906.11649  -9916800.69247  19945078.042    19945077.587    19945082.602
       244.000         205.000
 00  5 24 15 38 59.9950000  0  7G16G 2G24G 4G 5G 7G 9
 -11123841.15049  -8656743.24745  23071358.259    23071357.894    23071367.067
       215.000         155.000
   3851137.54449   3003587.45945  22287489.808    22287489.002    22287496.857
       216.000         162.000
 -23910321.50949 -18598262.60047  19563748.136    19563747.819    19563754.325
       243.000         205.000
 -15698352.45049 -12216102.25947  19211253.638    19211253.678    19211258.404
       240.000         207.000
 -14926814.29849 -11615545.13947  20927363.024    20927362.450    20927368.813
       234.000         188.000
   2850938.34549   2223296.17347  21213572.414    21213571.515    21213577.755
       232.000         188.000
 -12752112.96749  -9923974.87747  19943325.947    19943325.568    19943330.603
       244.000         206.000
 00  5 24 15 39 29.9950000  0  7G16G 2G24G 4G 5G 7G 9
 -11171763.58749  -8694085.44845  23062239.039    23062238.581    23062247.647
       211.000         152.000
   3898126.10949   3040201.82245  22296431.664    22296430.720    22296438.499
       215.000         161.000
 -24005626.39849 -18672526.13747  19545612.222    19545611.901    19545618.372
       241.000         205.000
 -15719388.87349 -12232494.28947  19207250.586    19207250.575    19207255.327
       239.000         207.000
 -15040038.75549 -11703771.98446  20905817.093    20905816.523    20905822.824
       232.000         187.000
   2879718.37949   2245722.12446  21219049.011    21219048.174    21219054.439
       230.000         187.000
 -12760788.32149  -9930734.92047  19941675.048    19941674.705    19941679.770
       242.000         206.000
 00  5 24 15 39 59.9950000  0  7G16G 2G24G 4G 5G 7G 9
 -11219204.70049  -8731052.57445  23053211.143    23053210.800    23053219.823
       208.000         151.000
   3945336.83949   3076989.29645  22305415.761    22305414.691    22305422.470
       212.000         158.000
 -24100481.99149 -18746439.56947  19527561.749    19527561.461    19527567.917
       242.000         204.000
 -15739857.44349 -12248443.84447  19203355.525    19203355.537    19203360.296
       239.000         206.000
 -15153145.58749 -11791907.15646  20884293.633    20884293.038    20884299.281
       233.000         186.000
   2908542.90649   2268182.74546  21224534.179    21224533.323    21224539.596
       232.000         187.000
 -12768937.91749  -9937085.28647  19940124.345    19940123.944    19940128.989
       243.000         207.000
 00  5 24 15 40 29.9950000  0  7G16G 2G24G 4G 5G 7G 9
 -11266129.68849  -8767617.53045  23044281.347    23044281.182    23044290.235
       207.000         149.000
   3992802.19249   3113975.17545  22314448.075    22314447.063    22314454.913
       212.000         157.000
 -24194853.35749 -18819975.67347  19509603.345    19509603.116    19509609.592
       241.000         204.000
 -15759725.74149 -12263925.64147  19199574.632    19199574.685    19199579.508
       238.000         207.000
 -15266099.92449 -11879923.49447  20862799.083    20862798.499    20862804.701
       232.000         188.000
   2937444.67349   2290703.55947  21230034.118    21230033.162    21230039.462
       231.000         188.000
 -12776529.53649  -9943000.86147  19938679.666    19938679.298    19938684.417
       242.000         207.000
 00  5 24 15 40 59.9950000  0  7G16G 2G24G 4G 5G 7G 9
 -11312578.84749  -8803811.69745  23035442.058    23035442.123    23035451.200
       207.000         151.000
   4040479.85649   3151126.48745  22323520.783    22323519.807    22323527.823
       212.000         156.000
 -24288780.61049 -18893165.72647  19491729.575    19491729.340    19491735.786
       241.000         204.000
 -15779036.66649 -12278973.13147  19195899.834    19195899.935    19195904.777
       238.000         207.000
 -15378941.44249 -11967851.91646  20841326.039    20841325.447    20841331.669
       233.000         187.000
   2966381.32549   2313251.54346  21235540.522    21235539.635    21235545.985
       231.000         187.000
 -12783606.08649  -9948515.08847  19937333.191    19937332.710    19937337.801
       243.000         206.000
 00  5 24 15 41 29.9950000  0  7G16G 2G24G 4G 5G 7G 9
 -11358522.95749  -8839612.29545  23026699.426    23026699.347    23026708.348
       211.000         153.000
   4088396.95849   3188464.37945  22332639.103    22332638.125    22332646.253
       212.000         157.000
 -24382234.11549 -18965986.62047  19473946.001    19473945.730    19473952.139
       241.000         204.000
 -15797762.93149 -12293565.04147  19192336.407    19192336.454    19192341.295
       239.000         207.000
 -15491640.43349 -12055669.30247  20819880.105    20819879.540    20819885.715
       232.000         188.000
   2995380.54549   2335848.29247  21241058.900    21241058.017    21241064.395
       230.000         188.000
 -12790140.41049  -9953606.79347  19936089.812    19936089.296    19936094.339
       243.000         207.000
 00  5 24 15 41 59.9950000  0  7G16G 2G24G 4G 5G 7G 9
 -11403932.50249  -8874996.37845  23018058.926    23018058.367    23018067.143
       216.000         155.000
   4136581.19149   3226010.43045  22341808.358    22341807.306    22341815.516
       214.000         158.000
 -24475184.34549 -19038415.35947  19456258.187    19456257.882    19456264.269
       241.000         204.000
 -15815877.41149 -12307680.23947  19188889.424    19188889.407    19188894.245
       238.000         207.000
 -15604167.05149 -12143352.36047  20798466.963    20798466.393    20798472.585
       232.000         188.000
   3024469.90249   2358515.26546  21246594.484    21246593.555    21246599.963
       229.000         186.000
 -12796105.61749  -9958255.02147  19934954.683    19934954.201    19934959.209
       243.000         207.000
 00  5 24 15 42 29.9950000  0  7G16G 2G24G 4G 5G 7G 9
 -11448803.20449  -8909960.54545  23009520.577    23009519.883    23009528.501
       215.000         154.000
   4185034.64949   3263766.25945  22351028.780    22351027.798    22351035.978
       215.000         159.000
 -24567626.68649 -19110448.33947  19438666.970    19438666.659    19438673.036
       240.000         204.000
 -15833378.47549 -12321317.45047  19185559.090    19185559.059    19185563.894
       238.000         207.000
 -15716516.55949 -12230897.42747  20777087.555    20777086.978    20777093.137
       232.000         188.000
   3053651.71149   2381254.29447  21252147.636    21252146.707    21252153.133
       229.000         188.000
 -12801499.94849  -9962458.41747  19933928.253    19933927.728    19933932.733
       244.000         207.000
 00  5 24 15 42 59.9950000  0  7G16G 2G24G 4G 5G 7G 9
 -11493142.92749  -8944510.98245  23001083.086    23001082.354    23001090.799
       209.000         152.000
   4233747.26849   3301724.02845  22360298.735    22360297.606    22360305.788
       215.000         161.000
 -24659568.86949 -19182091.57647  19421170.894    19421170.600    19421176.977
       240.000         203.000
 -15850276.20549 -12334484.53047  19182343.580    19182343.534    19182348.370
       239.000         207.000
 -15828696.11249 -12318310.03746  20755740.510    20755739.912    20755746.055
       232.000         187.000
   3082916.39049   2404057.89246  21257716.560    21257715.611    21257722.086
       230.000         187.000
 -12806333.66549  -9966224.96647  19933008.476    19933007.942    19933012.936
       243.000         207.000
 00  5 24 15 43 29.9950000  0  7G16G 2G24G 4G 5G 7G 9
 -11536957.09249  -8978651.89945  22992745.448    22992744.741    22992753.235
       208.000         148.000
   4282711.87849   3339878.16345  22369616.767    22369615.364    22369623.577
       216.000         161.000
 -24751015.93949 -19253349.02247  19403769.076    19403768.780    19403775.155
       240.000         204.000
 -15866578.14449 -12347187.36547  19179241.485    19179241.418    19179246.224
       239.000         207.000
 -15940710.56849 -12405594.02247  20734424.922    20734424.308    20734430.367
       235.000         190.000
   3112256.76849   2426920.46646  21263299.848    21263298.953    21263305.421
       228.000         187.000
 -12810614.73749  -9969560.89047  19932193.887    19932193.322    19932198.305
       244.000         207.000
 00  5 24 15 43 59.9950000  0  7G16G 2G24G 4G 5G 7G 9
 -11580258.85749  -9012393.55145  22984505.173    22984504.518    22984513.125
       210.000         149.000
   4331913.29449   3378216.81845  22378979.726    22378978.223    22378986.456
       217.000         161.000
 -24841980.90249 -19324230.78947  19386458.898    19386458.697    19386465.112
       239.000         203.000
 -15882299.89549 -12359438.09647  19176249.796    19176249.697    19176254.466
       239.000         207.000
 -16052572.68249 -12492759.28847  20713138.312    20713137.660    20713143.672
       232.000         188.000
   3141657.84449   2449830.34246  21268894.775    21268893.820    21268900.313
       228.000         187.000
 -12814358.72149  -9972478.29947  19931481.450    19931480.892    19931485.900
       244.000         207.000
 00  5 24 15 44 29.9950000  0  7G16G 2G24G 4G 5G 7G 9
 -11623037.94349  -9045727.90745  22976364.479    22976363.986    22976372.580
       211.000         151.000
   4381359.80349   3416746.47045  22388389.195    22388387.715    22388395.959
       213.000         160.000
 -24932453.28649 -19394728.73147  19369242.566    19369242.334    19369248.798
       239.000         202.000
 -15897433.52249 -12371230.55247  19173370.015    19173369.901    19173374.668
       239.000         208.000
 -16164271.29349 -12579797.15747  20691882.803    20691882.122    20691888.085
       232.000         188.000
   3171128.48349   2472794.42546  21274502.902    21274501.943    21274508.432
       229.000         186.000
 -12817557.70849  -9974971.03147  19930872.727    19930872.167    19930877.187
       243.000         206.000
 00  5 24 15 44 59.9950000  0  7G16G 2G24G 4G 5G 7G 9
 -11665267.37749  -9078633.95345  22968328.588    22968328.001    22968336.695
       212.000         153.000
   4431076.31149   3455486.48645  22397849.898    22397848.521    22397856.761
       211.000         157.000
 -25022405.95149 -19464821.71047  19352125.130    19352124.864    19352131.353
       240.000         203.000
 -15911954.39949 -12382545.54547  19170606.796    19170606.675    19170611.461
       239.000         208.000
 -16275778.91649 -12666686.21447  20670663.593    20670662.930    20670668.822
       234.000         189.000
   3200693.73249   2495832.22246  21280129.085    21280128.059    21280134.563
       229.000         186.000
 -12820187.28949  -9977020.08247  19930372.284    19930371.769    19930376.797
       244.000         206.000
 00  5 24 15 45 29.9950000  0  7G16G 2G24G 4G 5G 7G 9
 -11706971.29649  -9111130.51345  22960392.491    22960392.028    22960400.717
       214.000         152.000
   4481036.98549   3494416.76545  22407357.026    22407355.763    22407364.036
       212.000         155.000
 -25111862.42149 -19534528.05147  19335102.119    19335101.859    19335108.308
       241.000         202.000
 -15925888.75949 -12393403.51147  19167955.228    19167955.071    19167959.860
       241.000         207.000
 -16387118.86349 -12753444.59947  20649476.258    20649475.614    20649481.484
       236.000         188.000
   3230328.03049   2518923.83046  21285768.286    21285767.306    21285773.825
       231.000         185.000
 -12822273.92449  -9978646.06147  19929975.250    19929974.725    19929979.763
       244.000         206.000
 00  5 24 15 45 59.9950000  0  7G16G 2G24G 4G 5G 7G 9
 -11748038.66549  -9143131.07845  22952577.799    22952577.230    22952585.787
       213.000         154.000
   4531350.80549   3533622.20345  22416931.203    22416930.232    22416938.570
       210.000         152.000
 -25200711.64149 -19603761.19647  19318194.725    19318194.416    19318200.830
       240.000         204.000
 -15939128.08349 -12403719.88347  19165435.850    19165435.738    19165440.514
       239.000         208.000
 -16498179.55849 -12839985.38147  20628342.097    20628341.467    20628347.313
       234.000         189.000
   3260140.72749   2542154.45246  21291441.531    21291440.518    21291447.071
       230.000         186.000
 -12823709.19249  -9979764.47747  19929702.126    19929701.634    19929706.688
       244.000         206.000
 00  5 24 15 46 29.9950000  0  7G16G 2G24G 4G 5G 7G 9
 -11788516.57149  -9174672.28645  22944875.018    22944874.493    22944883.167
       213.000         153.000
   4581968.83549   3573064.68245  22426563.536    22426562.619    22426570.970
       207.000         152.000
 -25289000.33549 -19672557.57847  19301393.964    19301393.620    19301400.055
       240.000         203.000
 -15951721.91049 -12413533.28147  19163039.378    19163039.232    19163044.011
       241.000         208.000
 -16609007.19949 -12926344.58547  20607252.333    20607251.678    20607257.490
       235.000         190.000
   3290083.02249   2565486.05246  21297139.358    21297138.397    21297144.950
       232.000         185.000
 -12824542.58449  -9980413.90447  19929543.543    19929543.082    19929548.118
       244.000         206.000
 00  5 24 15 46 59.9950000  0  7G16G 2G24G 4G 5G 7G 9
 -11828451.24649  -9205790.22245  22937275.725    22937275.176    22937283.858
       209.000         154.000
   4632842.60749   3612706.45445  22436244.540    22436243.633    22436251.995
       207.000         151.000
 -25376774.93049 -19740953.36247  19284690.946    19284690.628    19284697.122
       239.000         204.000
 -15963718.91549 -12422881.61747  19160756.483    19160756.328    19160761.076
       239.000         208.000
 -16719647.57749 -13012557.83947  20586198.028    20586197.461    20586203.296
       232.000         190.000
   3320107.11749   2588881.39346  21302852.929    21302851.850    21302858.412
       230.000         186.000
 -12824822.92449  -9980632.38247  19929490.293    19929489.746    19929494.800
       243.000         206.000
 00  5 24 15 47 29.9950000  0  7G16G 2G24G 4G 5G 7G 9
 -11867851.09949  -9236491.37945  22929778.026    22929777.642    22929786.359
       213.000         157.000
   4683962.21949   3652539.78445  22445972.399    22445971.357    22445979.802
       206.000         150.000
 -25464042.90749 -19808954.37647  19268084.381    19268084.068    19268090.570
       240.000         203.000
 -15975129.27949 -12431772.83147  19158585.193    19158585.021    19158589.771
       239.000         208.000
 -16830107.63549 -13098630.60147  20565178.157    20565177.570    20565183.394
       234.000         191.000
   3350203.50449   2612333.07846  21308580.119    21308579.055    21308585.604
       229.000         185.000
 -12824560.31149  -9980427.77847  19929540.187    19929539.722    19929544.765
       243.000         206.000
 00  5 24 15 47 59.9950000  0  7G16G 2G24G 4G 5G 7G 9
 -11906733.24349  -9266789.12745  22922379.148    22922378.624    22922387.373
       217.000         158.000
   4735308.56049   3692549.77945  22455743.251    22455742.352    22455750.746
       207.000         151.000
 -25550821.37249 -19876573.96547  19251570.976    19251570.684    19251577.138
       240.000         203.000
 -15985972.74049 -12440222.30547  19156521.764    19156521.608    19156526.332
       240.000         208.000
 -16940404.17649 -13184575.94847  20544189.511    20544188.876    20544194.661
       234.000         192.000
   3380353.20949   2635826.29046  21314317.368    21314316.380    21314322.958
       231.000         186.000
 -12823774.86849  -9979815.78147  19929689.703    19929689.221    19929694.253
       243.000         205.000
 00  5 24 15 48 29.9950000  0  7G16G 2G24G 4G 5G 7G 9
 -11945079.23849  -9296669.09945  22915082.286    22915081.693    22915090.306
       212.000         155.000
   4786898.21849   3732749.36745  22465560.614    22465559.762    22465568.035
       209.000         150.000
 -25637091.75449 -19943797.63847  19235154.305    19235153.989    19235160.403
       240.000         204.000
 -15996233.15149 -12448217.45247  19154569.308    19154569.137    19154573.850
       239.000         207.000
 -17050517.77149 -13270378.72747  20523235.579    20523234.921    20523240.728
       234.000         192.000
   3410573.32249   2659374.38246  21320068.081    21320067.123    21320073.715
       230.000         186.000
 -12822450.58049  -9978783.89747  19929941.739    19929941.238    19929946.262
       243.000         205.000
 00  5 24 15 48 59.9950000  0  7G16G 2G24G 4G 5G 7G 9
 -11982906.84959  -9326145.16055  22907884.101    22907883.389    22907891.890
       215.000         158.000
   4838711.71749   3773123.39145  22475420.719    22475419.755    22475427.961
       209.000         152.000
 -25722871.27949 -20010638.81947  19218831.057    19218830.683    19218837.105
       240.000         202.000
 -16005930.47749 -12455773.82747  19152723.997    19152723.819    19152728.542
       239.000         207.000
 -17160465.30649 -13356052.11147  20502313.295    20502312.619    20502318.400
       234.000         191.000
   3440844.74849   2682962.45646  21325828.631    21325827.630    21325834.232
       229.000         184.000
 -12820607.51749  -9977347.77347  19930292.468    19930291.983    19930297.007
       243.000         205.000
 00  5 24 15 49 29.9950000  0  7G16G 2G24G 4G 5G 7G 9
 -12020202.05149  -9355206.34345  22900787.029    22900786.391    22900794.859
       215.000         157.000
   4890761.02349   3813681.16345  22485325.613    22485324.476    22485332.710
       209.000         151.000
 -25808145.84549 -20077086.53647  19202603.833    19202603.477    19202609.897
       239.000         204.000
 -16015053.20749 -12462882.47947  19150987.977    19150987.812    19150992.570
       239.000         207.000
 -17270231.68249 -13441584.33547  20481425.400    20481424.741    20481430.561
       232.000         192.000
   3471180.06349   2706600.29146  21331601.303    21331600.298    21331606.921
       229.000         185.000
 -12818234.06549  -9975498.36847  19930744.165    19930743.678    19930748.704
       243.000         205.000
 00  5 24 15 49 59.9950000  0  7G16G 2G24G 4G 5G 7G 9
 -12056956.29249  -9383846.01745  22893793.194    22893792.379    22893800.728
       215.000         159.000
   4943052.93849   3854427.96645  22495276.524    22495275.436    22495283.614
       211.000         152.000
 -25892906.48649 -20143133.77947  19186474.479    19186474.076    19186480.494
       240.000         204.000
 -16023595.05649 -12469538.48747  19149362.447    19149362.366    19149367.106
       239.000         207.000
 -17379807.38549 -13526967.99547  20460573.824    20460573.160    20460578.998
       234.000         193.000
   3501586.39449   2730293.48446  21337387.448    21337386.488    21337393.086
       230.000         185.000
 -12815324.02649  -9973230.82947  19931297.982    19931297.483    19931302.509
       243.000         205.000
 00  5 24 15 50 29.9950000  0  7G16G 2G24G 4G 5G 7G 9
 -12093193.49549  -9412082.77645  22886897.343    22886896.705    22886905.028
       217.000         159.000
   4995561.57949   3895343.64345  22505268.849    22505267.638    22505275.696
       211.000         152.000
 -25977177.03549 -20208799.13747  19170438.337    19170437.937    19170444.305
       240.000         203.000
 -16031582.34149 -12475762.36647  19147842.544    19147842.431    19147847.188
       239.000         207.000
 -17489215.62349 -13612221.14547  20439754.125    20439753.456    20439759.324
       234.000         193.000
   3532038.43849   2754022.29846  21343182.343    21343181.399    21343187.983
       230.000         184.000
 -12811903.80749  -9970565.76147  19931948.855    19931948.349    19931953.406
       242.000         205.000
 00  5 24 15 50 59.9950000  0  7G16G 2G24G 4G 5G 7G 9
 -12128896.15249  -9439903.03045  22880103.506    22880102.850    22880111.054
       219.000         161.000
   5048302.62449   3936440.44345  22515305.301    22515304.064    22515312.015
       213.000         152.000
 -26060939.61749 -20274068.67947  19154498.922    19154498.468    19154504.811
       241.000         204.000
 -16038999.84649 -12481542.27047  19146431.098    19146430.964    19146435.709
       239.000         207.000
 -17598437.60249 -13697329.16747  20418969.869    20418969.203    20418975.090
       234.000         193.000
   3562552.45849   2777799.40146  21348989.088    21348988.107    21348994.631
       230.000         184.000
 -12807958.60049  -9967491.60947  19932699.565    19932699.118    19932704.196
       241.000         204.000
 00  5 24 15 51 29.9950000  0  7G16G 2G24G 4G 5G 7G 9
 -12164051.59649  -9467296.85345  22873413.754    22873413.054    22873421.277
       218.000         160.000
   5101287.22649   3977727.03145  22525388.133    22525386.781    22525394.832
       215.000         152.000
 -26144181.13649 -20338932.19847  19138658.622    19138658.146    19138664.462
       241.000         203.000
 -16045837.13749 -12486870.05547  19145130.071    19145129.896    19145134.623
       241.000         207.000
 -17707459.63249 -13782281.39647  20398223.748    20398223.028    20398228.897
       237.000         193.000
   3593139.87849   2801633.68846  21354809.776    21354808.761    21354815.263
       231.000         183.000
 -12803478.12949  -9964000.37747  19933552.214    19933551.741    19933556.846
       243.000         204.000
 00  5 24 15 51 59.9950000  0  7G16G 2G24G 4G 5G 7G 9
 -12198681.95049  -9494281.53545  22866823.685    22866823.116    22866831.378
       213.000         157.000
   5154491.66249   4019184.91045  22535512.731    22535511.370    22535519.499
       215.000         153.000
 -26226923.54449 -20403406.78247  19122913.286    19122912.794    19122919.124
       240.000         204.000
 -16052118.37149 -12491764.54447  19143934.838    19143934.646    19143939.369
       240.000         207.000
 -17816302.82449 -13867094.25147  20377511.523    20377510.832    20377516.731
       236.000         194.000
   3623777.44149   2825507.06646  21360639.963    21360638.958    21360645.461
       231.000         184.000
 -12798486.76149  -9960111.02847  19934502.079    19934501.593    19934506.669
       243.000         204.000
 00  5 24 15 52 29.9950000  0  7G16G 2G24G 4G 5G 7G 9
 -12232756.47949  -9520833.10945  22860339.634    22860338.857    22860347.181
       212.000         154.000
   5207944.76949   4060836.54845  22545684.842    22545683.288    22545691.415
       215.000         152.000
 -26309135.61849 -20467468.12347  19107268.752    19107268.335    19107274.703
       239.000         203.000
 -16057815.38049 -12496203.79647  19142850.702    19142850.572    19142855.287
       238.000         208.000
 -17924935.42449 -13951743.00547  20356839.404    20356838.715    20356844.664
       236.000         195.000
   3654494.55449   2849442.42046  21366485.293    21366484.267    21366490.793
       230.000         185.000
 -12792956.24449  -9955801.56847  19935554.573    19935554.050    19935559.140
       242.000         204.000
 00  5 24 15 52 59.9950000  0  7G16G 2G24G 4G 5G 7G 9
 -12266295.00449  -9546967.03245  22853957.525    22853956.603    22853964.964
       216.000         155.000
   5261625.14549   4102665.28045  22555899.997    22555898.441    22555906.526
       213.000         151.000
 -26390836.94349 -20531131.47647  19091721.474    19091721.074    19091727.461
       239.000         204.000
 -16062950.21149 -12500204.98847  19141873.573    19141873.435    19141878.195
       239.000         207.000
 -18033375.85349 -14036242.03247  20336203.896    20336203.173    20336209.137
       235.000         195.000
   3685270.34649   2873423.50046  21372341.790    21372340.757    21372347.272
       230.000         184.000
 -12786908.42749  -9951089.01047  19936705.409    19936704.912    19936710.033
       241.000         204.000
 00  5 24 15 53 29.9950000  0  7G16G 2G24G 4G 5G 7G 9
 -12299303.86849  -9572688.22545  22847676.168    22847675.213    22847683.503
       216.000         156.000
   5315524.55549   4144664.70145  22566156.409    22566155.159    22566163.340
       210.000         150.000
 -26472033.43749 -20594401.46947  19076270.307    19076269.909    19076276.282
       239.000         204.000
 -16067531.58949 -12503774.91847  19141001.760    19141001.653    19141006.409
       239.000         207.000
 -18141629.33449 -14120595.38847  20315603.924    20315603.199    20315609.196
       236.000         195.000
   3716097.27049   2897444.41546  21378208.054    21378206.988    21378213.484
       231.000         184.000
 -12780352.34249  -9945980.41147  19937953.029    19937952.507    19937957.670
       242.000         205.000
 00  5 24 15 53 59.9950000  0  7G16G 2G24G 4G 5G 7G 9
 -12331781.35549  -9597995.36845  22841496.011    22841495.046    22841503.283
       215.000         159.000
   5369642.92249   4186834.73045  22576454.835    22576453.587    22576461.880
       213.000         151.000
 -26552723.44449 -20657276.79347  19060915.597    19060915.129    19060921.501
       241.000         203.000
 -16071559.98049 -12506913.95247  19140235.189    19140235.070    19140239.860
       240.000         207.000
 -18249693.19149 -14204800.98247  20295040.074    20295039.320    20295045.317
       236.000         194.000
   3746975.87049   2921505.60646  21384084.132    21384083.039    21384089.557
       231.000         182.000
 -12773288.72649  -9940476.33347  19939297.219    19939296.706    19939301.868
       243.000         204.000
 00  5 24 15 54 29.9950000  0  7G16G 2G24G 4G 5G 7G 9
 -12363702.72249  -9622869.16745  22835421.528    22835420.568    22835428.912
       216.000         157.000
   5424003.52049   4229193.48845  22586799.591    22586798.239    22586806.597
       211.000         152.000
 -26632881.39149 -20719737.52647  19045661.987    19045661.574    19045667.943
       240.000         203.000
 -16075012.94249 -12509604.59847  19139578.110    19139578.015    19139582.804
       240.000         207.000
 -18357541.08949 -14288838.29947  20274517.356    20274516.575    20274522.530
       236.000         195.000
   3777929.94449   2945625.60046  21389974.574    21389973.455    21389979.982
       231.000         183.000
 -12765694.90149  -9934559.10247  19940742.283    19940741.789    19940746.955
       243.000         204.000
 00  5 24 15 54 59.9940000  0  7G16G 2G24G 4G 5G 7G 9
 -12395087.01249  -9647324.47645  22829449.426    22829448.356    22829456.715
       218.000         160.000
   5478582.65649   4271722.53945  22597185.976    22597184.508    22597192.846
       209.000         149.000
 -26712524.88449 -20781797.38047  19030506.337    19030505.912    19030512.294
       239.000         204.000
 -16077912.91249 -12511864.33847  19139026.287    19139026.195    19139030.981
       239.000         207.000
 -18465188.50049 -14372719.38147  20254032.706    20254031.960    20254037.916
       236.000         196.000
   3808937.31749   2969787.14546  21395875.123    21395874.024    21395880.551
       229.000         183.000
 -12757593.81749  -9928246.60747  19942283.949    19942283.409    19942288.550
       242.000         204.000
 00  5 24 15 55 29.9940000  0  7G16G 2G24G 4G 5G 7G 9
 -12425941.92049  -9671367.27245  22823577.932    22823576.897    22823585.192
       216.000         156.000
   5533376.62349   4314418.99445  22607612.830    22607611.507    22607619.947
       207.000         149.000
 -26791664.21249 -20843464.38647  19015446.656    19015446.201    19015452.572
       239.000         204.000
 -16080267.70949 -12513699.26747  19138578.257    19138578.118    19138582.913
       239.000         208.000
 -18572646.77549 -14456453.08947  20233584.026    20233583.314    20233589.251
       234.000         195.000
   3839993.19949   2993986.47346  21401784.864    21401783.818    21401790.341
       231.000         183.000
 -12748993.03449  -9921544.73047  19943920.645    19943920.089    19943925.252
       242.000         205.000
 00  5 24 15 55 59.9940000  0  7G16G 2G24G 4G 5G 7G 9
 -12456254.24249  -9694987.26145  22817809.674    22817808.638    22817816.921
       215.000         156.000
   5588394.28949   4357289.76545  22618082.301    22618081.013    22618089.582
       208.000         150.000
 -26870284.35949 -20904726.83447  19000485.648    19000485.259    19000491.635
       238.000         203.000
 -16082067.48249 -12515101.70847  19138235.767    19138235.644    19138240.452
       239.000         207.000
 -18679898.87549 -14540026.13747  20213174.577    20213173.881    20213179.816
       236.000         195.000
   3871107.85549   3018231.60946  21407705.881    21407704.808    21407711.333
       230.000         184.000
 -12739883.02449  -9914446.05347  19945654.206    19945653.683    19945658.850
       242.000         204.000
 00  5 24 15 56 29.9940000  0  7G16G 2G24G 4G 5G 7G 9
 -12486024.08749  -9718184.57345  22812144.611    22812143.687    22812151.894
       216.000         155.000
   5643634.13749   4400333.65445  22628594.258    22628592.944    22628601.540
       208.000         149.000
 -26948385.01249 -20965584.48347  18985623.561    18985623.167    18985629.560
       240.000         203.000
 -16083314.52149 -12516073.45247  19137998.477    19137998.349    19138003.151
       242.000         207.000
 -18786943.68849 -14623437.67047  20192804.568    20192803.893    20192809.808
       236.000         194.000
   3902280.26849   3042521.74746  21413637.885    21413636.783    21413643.296
       231.000         183.000
 -12730266.22149  -9906952.47947  19947484.274    19947483.728    19947488.890
       245.000         205.000
 00  5 24 15 56 59.9940000  0  7G16G 2G24G 4G 5G 7G 9
 -12515242.49349  -9740952.19945  22806584.615    22806583.689    22806591.813
       214.000         156.000
   5699103.21449   4443556.15645  22639149.894    22639148.522    22639157.123
       206.000         146.000
 -27025956.85449 -21026030.06947  18970862.118    18970861.720    18970868.111
       239.000         204.000
 -16084002.05549 -12516609.22047  19137867.685    19137867.530    19137872.333
       240.000         208.000
 -18893770.79649 -14706679.56947  20172476.125    20172475.395    20172481.252
       237.000         195.000
   3933518.48249   3066863.15446  21419582.409    21419581.299    21419587.766
       229.000         182.000
 -12720135.74149  -9899058.62747  19949412.051    19949411.511    19949416.703
       241.000         204.000
 00  5 24 15 57 29.9940000  0  7G16G 2G24G 4G 5G 7G 9
 -12543938.77849  -9763312.99045  22801123.782    22801122.932    22801131.137
       212.000         156.000
   5754770.54649   4486933.16645  22649742.916    22649741.665    22649750.461
       204.000         146.000
 -27103028.85049 -21086086.16647  18956195.788    18956195.395    18956201.789
       238.000         204.000
 -16084161.65749 -12516733.60747  19137837.297    19137837.170    19137841.987
       240.000         208.000
 -19000407.94549 -14789773.43247  20152183.719    20152183.011    20152188.865
       236.000         196.000
   3964792.29949   3091232.30846  21425533.708    21425532.561    21425539.040
       229.000         182.000
 -12709523.45349  -9890789.34547  19951431.488    19951431.001    19951436.186
       243.000         204.000
 00  5 24 15 57 59.9940000  0  7G16G 2G24G 4G 5G 7G 9
 -12572110.01449  -9785264.61645  22795762.702    22795762.080    22795770.420
       214.000         156.000
   5810637.58649   4530465.78345  22660374.005    22660372.860    22660381.734
       207.000         146.000
 -27179597.82249 -21145750.29247  18941625.188    18941624.798    18941631.219
       240.000         204.000
 -16083792.82049 -12516446.23347  19137907.458    19137907.366    19137912.193
       242.000         208.000
 -19106850.81249 -14872715.91347  20131928.228    20131927.567    20131933.471
       237.000         196.000
   3996103.69349   3115630.74546  21431492.136    21431490.989    21431497.468
       230.000         181.000
 -12698428.84549  -9882144.23847  19953542.753    19953542.264    19953547.431
       244.000         204.000
 00  5 24 15 58 29.9940000  0  7G16G 2G24G 4G 5G 7G 9
 -12599731.24649  -9806787.70145  22790506.697    22790506.009    22790514.141
       217.000         153.000
   5866727.42549   4574172.00345  22671047.805    22671046.536    22671055.446
       206.000         145.000
 -27255638.43949 -21205002.71247  18927155.122    18927154.745    18927161.188
       239.000         203.000
 -16082873.02749 -12515729.53447  19138082.535    19138082.399    19138087.241
       240.000         208.000
 -19213073.45649 -14955486.80047  20111714.808    20111714.082    20111719.946
       235.000         194.000
   4027476.55249   3140077.06346  21437462.181    21437461.063    21437467.560
       228.000         179.000
 -12686829.44949  -9873105.78747  19955750.116    19955749.590    19955754.748
       243.000         204.000
 00  5 24 15 58 59.9940000  0  7G16G 2G24G 4G 5G 7G 9
 -12626790.37249  -9827872.76045  22785357.436    22785356.857    22785364.761
       211.000         152.000
   5923050.86749   4618060.27145  22681765.965    22681764.665    22681773.554
       204.000         146.000
 -27331138.26949 -21263833.74547  18912787.996    18912787.606    18912794.043
       239.000         203.000
 -16081392.15549 -12514575.63747  19138364.360    19138364.235    19138369.067
       241.000         208.000
 -19319062.05149 -15038075.32147  20091545.882    20091545.126    20091550.969
       236.000         196.000
   4058922.47349   3164580.32046  21443446.089    21443445.065    21443451.578
       227.000         180.000
 -12674715.37949  -9863666.29347  19958055.363    19958054.857    19958060.024
       243.000         205.000
 00  5 24 15 59 29.9940000  0  7G16G 2G24G 4G 5G 7G 9
 -12653298.01849  -9848528.10745  22780313.044    22780312.607    22780320.489
       214.000         153.000
   5979595.87449   4662121.18745  22692526.272    22692524.850    22692533.865
       205.000         145.000
 -27406107.51749 -21322251.33447  18898521.822    18898521.416    18898527.860
       239.000         203.000
 -16079362.98149 -12512994.48547  19138750.545    19138750.399    19138755.234
       242.000         209.000
 -19424825.66649 -15120488.51147  20071419.670    20071418.950    20071424.788
       236.000         195.000
   4090430.05749   3189131.62846  21449441.833    21449440.796    21449447.332
       228.000         179.000
 -12662099.43349  -9853835.73047  19960456.210    19960455.647    19960460.793
       244.000         205.000
 00  5 24 15 59 59.9940000  0  7G16G 2G24G 4G 5G 7G 9
 -12679261.76149  -9868759.63845  22775372.527    22775371.882    22775379.757
       215.000         157.000
   6036353.60849   4706347.84945  22703326.927    22703325.484    22703334.663
       207.000         145.000
 -27480553.28649 -21380261.02347  18884355.312    18884354.892    18884361.287
       241.000         203.000
 -16076795.15949 -12510993.61147  19139239.280    19139239.088    19139243.905
       242.000         208.000
 -19530370.11149 -15202730.94647  20051335.284    20051334.533    20051340.336
       238.000         196.000
   4121991.10549   3213724.59746  21455447.785    21455446.728    21455453.272
       229.000         179.000
 -12648991.08049  -9843621.47747  19962950.719    19962950.134    19962955.285
       244.000         205.000
 00  5 24 16  0 29.9940000  0  7G16G 2G24G 4G 5G 7G 9
 -12704674.06249  -9888561.45845  22770536.947    22770536.225    22770544.141
       217.000         160.000
   6093329.75649   4750744.69545  22714169.138    22714167.824    22714176.967
       205.000         144.000
 -27554467.86449 -21437856.79247  18870289.839    18870289.418    18870295.767
       239.000         202.000
 -16073683.69349 -12508569.11647  19139831.372    19139831.214    19139836.009
       241.000         208.000
 -19635686.57649 -15284795.71147  20031294.198    20031293.456    20031299.257
       236.000         195.000
   4153612.10349   3238364.27646  21461465.084    21461464.049    21461470.624
       227.000         178.000
 -12635385.75649  -9833019.96847  19965539.732    19965539.143    19965544.322
       242.000         204.000
 00  5 24 16  0 59.9940000  0  8G16G 2G24G 4G 5G30G 7G 9
 -12729521.96149  -9907923.49545  22765808.634    22765807.877    22765815.842
       216.000         159.000
   6150535.72749   4795320.63245  22725055.193    22725053.958    22725063.018
       203.000         145.000
 -27627837.96549 -21495028.28847  18856328.030    18856327.581    18856333.903
       238.000         203.000
 -16070017.58549 -12505712.43047  19140529.032    19140528.872    19140533.656
       241.000         208.000
 -19740760.38849 -15366671.39847  20011299.324    20011298.579    20011304.341
       237.000         195.000
   -215162.97855                  23028568.286
       218.000         156.000
   4185305.58849   3263060.42846  21467496.213    21467495.154    21467501.759
       226.000         178.000
 -12621272.75949  -9822022.86447  19968225.390    19968224.796    19968229.985
       244.000         204.000
 00  5 24 16  1 29.9940000  0  8G16G 2G24G 4G 5G30G 7G 9
 -12753838.28949  -9926871.32345  22761181.531    22761180.683    22761188.656
       212.000         153.000
   6207937.43749   4840049.10845  22735978.548    22735977.280    22735986.301
       206.000         143.000
 -27700695.86749 -21551800.67247  18842463.580    18842463.144    18842469.521
       238.000         203.000
 -16065831.89949 -12502450.88447  19141325.555    19141325.371    19141330.179
       241.000         208.000
 -19845622.59949 -15448382.20947  19991344.716    19991343.957    19991349.728
       237.000         196.000
   -441405.56149   -319559.75445  23003073.618    23003073.096    23003082.542
       217.000         157.000
   4217038.02949   3287786.95346  21473534.757    21473533.651    21473540.279
       227.000         177.000
 -12606686.90949  -9810657.30847  19971000.979    19971000.430    19971005.600
       242.000         204.000
 00  5 24 16  1 59.9940000  0  8G16G 2G24G 4G 5G30G 7G 9
 -12777615.80849  -9945399.28245  22756656.766    22756655.901    22756663.858
       212.000         150.000
   6265540.62249   4884934.56345  22746940.312    22746938.943    22746948.013
       205.000         142.000
 -27773034.16749 -21608168.18247  18828698.012    18828697.618    18828704.014
       240.000         203.000
 -16061121.60149 -12498780.55147  19142221.908    19142221.744    19142226.537
       243.000         208.000
 -19950264.33249 -15529921.21747  19971432.038    19971431.297    19971437.058
       238.000         195.000
   -575393.89349   -423966.19355  22977576.538    22977576.996    22977584.943
       218.000         156.000
   4248815.94549   3312548.89346  21479581.936    21479580.842    21479587.479
       227.000         176.000
 -12591623.36249  -9798919.52747  19973867.590    19973866.974    19973872.131
       246.000         205.000
 00  5 24 16  2 29.9940000  0  8G16G 2G24G 4G 5G30G 7G 9
 -12800856.39249  -9963508.84045  22752234.242    22752233.365    22752241.285
       213.000         153.000
   6323341.88749   4929974.34645  22757939.578    22757938.250    22757947.366
       202.000         142.000
 -27844854.45749 -21664132.03647  18815031.035    18815030.641    18815037.050
       237.000         203.000
 -16055891.03349 -12494704.79747  19143217.268    19143217.107    19143221.897
       241.000         208.000
 -20054686.00249 -15611288.74147  19951561.268    19951560.504    19951566.275
       238.000         196.000
   -709395.53159   -528383.00145  22952076.913    22952077.412    22952085.239
       215.000         153.000
   4280636.76649   3337344.29246  21485637.271    21485636.179    21485642.845
       224.000         176.000
 -12576086.55349  -9786812.94847  19976824.102    19976823.553    19976828.707
       243.000         204.000
 00  5 24 16  2 59.9940000  0  8G16G 2G24G 4G 5G30G 7G 9
 -12823541.82249  -9981185.82445  22747917.264    22747916.456    22747924.530
       211.000         154.000
   6381358.30649   4975181.80545  22768979.639    22768978.440    22768987.659
       204.000         143.000
 -27916137.65049 -21719677.38447  18801466.258    18801465.892    18801472.278
       238.000         203.000
 -16050123.68449 -12490210.79247  19144314.771    19144314.613    19144319.404
       242.000         208.000
 -20158867.14049 -15692468.82947  19931736.219    19931735.464    19931741.273
       237.000         197.000
   -843390.49749   -632794.60345  22926578.540    22926578.930    22926586.755
       213.000         151.000
   4312518.50149   3362187.13346  21491704.160    21491703.098    21491709.793
       225.000         177.000
 -12560060.18649  -9774324.91847  19979873.781    19979873.258    19979878.478
       242.000         205.000
 00  5 24 16  3 29.9940000  0  8G16G 2G24G 4G 5G30G 7G 9
 -12845697.23049  -9998449.81245  22743701.183    22743700.435    22743708.587
       213.000         156.000
   6439562.98049   5020535.93145  22780055.742    22780054.535    22780063.768
       204.000         141.000
 -27986908.80249 -21774823.73347  18787998.947    18787998.576    18788004.967
       238.000         203.000
 -16043847.15949 -12485320.01447  19145509.231    19145509.021    19145513.787
       243.000         208.000
 -20262831.25049 -15773479.80647  19911952.503    19911951.752    19911957.547
       238.000         196.000
   -977402.98049   -737219.82945  22901076.808    22901077.053    22901085.041
       211.000         147.000
   4344435.35049   3387057.34846  21497777.787    21497776.714    21497783.437
       227.000         176.000
 -12543572.00149  -9761477.01847  19983011.365    19983010.883    19983016.128
       244.000         205.000
 00  5 24 16  3 59.9940000  0  8G16G 2G24G 4G 5G30G 7G 9
 -12867306.88649 -10015288.54845  22739589.019    22739588.285    22739596.480
       217.000         157.000
   6497970.36849   5066048.05045  22791170.415    22791169.170    22791178.451
       207.000         142.000
 -28057151.83349 -21829558.56847  18774632.082    18774631.748    18774638.182
       239.000         203.000
 -16037047.75449 -12480021.81047  19146803.110    19146802.923    19146807.672
       244.000         207.000
 -20366561.02449 -15854308.20547  19892213.427    19892212.658    19892218.425
       240.000         197.000
  -1111415.76449   -841645.30445  22875575.078    22875575.224    22875583.267
       213.000         146.000
   4376402.50249   3411966.75346  21503861.045    21503859.902    21503866.646
       226.000         176.000
 -12526608.39849  -9748258.67647  19986239.497    19986238.995    19986244.259
       245.000         205.000
 00  5 24 16  4 29.9940000  0  8G16G 2G24G 4G 5G30G 7G 9
 -12888375.51449 -10031705.71945  22735580.004    22735579.127    22735587.312
       216.000         160.000
   6556574.49349   5111713.43545  22802322.691    22802321.374    22802330.629
       205.000         143.000
 -28126870.94149 -21883885.13747  18761365.012    18761364.651    18761371.096
       238.000         204.000
 -16029732.51849 -12474321.64447  19148195.165    19148194.983    19148199.733
       241.000         207.000
 -20470059.29449 -15934956.18647  19872518.327    19872517.586    19872523.336
       238.000         197.000
  -1245432.41949   -946073.81845  22850072.677    22850072.707    22850080.699
       214.000         147.000
   4408414.74849   3436911.31346  21509952.692    21509951.605    21509958.447
       223.000         175.000
 -12509176.55749  -9734675.47147  19989556.772    19989556.218    19989561.485
       242.000         205.000
 00  5 24 16  4 59.9940000  0  8G16G 2G24G 4G 5G30G 7G 9
 -12908896.15649 -10047695.85945  22731675.210    22731674.270    22731682.420
       218.000         159.000
   6615380.98149   5157536.50645  22813513.503    22813512.078    22813521.249
       205.000         144.000
 -28196058.97549 -21937797.89547  18748198.983    18748198.616    18748205.046
       238.000         203.000
 -16021896.43249 -12468215.63147  19149686.349    19149686.170    19149690.884
       241.000         207.000
 -20573317.10749 -16015416.80747  19852868.988    19852868.258    19852874.027
       237.000         196.000
  -1379444.49649  -1050498.77745  22824571.104    22824571.041    22824579.011
       216.000         149.000
   4440478.63949   3461896.09146  21516054.162    21516053.180    21516060.086
       224.000         175.000
 -12491271.25649  -9720723.32947  19992964.070    19992963.514    19992968.771
       243.000         205.000
 00  5 24 16  5 29.9940000  0  8G16G 2G24G 4G 5G30G 7G 9
 -12928877.51749 -10063265.79045  22727872.974    22727872.019    22727880.051
       216.000         157.000
   6674379.87849   5203509.49245  22824740.706    22824739.412    22824748.582
       203.000         143.000
 -28264723.79149 -21991302.94747  18735132.555    18735132.132    18735138.554
       238.000         204.000
 -16013550.21049 -12461712.10947  19151274.535    19151274.390    19151279.115
       240.000         207.000
 -20676341.33249 -16095695.40447  19833264.092    19833263.384    19833269.212
       236.000         197.000
  -1513459.20249  -1154925.78845  22799068.939    22799068.907    22799076.868
       216.000         152.000
   4472585.21349   3486914.12646  21522163.850    21522162.874    21522169.806
       223.000         175.000
 -12472903.66849  -9706410.97747  19996459.365    19996458.787    19996464.084
       242.000         205.000
 00  5 24 16  5 59.9940000  0  8G16G 2G24G 4G 5G30G 7G 9
 -12948296.48449 -10078397.46145  22724177.537    22724176.649    22724184.768
       214.000         157.000
   6733592.69849   5249649.18445  22836008.450    22836007.290    22836016.461
       206.000         144.000
 -28332842.28749 -22044382.29747  18722170.029    18722169.620    18722176.050
       240.000         203.000
 -16004673.15349 -12454794.95247  19152963.742    19152963.654    19152968.403
       242.000         207.000
 -20779107.15949 -16175772.67747  19813708.419    19813707.687    19813713.498
       239.000         197.000
  -1647452.26549  -1259335.91445  22773570.894    22773570.871    22773578.768
       215.000         153.000
   4504757.15949   3511983.10446  21528286.032    21528284.997    21528292.017
       225.000         175.000
 -12454052.91049  -9691722.12047  20000046.635    20000046.013    20000051.278
       245.000         205.000
 00  5 24 16  6 29.9940000  0  8G16G 2G24G 4G 5G30G 7G 9
 -12967171.04049 -10093104.92945  22720585.595    22720584.839    22720593.120
       215.000         156.000
   6793000.44149   5295940.75645  22847313.822    22847312.404    22847321.553
       208.000         144.000
 -28400432.03549 -22097049.63747  18709308.155    18709307.728    18709314.122
       238.000         203.000
 -15995285.09649 -12447479.60547  19154750.219    19154750.125    19154754.903
       242.000         207.000
 -20881630.29949 -16255660.82247  19794198.881    19794198.174    19794204.002
       239.000         197.000
  -1781440.00049  -1363741.88145  22748073.783    22748073.791    22748081.742
       213.000         152.000
   4536976.00549   3537088.63646  21534417.115    21534416.124    21534423.122
       225.000         175.000
 -12434739.43449  -9676672.70647  20003721.901    20003721.277    20003726.564
       244.000         205.000
 00  5 24 16  6 59.9940000  0  8G16G 2G24G 4G 5G30G 7G 9
 -12985491.41849 -10107380.59345  22717099.189    22717098.536    22717106.978
       212.000         155.000
   6852611.38049   5342390.66045  22858657.675    22858656.191    22858665.407
       205.000         145.000
 -28467482.96249 -22149297.11047  18696548.825    18696548.351    18696554.745
       237.000         203.000
 -15985378.76849 -12439760.41247  19156635.331    19156635.243    19156640.036
       241.000         207.000
 -20983899.46849 -16335351.06747  19774737.677    19774736.972    19774742.842
       236.000         197.000
  -1915411.51249  -1468135.18645  22722579.750    22722579.774    22722587.792
       211.000         151.000
   4569251.06549   3562237.96746  21540558.997    21540557.942    21540564.947
       225.000         175.000
 -12414955.59749  -9661256.77647  20007486.604    20007486.036    20007491.351
       242.000         204.000
 00  5 24 16  7 29.9940000  0  8G16G 2G24G 4G 5G30G 7G 9
 -13003268.21149 -10121232.67645  22713716.291    22713715.723    22713724.193
       213.000         153.000
   6912413.87449   5388989.81945  22870037.913    22870036.403    22870045.522
       206.000         145.000
 -28534004.96049 -22201132.43247  18683890.118    18683889.613    18683896.028
       237.000         203.000
 -15974966.53449 -12431647.00947  19158616.750    19158616.644    19158621.433
       240.000         207.000
 -21085923.13849 -16414850.02647  19755323.221    19755322.483    19755328.360
       236.000         197.000
  -2049375.53749  -1572522.68045  22697087.397    22697087.347    22697095.167
       215.000         150.000
   4601571.81349   3587422.91046  21546709.461    21546708.420    21546715.437
       224.000         173.000
 -12394714.03249  -9645484.18147  20011338.449    20011337.879    20011343.247
       242.000         205.000
 00  5 24 16  7 59.9940000  0  8G16G 2G24G 4G 5G30G 7G 9
 -13020484.41849 -10134647.93645  22710440.269    22710439.691    22710448.080
       214.000         154.000
   6972423.68549   5435750.52245  22881457.434    22881455.921    22881465.192
       206.000         144.000
 -28599980.70049 -22252542.10447  18671335.291    18671334.849    18671341.244
       237.000         203.000
 -15964033.48649 -12423127.78047  19160697.262    19160697.138    19160701.956
       241.000         207.000
 -21187682.31649 -16494142.89247  19735959.050    19735958.319    19735964.224
       237.000         197.000
  -2183313.60149  -1676889.97045  22671600.041    22671599.906    22671607.569
       218.000         152.000
   4633954.94449   3612656.44246  21552871.799    21552870.762    21552877.781
       224.000         175.000
 -12373999.95649  -9629343.39147  20015280.240    20015279.676    20015285.057
       243.000         204.000
 00  5 24 16  8 29.9940000  0  8G16G 2G24G 4G 5G30G 7G 9
 -13037144.68149 -10147630.00545  22707269.980    22707269.343    22707277.772
       212.000         153.000
   7032634.90649   5482668.18145  22892915.325    22892913.808    22892923.130
       205.000         148.000
 -28665414.60549 -22303529.56347  18658883.636    18658883.184    18658889.607
       238.000         203.000
 -15952586.40949 -12414208.01047  19162875.593    19162875.459    19162880.296
       242.000         207.000
 -21289179.70149 -16573231.75547  19716644.680    19716643.967    19716649.906
       236.000         198.000
  -2317228.70849  -1781239.38445  22646116.896    22646116.779    22646124.338
       217.000         152.000
   4666395.49249   3637934.73146  21559045.072    21559044.046    21559051.059
       226.000         175.000
 -12352820.48549  -9612839.94847  20019310.619    20019310.048    20019315.413
       245.000         205.000
 00  5 24 16  8 59.9940000  0  8G16G 2G24G 4G 5G30G 7G 9
 -13053249.64649 -10160179.35745  22704205.181    22704204.671    22704213.089
       216.000         154.000
   7093045.55049   5529741.21945  22904411.200    22904409.656    22904419.143
       206.000         147.000
 -28730306.53349 -22354094.70547  18646535.107    18646534.678    18646541.070
       238.000         202.000
 -15940627.90949 -12404889.72247  19165151.227    19165151.109    19165155.962
       242.000         207.000
 -21390413.64249 -16652115.34747  19697380.458    19697379.763    19697385.728
       237.000         197.000
  -2451119.78749  -1885570.05545  22620638.170    22620638.087    22620645.711
       212.000         149.000
   4698892.77949   3663257.23446  21565229.126    21565228.090    21565235.126
       226.000         175.000
 -12331177.96949  -9595975.70747  20023429.119    20023428.528    20023433.897
       244.000         205.000
 00  5 24 16  9 29.9940000  0  8G16G 2G24G 4G 5G30G 7G 9
 -13068804.64449 -10172300.17145  22701245.347    22701244.744    22701253.138
       213.000         156.000
   7153649.04649   5576964.54345  22915943.832    22915942.231    22915951.727
       207.000         148.000
 -28794661.66449 -22404241.56347  18634288.736    18634288.293    18634294.687
       237.000         203.000
 -15928165.47049 -12395178.75647  19167522.761    19167522.665    19167527.517
       241.000         207.000
 -21491387.28149 -16730796.08847  19678165.764    19678165.090    19678171.100
       236.000         197.000
  -2584990.73949  -1989884.97945  22595163.097    22595163.096    22595170.891
       211.000         148.000
   4731441.21349   3688619.58346  21571422.993    21571421.916    21571428.929
       224.000         175.000
 -12309080.07149  -9578756.61947  20027634.291    20027633.666    20027639.041
       243.000         206.000
 00  5 24 16  9 59.9940000  0  8G16G 2G24G 4G 5G30G 7G 9
 -13083807.29549 -10183990.58645  22698390.603    22698389.885    22698398.268
       214.000         158.000
   7214446.66349   5624339.09945  22927513.274    22927511.754    22927521.331
       207.000         151.000
 -28858477.22349 -22453967.97647  18622145.147    18622144.625    18622150.984
       236.000         202.000
 -15915198.85249 -12385074.92747  19169990.316    19169990.157    19169995.011
       240.000         206.000
 -21592096.46949 -16809270.77047  19659001.473    19659000.759    19659006.814
       235.000         198.000
  -2718837.41249  -2094181.04045  22569692.913    22569692.878    22569700.626
       215.000         152.000
   4764042.75749   3714023.30246  21577626.957    21577625.835    21577632.871
       225.000         175.000
 -12286526.79549  -9561182.68847  20031926.085    20031925.444    20031930.857
       242.000         205.000
 00  5 24 16 10 29.9940000  0  8G16G 2G24G 4G 5G30G 7G 9
 -13098259.10049 -10195251.74445  22695640.457    22695639.794    22695648.267
       214.000         156.000
   7275436.28749   5671863.28145  22939119.223    22939117.839    22939127.461
       206.000         150.000
 -28921753.91449 -22503274.48847  18610104.045    18610103.469    18610109.847
       236.000         203.000
 -15901731.12649 -12374580.62147  19172553.186    19172552.978    19172557.860
       240.000         206.000
 -21692540.12449 -16887538.54847  19639887.738    19639886.977    19639893.000
       236.000         197.000
  -2852658.98649  -2198457.57945  22544227.753    22544227.615    22544235.080
       214.000         151.000
   4796696.36149   3739467.60546  21583840.743    21583839.676    21583846.709
       224.000         175.000
 -12263521.47949  -9543256.52747  20036303.876    20036303.243    20036308.663
       243.000         205.000
 00  5 24 16 10 59.9940000  0  8G16G 2G24G 4G 5G30G 7G 9
 -13112162.08149 -10206085.25745  22692994.949    22692994.200    22693002.595
       212.000         152.000
   7336613.83849   5719533.90145  22950761.071    22950759.651    22950769.331
       210.000         153.000
 -28984493.90949 -22552162.80247  18598165.122    18598164.484    18598170.840
       236.000         203.000
 -15887766.88449 -12363699.42347  19175210.500    19175210.301    19175215.198
       240.000         206.000
 -21792718.57349 -16965599.67247  19620824.463    19620823.651    19620829.674
       235.000         197.000
  -2986456.66749  -2302715.45945  22518767.061    22518766.818    22518774.186
       211.000         147.000
   4829399.41749   3764950.43846  21590064.079    21590062.937    21590069.960
       223.000         174.000
 -12240068.49949  -9524981.53947  20040766.876    20040766.239    20040771.662
       242.000         205.000
 00  5 24 16 11 29.9940000  0  8G16G 2G24G 4G 5G30G 7G 9
 -13125516.64749 -10216491.43745  22690453.814    22690452.943    22690461.287
       214.000         150.000
   7397978.16349   5767350.04945  22962438.412    22962437.002    22962446.789
       210.000         153.000
 -29046696.80049 -22600632.59147  18586328.303    18586327.684    18586334.037
       239.000         203.000
 -15873308.14549 -12352432.90247  19177961.922    19177961.731    19177966.631
       241.000         206.000
 -21892629.48949 -17043452.32847  19601811.996    19601811.204    19601817.238
       238.000         197.000
  -3120228.50249  -2406953.20145  22493310.921    22493310.819    22493318.240
       213.000         151.000
   4862151.91549   3790471.79146  21596296.777    21596295.614    21596302.643
       225.000         175.000
 -12216170.34549  -9506359.65747  20045314.591    20045313.944    20045319.386
       244.000         205.000
 00  5 24 16 11 59.9940000  0  8G16G 2G24G 4G 5G30G 7G 9
 -13138327.54949 -10226473.98245  22688015.816    22688015.095    22688023.364
       211.000         148.000
   7459523.57849   5815307.31745  22974150.268    22974148.834    22974158.717
       209.000         151.000
 -29108366.86649 -22648687.18447  18574592.843    18574592.256    18574598.619
       236.000         202.000
 -15858361.77249 -12340786.41447  19180806.151    19180805.935    19180810.868
       240.000         206.000
 -21992275.44049 -17121098.51647  19582849.911    19582849.173    19582855.223
       235.000         195.000
  -3253977.35249  -2511173.02245  22467859.037    22467859.054    22467866.734
       214.000         157.000
   4894949.13049   3816027.99646  21602537.988    21602536.782    21602543.826
       223.000         174.000
 -12191833.75549  -9487396.13147  20049945.685    20049945.064    20049950.548
       243.000         205.000
 00  5 24 16 12 29.9940000  0  8G16G 2G24G 4G 5G30G 7G 9
 -13150577.21749 -10236019.19645  22685684.784    22685684.104    22685692.353
       211.000         147.000
   7521266.35949   5863418.37445  22985899.652    22985898.211    22985908.251
       207.000         153.000
 -29169486.22549 -22696312.66447  18562962.188    18562961.613    18562967.999
       237.000         202.000
 -15842912.21349 -12328747.82947  19183746.124    19183745.924    19183750.822
       240.000         205.000
 -22091637.09449 -17198523.18247  19563942.031    19563941.261    19563947.300
       236.000         198.000
  -3387683.96449  -2615359.94645  22442415.394    22442415.452    22442423.210
       214.000         157.000
   4927808.21849   3841632.41046  21608790.847    21608789.691    21608796.802
       222.000         174.000
 -12167043.22549  -9468078.89147  20054663.237    20054662.597    20054668.089
       242.000         205.000
 00  5 24 16 12 59.9940000  0  8G16G 2G24G 4G 5G30G 7G 9
 -13162294.91049 -10245149.89245  22683455.182    22683454.382    22683462.457
       214.000         147.000
   7583176.35449   5911659.72845  22997680.491    22997679.400    22997689.552
       206.000         153.000
 -29230083.79849 -22743531.55747  18551430.879    18551430.295    18551436.657
       237.000         202.000
 -15826990.73349 -12316341.51447  19186775.932    19186775.682    19186780.610
       240.000         205.000
 -22190741.19449 -17275747.15147  19545083.104    19545082.366    19545088.437
       236.000         198.000
  -3521375.65749  -2719535.23545  22416974.646    22416974.720    22416982.493
       214.000         151.000
   4960700.19749   3867262.45046  21615049.987    21615048.842    21615056.028
       221.000         175.000
 -12141830.37649  -9448432.57347  20059461.105    20059460.469    20059465.985
       241.000         205.000
 00  5 24 16 13 29.9940000  0  8G16G 2G24G 4G 5G30G 7G 9
 -13173471.48349 -10253858.91945  22681328.217    22681327.511    22681335.689
       214.000         148.000
   7645261.72149   5960037.70645  23009494.825    23009494.025    23009504.184
       210.000         151.000
 -29290149.86049 -22790336.27747  18540000.674    18540000.105    18540006.471
       236.000         202.000
 -15810590.02249 -12303561.76547  19189896.893    19189896.653    19189901.599
       240.000         206.000
 -22289576.11849 -17352761.36747  19526275.533    19526274.740    19526280.762
       236.000         198.000
  -3655041.06449  -2823690.06245  22391539.013    22391539.027    22391546.720
       216.000         149.000
   4993634.27949   3892925.30746  21621317.208    21621316.024    21621323.255
       223.000         175.000
 -12116188.20349  -9428451.71847  20064340.563    20064339.994    20064345.593
       242.000         204.000
 00  5 24 16 13 59.9940000  0  8G16G 2G24G 4G 5G30G 7G 9
 -13184099.85449 -10262140.78845  22679305.709    22679305.051    22679313.176
       215.000         149.000
   7707528.39749   6008557.00745  23021344.424    23021343.179    23021353.312
       212.000         154.000
 -29349676.87549 -22836720.97947  18528673.087    18528672.507    18528678.850
       239.000         202.000
 -15793705.05949 -12290404.69547  19193109.941    19193109.777    19193114.749
       242.000         206.000
 -22388132.52649 -17429558.56847  19507520.914    19507520.091    19507526.132
       238.000         198.000
  -3788671.60649  -2927817.73545  22366109.963    22366109.990    22366117.557
       217.000         151.000
   5026617.71249   3918626.59746  21627593.949    21627592.627    21627599.844
       224.000         173.000
 -12090111.54049  -9408132.31847  20069302.862    20069302.270    20069307.861
       245.000         204.000
 00  5 24 16 14 29.9940000  0  8G16G 2G24G 4G 5G30G 7G 9
 -13194204.06649 -10270014.20445  22677382.966    22677382.273    22677390.435
       214.000         151.000
   7769951.24449   6057197.97345  23033223.751    23033222.012    23033232.242
       212.000         153.000
 -29408688.50849 -22882704.05547  18517443.649    18517443.000    18517449.293
       237.000         202.000
 -15776361.82749 -12276890.50747  19196410.193    19196410.112    19196415.076
       240.000         205.000
 -22486432.01149 -17506155.54947  19488815.216    19488814.334    19488820.374
       237.000         198.000
  -3922289.08949  -3031935.18245  22340683.339    22340683.345    22340690.946
       214.000         151.000
   5059626.60849   3944347.73746  21633875.263    21633874.049    21633881.332
       221.000         173.000
 -12063626.34449  -9387494.55447  20074342.989    20074342.296    20074347.886
       243.000         204.000
 00  5 24 16 14 59.9940000  0  8G16G 2G24G 4G 5G30G 7G 9
 -13203777.70549 -10277474.20445  22675561.417    22675560.562    22675568.620
       215.000         153.000
   7832535.87249   6105964.98645  23045133.452    23045131.647    23045141.976
       209.000         151.000
 -29467177.73149 -22928280.07147  18506313.451    18506312.868    18506319.170
       235.000         201.000
 -15758555.66349 -12263015.60647  19199798.669    19199798.556    19199803.509
       240.000         205.000
 -22584465.53349 -17582545.30047  19470160.060    19470159.174    19470165.187
       237.000         198.000
  -4055884.88549  -3136035.74845  22315260.816    22315260.846    22315268.408
       217.000         155.000
   5092667.55349   3970093.85346  21640162.653    21640161.538    21640168.858
       221.000         172.000
 -12036728.06349  -9366534.91147  20079461.549    20079460.904    20079466.509
       242.000         204.000
 00  5 24 16 15 29.9940000  0  8G16G 2G24G 4G 5G30G 7G 9
 -13212819.16549 -10284519.51845  22673840.946    22673840.038    22673848.177
       216.000         153.000
   7895282.67749   6154858.41145  23057073.714    23057072.185    23057082.500
       210.000         153.000
 -29525142.73049 -22973447.60747  18495283.006    18495282.492    18495288.819
       236.000         201.000
 -15740286.98849 -12248780.30947  19203275.178    19203274.986    19203279.957
       240.000         205.000
 -22682229.33549 -17658724.87947  19451556.200    19451555.329    19451561.352
       236.000         198.000
  -4189455.44849  -3240116.66845  22289843.113    22289843.164    22289850.779
       218.000         159.000
   5125742.42949   3995866.40446  21646456.591    21646455.560    21646462.884
       223.000         174.000
 -12009417.29349  -9345253.86347  20084658.608    20084657.995    20084663.649
       242.000         203.000
 00  5 24 16 15 59.9940000  0  8G16G 2G24G 4G 5G30G 7G 9
 -13221327.60949 -10291149.50545  22672221.845    22672220.936    22672229.192
       213.000         153.000
   7958191.45649   6203878.01345  23069044.901    23069043.509    23069053.843
       212.000         149.000
 -29582582.33149 -23018205.73447  18484352.615    18484352.095    18484358.424
       236.000         201.000
 -15721557.01349 -12234185.54947  19206839.459    19206839.206    19206844.167
       240.000         205.000
 -22779720.24749 -17734691.81547  19433004.269    19433003.425    19433009.439
       236.000         199.000
  -4322998.02549  -3344175.73245  22264430.682    22264430.771    22264438.481
       218.000         161.000
   5158851.93849   4021665.94046  21652757.118    21652756.139    21652763.497
       223.000         173.000
 -11981695.39149  -9323652.45347  20089933.932    20089933.334    20089939.009
       240.000         203.000
 00  5 24 16 16 29.9940000  0  7G16G24G 4G 5G30G 7G 9
 -13229279.02149 -10297345.42645  22670708.790    22670707.799    22670716.162
       212.000         151.000
 -29639471.48249 -23062534.94547  18473526.919    18473526.427    18473532.795
       234.000         200.000
 -15702343.36549 -12219213.90747  19210495.695    19210495.487    19210500.434
       240.000         205.000
 -22876911.52249 -17810425.27247  19414509.375    19414508.552    19414514.549
       236.000         199.000
  -4456485.96649  -3448192.22745  22239028.881    22239028.905    22239036.560
       220.000         160.000
   5192020.78749   4047511.72346  21659069.122    21659068.048    21659075.383
       223.000         173.000
 -11953540.25849  -9301713.47647  20095291.756    20095291.119    20095296.796
       240.000         203.000
 00  5 24 16 16 59.9940000  0  7G16G24G 4G 5G30G 7G 9
 -13236689.99949 -10303120.25045  22669298.359    22669297.522    22669305.901
       213.000         150.000
 -29695826.82949 -23106448.20747  18462802.874    18462802.370    18462808.742
       236.000         201.000
 -15682664.69449 -12203879.90647  19214240.475    19214240.245    19214245.186
       240.000         205.000
 -22973817.59249 -17885936.49047  19396068.753    19396067.927    19396073.933
       238.000         200.000
  -4589934.02449  -3552177.72745  22213634.801    22213634.669    22213642.155
       220.000         155.000
   5225232.34349   4073390.78346  21665389.256    21665388.064    21665395.416
       221.000         173.000
 -11924970.74649  -9279451.61447  20100728.321    20100727.739    20100733.465
       240.000         203.000
 00  5 24 16 17 29.9940000  0  7G16G24G 4G 5G30G 7G 9
 -13243573.85049 -10308484.11045  22667988.269    22667987.504    22667995.940
       208.000         147.000
 -29751662.19649 -23149956.28547  18452177.790    18452177.278    18452183.621
       234.000         200.000
 -15662537.14249 -12188196.13447  19218070.710    19218070.427    19218075.366
       240.000         205.000
 -23070449.32349 -17961233.71547  19377680.351    19377679.519    19377685.580
       236.000         199.000
  -4723353.52249  -3656140.72245  22188245.843    22188245.787    22188253.246
       220.000         159.000
   5258473.67359   4099293.25456  21671714.942    21671713.733    21671721.167
       222.000         173.000
 -11896003.29849  -9256879.66847  20106240.797    20106240.123    20106245.840
       240.000         203.000
 00  5 24 16 17 59.9940000  0  7G16G24G 4G 5G30G 7G 9
 -13249924.57249 -10313432.77045  22666779.536    22666778.936    22666787.422
       210.000         148.000
 -29806968.84949 -23193052.38347  18441653.217    18441652.757    18441659.121
       234.000         200.000
 -15641954.43449 -12172157.69247  19221987.531    19221987.217    19221992.153
       240.000         205.000
 -23166797.77949 -18036310.43247  19359345.801    19359344.988    19359351.044
       237.000         199.000
  -4856735.87149  -3760074.95845  22162863.710    22162863.861    22162871.349
       218.000         161.000
   5291751.37249   4125223.85346  21678047.499    21678046.308    21678053.817
       220.000         173.000
 -11866631.37649  -9233992.55747  20111830.115    20111829.446    20111835.188
       240.000         202.000
 00  5 24 16 18 29.9930000  0  7G16G24G 4G 5G30G 7G 9
 -13255737.38849 -10317962.28345  22665673.562    22665672.810    22665681.233
       209.000         146.000
 -29861741.08149 -23235732.05247  18431230.449    18431229.953    18431236.334
       237.000         200.000
 -15620915.48049 -12155763.73647  19225991.154    19225990.819    19225995.768
       241.000         205.000
 -23262852.63349 -18111158.36647  19341067.104    19341066.331    19341072.372
       238.000         199.000
  -4990070.02949  -3863971.63846  22137491.029    22137491.141    22137498.660
       223.000         163.000
   5325069.10449   4151185.64046  21684387.652    21684386.526    21684394.024
       221.000         172.000
 -11836854.61349  -9210789.97947  20117496.489    20117495.830    20117501.583
       241.000         202.000
 00  5 24 16 18 59.9930000  0  7G16G24G 4G 5G30G 7G 9
 -13261032.86549 -10322088.67945  22664665.624    22664665.057    22664673.489
       210.000         147.000
 -29916002.30649 -23278013.52847  18420904.823    18420904.405    18420910.777
       235.000         200.000
 -15599440.93449 -12139030.36147  19230077.649    19230077.311    19230082.277
       240.000         204.000
 -23358637.99749 -18185796.30647  19322839.702    19322838.958    19322845.006
       237.000         200.000
  -5123382.52249  -3967851.47546  22112122.579    22112122.612    22112130.070
       223.000         163.000
   5358409.38849   4177165.00246  21690732.184    21690731.028    21690738.510
       221.000         171.000
 -11806693.13649  -9187287.60747  20123236.091    20123235.433    20123241.183
       241.000         202.000
 00  5 24 16 19 29.9930000  0  7G16G24G 4G 5G30G 7G 9
 -13265756.24149 -10325769.28045  22663766.906    22663766.254    22663774.696
       215.000         149.000
 -29969695.39249 -23319852.29847  18410687.468    18410686.953    18410693.337
       235.000         199.000
 -15577478.84749 -12121917.07147  19234256.924    19234256.589    19234261.575
       240.000         204.000
 -23454093.39349 -18260177.12947  19304675.119    19304674.374    19304680.417
       237.000         199.000
  -5256611.83549  -4071666.49746  22086769.771    22086769.868    22086777.281
       222.000         165.000
   5391826.19949   4203203.98946  21697091.322    21697090.123    21697097.560
       223.000         171.000
 -11776095.13449  -9163445.06447  20129058.829    20129058.112    20129063.883
       240.000         201.000
 00  5 24 16 19 59.9930000  0  7G16G24G 4G 5G30G 7G 9
 -13269933.61949 -10329024.42145  22662972.155    22662971.396    22662979.805
       210.000         150.000
 -30022846.13149 -23361268.46447  18400573.272    18400572.731    18400579.100
       234.000         199.000
 -15555056.89249 -12104445.45347  19238523.686    19238523.363    19238528.367
       240.000         204.000
 -23549242.35549 -18334319.17347  19286568.833    19286568.092    19286574.181
       237.000         200.000
  -5389781.49749  -4175435.01846  22061428.276    22061428.443    22061435.825
       220.000         163.000
   5425293.80249   4229282.57446  21703460.125    21703458.867    21703466.293
       223.000         172.000
 -11745088.79649  -9139284.34247  20134959.152    20134958.470    20134964.226
       239.000         201.000
 00  5 24 16 20 29.9930000  0  7G16G24G 4G 5G30G 7G 9
 -13273572.45549 -10331859.91445  22662279.627    22662278.976    22662287.311
       212.000         150.000
 -30075461.48349 -23402267.44347  18390560.896    18390560.383    18390566.705
       234.000         199.000
 -15532184.12649 -12086622.54747  19242876.237    19242875.915    19242880.932
       240.000         204.000
 -23644089.59449 -18408226.10547  19268519.997    19268519.246    19268525.341
       237.000         200.000
  -5522896.84749  -4279161.19645  22036097.061    22036097.330    22036104.747
       216.000         161.000
   5458805.21549   4255395.28746  21709837.294    21709835.943    21709843.347
       221.000         171.000
 -11713683.40249  -9114812.68847  20140935.451    20140934.767    20140940.530
       240.000         201.000
 00  5 24 16 20 59.9930000  0  7G16G24G 4G 5G30G 7G 9
 -13276690.16149 -10334289.33345  22661686.224    22661685.693    22661694.067
       210.000         151.000
 -30127558.58949 -23442862.59747  18380647.191    18380646.650    18380652.950
       235.000         198.000
 -15508880.28349 -12068463.74947  19247310.724    19247310.504    19247315.527
       240.000         203.000
 -23738649.97649 -18481909.52547  19250525.840    19250525.040    19250531.093
       237.000         200.000
  -5655972.99349  -4382856.82146  22010773.424    22010773.707    22010781.219
       224.000         167.000
   5492343.47649   4281528.91346  21716219.444    21716218.126    21716225.468
       221.000         171.000
 -11681898.48649  -9090045.30147  20146983.991    20146983.307    20146989.062
       240.000         200.000
 00  5 24 16 21 29.9930000  0  7G16G24G 4G 5G30G 7G 9
 -13279255.91049 -10336288.65745  22661198.005    22661197.423    22661205.891
       213.000         150.000
 -30179105.95649 -23483029.38447  18370838.124    18370837.527    18370843.812
       236.000         198.000
 -15485116.02049 -12049946.17347  19251832.921    19251832.688    19251837.742
       241.000         202.000
 -23832889.87549 -18555343.21147  19232592.570    19232591.785    19232597.840
       239.000         200.000
  -5788976.71049  -4486496.07346  21985463.839    21985463.989    21985471.333
       226.000         163.000
   5525939.99349   4307707.92346  21722612.678    21722611.368    21722618.758
       221.000         170.000
 -11649705.04049  -9064959.57647  20153110.291    20153109.582    20153115.341
       240.000         200.000
 00  5 24 16 21 59.9930000  0  7G16G24G 4G 5G30G 7G 9
 -13281270.69949 -10337858.66945  22660814.858    22660814.055    22660822.588
       211.000         150.000
 -30230104.07549 -23522768.18147  18361133.470    18361132.924    18361139.196
       235.000         199.000
 -15460894.12049 -12031071.99147  19256442.149    19256441.959    19256447.037
       240.000         203.000
 -23926807.32949 -18628525.64047  19214720.667    19214719.858    19214725.926
       237.000         201.000
  -5921906.19349  -4590077.46846  21960168.291    21960168.358    21960175.584
       221.000         164.000
   5559594.52349   4333932.15246  21729016.749    21729015.630    21729023.053
       218.000         171.000
 -11617105.77949  -9039557.63447  20159313.765    20159313.077    20159318.827
       240.000         199.000
 00  5 24 16 22 29.9930000  0  7G16G24G 4G 5G30G 7G 9
 -13282758.99949 -10339018.43345  22660531.745    22660530.809    22660539.426
       213.000         149.000
 -30280576.95649 -23562097.70347  18351528.874    18351528.288    18351534.531
       237.000         199.000
 -15436240.55049 -12011861.44447  19261133.639    19261133.411    19261138.465
       242.000         203.000
 -24020424.41049 -18701474.00447  19196905.892    19196905.098    19196911.148
       239.000         201.000
  -6054783.44949  -4693618.07546  21934882.643    21934882.638    21934889.915
       224.000         170.000
   5593283.03649   4360182.85746  21735427.415    21735426.362    21735433.829
       222.000         171.000
 -11584127.17149  -9013860.08047  20165589.487    20165588.767    20165594.471
       242.000         199.000
 00  5 24 16 22 59.9930000  0  7G16G24G 4G 5G30G 7G 9
 -13283696.57149 -10339749.04945  22660353.425    22660352.490    22660361.038
       213.000         151.000
 -30330499.89449 -23600998.70647  18342028.892    18342028.291    18342034.515
       235.000         199.000
 -15411132.72149 -11992296.93447  19265911.617    19265911.302    19265916.348
       241.000         202.000
 -24113713.90149 -18774167.11547  19179153.506    19179152.701    19179158.748
       237.000         201.000
  -6187581.71649  -4797097.20346  21909612.074    21909611.991    21909619.236
       226.000         171.000
   5627030.47749   4386479.46846  21741849.401    21741848.318    21741855.865
       220.000         170.000
 -11550746.72449  -8987849.40747  20171941.704    20171940.937    20171946.605
       238.000         198.000
 00  5 24 16 23 29.9930000  0  7G16G24G 4G 5G30G 7G 9
 -13284086.58549 -10340053.01045  22660279.337    22660278.388    22660286.875
       212.000         150.000
 -30379875.43649 -23639473.16647  18332632.977    18332632.438    18332638.662
       234.000         198.000
 -15385575.82849 -11972382.50447  19270775.019    19270774.640    19270779.688
       240.000         203.000
 -24206676.04449 -18846605.13847  19161463.367    19161462.583    19161468.648
       237.000         201.000
  -6320301.62349  -4900515.27346  21884356.272    21884356.201    21884363.406
       223.000         167.000
   5660834.39549   4412820.08846  21748282.165    21748281.034    21748288.587
       218.000         169.000
 -11516969.63049  -8961529.65647  20178369.214    20178368.529    20178374.243
       238.000         197.000
 00  5 24 16 23 59.9930000  0  7G16G24G 4G 5G30G 7G 9
 -13283944.89549 -10339942.66245  22660306.445    22660305.388    22660313.881
       208.000         149.000
 -30428719.25049 -23677533.28747  18323338.319    18323337.771    18323343.978
       234.000         198.000
 -15359587.37249 -11952131.78347  19275720.425    19275720.080    19275725.154
       239.000         202.000
 -24299324.14749 -18918798.46447  19143833.030    19143832.226    19143838.263
       238.000         201.000
  -6452956.36149  -5003882.53346  21859112.901    21859112.785    21859120.043
       221.000         163.000
   5694679.46149   4439192.79046  21754722.806    21754721.629    21754729.138
       220.000         170.000
 -11482813.62049  -8934914.64147  20184868.838    20184868.214    20184873.952
       238.000         197.000
 00  5 24 16 24 29.9930000  0  7G16G24G 4G 5G30G 7G 9
 -13283280.16949 -10339424.76145  22660432.693    22660431.885    22660440.453
       207.000         148.000
 -30477039.32149 -23715185.30047  18314143.283    18314142.749    18314148.970
       234.000         196.000
 -15333177.47549 -11931552.68047  19280746.026    19280745.733    19280750.814
       239.000         202.000
 -24391663.93949 -18990751.54547  19126261.378    19126260.554    19126266.596
       238.000         201.000
  -6585551.86149  -5107203.66346  21833880.754    21833880.687    21833887.889
       225.000         168.000
   5728557.75649   4465591.38246  21761169.854    21761168.572    21761176.051
       222.000         169.000
 -11448289.01349  -8908012.41447  20191438.792    20191438.074    20191443.834
       238.000         197.000
 00  5 24 16 24 59.9930000  0  7G16G24G 4G 5G30G 7G 9
 -13282076.43249 -10338486.83945  22660661.904    22660660.931    22660669.604
       206.000         147.000
 -30524819.29449 -23752416.46147  18305051.051    18305050.542    18305056.731
       235.000         198.000
 -15306331.71249 -11910633.94147  19285854.617    19285854.350    19285859.437
       241.000         203.000
 -24483676.59849 -19062449.72147  19108752.012    19108751.157    19108757.137
       239.000         202.000
  -6718069.28149  -5210463.97346  21808663.538    21808663.461    21808670.599
       226.000         171.000
   5762485.93449   4492028.85746  21767626.286    21767624.960    21767632.397
       219.000         170.000
 -11413381.77849  -8880812.03947  20198081.488    20198080.772    20198086.514
       239.000         196.000
 00  5 24 16 25 29.9930000  0  7G16G24G 4G 5G30G 7G 9
 -13280357.22149 -10337147.27445  22660989.266    22660988.114    22660996.825
       209.000         150.000
 -30572082.08149 -23789244.61347  18296057.251    18296056.755    18296062.923
       234.000         198.000
 -15279075.52049 -11889395.38147  19291041.288    19291041.043    19291046.158
       239.000         203.000
 -24575382.70149 -19133909.01647  19091300.968    19091300.075    19091306.053
       238.000         203.000
  -6850529.56249  -5313679.71246  21783457.020    21783457.028    21783464.176
       220.000         164.000
   5796441.41349   4518487.59746  21774087.831    21774086.541    21774093.954
       220.000         171.000
 -11378117.28249  -8853333.27447  20204792.128    20204791.434    20204797.173
       238.000         196.000
 00  5 24 16 25 59.9930000  0  7G16G24G 4G 5G30G 7G 9
 -13278112.92449 -10335398.51645  22661416.406    22661415.261    22661424.044
       209.000         149.000
 -30618817.58749 -23825661.90147  18287163.780    18287163.304    18287169.476
       234.000         198.000
 -15251400.76349 -11867830.66847  19296307.704    19296307.391    19296312.536
       242.000         203.000
 -24666769.74449 -19205119.69247  19073910.624    19073909.721    19073915.675
       240.000         202.000
  -6982920.39449  -5416841.35346  21758263.730    21758263.801    21758270.953
       225.000         169.000
   5830434.56249   4544975.68046  21780556.472    21780555.256    21780562.763
       220.000         169.000
 -11342487.49549  -8825569.87047  20211572.315    20211571.609    20211577.361
       240.000         196.000
 00  5 24 16 26 29.9930000  0  7G16G24G 4G 5G30G 7G 9
 -13275343.86349 -10333240.85045  22661943.384    22661942.198    22661951.056
       210.000         149.000
 -30665025.68349 -23861668.21447  18278370.772    18278370.215    18278376.386
       232.000         198.000
 -15223309.50049 -11845941.41047  19301653.317    19301653.014    19301658.180
       240.000         203.000
 -24757834.98749 -19276079.62347  19056581.434    19056580.585    19056586.529
       239.000         203.000
  -7115239.22849  -5519946.88746  21733084.220    21733084.311    21733091.516
       224.000         172.000
   5864465.89049   4571493.51846  21787032.494    21787031.244    21787038.845
       218.000         168.000
 -11306494.75849  -8797523.65447  20218421.568    20218420.854    20218426.624
       238.000         196.000
 00  5 24 16 26 59.9930000  0  7G16G24G 4G 5G30G 7G 9
 -13272042.42249 -10330668.35145  22662571.645    22662570.508    22662579.382
       209.000         146.000
 -30710698.38849 -23897257.34147  18269679.586    18269679.000    18269685.177
       233.000         198.000
 -15194795.52649 -11823722.76347  19307079.436    19307079.086    19307084.264
       241.000         203.000
 -24848567.98649 -19346780.66047  19039315.551    19039314.656    19039320.603
       239.000         202.000
  -7247475.43249  -5622988.03546  21707920.444    21707920.542    21707927.730
       221.000         166.000
   5898543.69349   4598047.58646  21793517.415    21793516.114    21793523.759
       216.000         167.000
 -11270133.06949  -8769189.91447  20225340.983    20225340.312    20225346.103
       238.000         195.000
 00  5 24 16 27 29.9930000  0  7G16G24G 4G 5G30G 7G 9
 -13268223.02449 -10327692.25345  22663298.598    22663297.388    22663306.193
       211.000         146.000
 -30755849.30149 -23932439.88547  18261087.632    18261087.084    18261093.256
       235.000         197.000
 -15165874.65549 -11801187.06047  19312582.950    19312582.579    19312587.750
       242.000         202.000
 -24938979.87049 -19417231.48247  19022110.677    19022109.827    19022115.782
       240.000         201.000
  -7379640.55149  -5725973.80046  21682770.219    21682770.348    21682777.472
       226.000         171.000
   5932654.79349   4624627.57646  21800008.599    21800007.291    21800014.959
       221.000         167.000
 -11233418.36949  -8740581.12747  20232327.593    20232326.932    20232332.724
       240.000         195.000
 00  5 24 16 27 59.9930000  0  7G16G24G 4G 5G30G 7G 9
 -13263875.15049 -10324304.36545  22664125.834    22664124.788    22664133.554
       209.000         145.000
 -30800467.56649 -23967207.36947  18252597.107    18252596.543    18252602.686
       232.000         197.000
 -15136538.13349 -11778327.46447  19318165.551    19318165.186    19318170.354
       240.000         202.000
 -25029057.31849 -19487421.69647  19004969.539    19004968.659    19004974.584
       239.000         202.000
  -7511721.69549  -5828894.12046  21657636.080    21657636.126    21657643.237
       223.000         170.000
   5966810.25649   4651242.14346  21806508.186    21806506.958    21806514.652
       219.000         169.000
 -11196342.30749  -8711690.75147  20239383.037    20239382.323    20239388.163
       238.000         196.000
 00  5 24 16 28 29.9930000  0  7G16G24G 4G 5G30G 7G 9
 -13259020.58349 -10320521.64445  22665049.684    22665048.712    22665057.367
       208.000         145.000
 -30844574.46149 -24001576.38347  18244203.850    18244203.279    18244209.431
       231.000         197.000
 -15106809.28949 -11755162.16847  19323822.764    19323822.437    19323827.616
       240.000         202.000
 -25118819.12149 -19557365.95347  18987888.437    18987887.571    18987893.459
       239.000         202.000
  -7643737.24549  -5931763.33346  21632514.252    21632514.343    21632521.431
       223.000         170.000
   6000989.41049   4677875.17846  21813012.291    21813011.100    21813018.833
       220.000         168.000
 -11158927.99549  -8682536.80147  20246502.823    20246502.087    20246507.969
       236.000         195.000
 00  5 24 16 28 59.9930000  0  7G16G24G 4G 5G30G 7G 9
 -13253665.88249 -10316349.20845  22666068.941    22666067.740    22666076.456
       209.000         145.000
 -30888175.99149 -24035551.60347  18235906.771    18235906.185    18235912.332
       233.000         197.000
 -15076696.08249 -11731697.36347  19329553.137    19329552.817    19329558.021
       241.000         202.000
 -25208268.70449 -19627066.91847  18970866.806    18970865.887    18970871.749
       241.000         202.000
  -7775690.92649  -6034584.35446  21607404.318    21607404.404    21607411.438
       227.000         172.000
   6035186.65649   4704522.31646  21819519.816    21819518.655    21819526.391
       219.000         165.000
 -11121183.78349  -8653125.78747  20253685.299    20253684.599    20253690.540
       238.000         195.000
 00  5 24 16 29 29.9930000  0  7G16G24G 4G 5G30G 7G 9
 -13247802.59649 -10311780.44345  22667184.678    22667183.526    22667192.280
       208.000         143.000
 -30931263.54249 -24069126.32647  18227707.470    18227706.916    18227713.031
       231.000         196.000
 -15046191.85549 -11707927.87047  19335357.837    19335357.588    19335362.828
       240.000         202.000
 -25297394.79949 -19696515.81247  18953906.645    18953905.748    18953911.592
       239.000         202.000
  -7907571.38249  -6137348.32346  21582308.397    21582308.373    21582315.339
       222.000         168.000
   6069411.15249   4731190.65846  21826032.510    21826031.380    21826039.228
       218.000         167.000
 -11083103.32049  -8623452.77247  20260931.769    20260931.104    20260937.061
       236.000         194.000
 00  5 24 16 29 59.9930000  0  7G16G24G 4G 5G30G 7G 9
 -13241408.03149 -10306797.72045  22668401.594    22668400.381    22668409.183
       209.000         142.000
 -30973813.53549 -24102282.17247  18219610.454    18219609.919    18219616.046
       231.000         196.000
 -15015275.12849 -11683836.95647  19341241.094    19341240.851    19341246.119
       240.000         202.000
 -25386171.35649 -19765692.34747  18937012.974    18937012.114    18937017.973
       239.000         202.000
  -8039352.86049  -6240035.11046  21557231.006    21557231.099    21557238.132
       221.000         169.000
   6103686.88649   4757898.93246  21832555.020    21832553.886    21832561.802
       218.000         165.000
 -11044665.17649  -8593501.04847  20268246.448    20268245.717    20268251.664
       237.000         194.000
 00  5 24 16 30 29.9930000  0  7G16G24G 4G 5G30G 7G 9
 -13234478.66549 -10301398.27145  22669720.244    22669719.023    22669727.877
       207.000         141.000
 -31015822.12149 -24135016.14847  18211616.561    18211615.973    18211622.074
       233.000         195.000
 -14983944.08749 -11659423.19047  19347203.170    19347202.969    19347208.235
       241.000         202.000
 -25474591.95349 -19834591.51047  18920187.078    18920186.224    18920192.080
       240.000         201.000
  -8171028.79249  -6342639.68746  21532173.842    21532173.921    21532181.006
       229.000         174.000
   6138018.28449   4784650.59546  21839088.207    21839087.016    21839094.875
       218.000         164.000
 -11005867.69549  -8563269.32547  20275629.489    20275628.706    20275634.643
       238.000         193.000
 00  5 24 16 30 59.9930000  0  7G16G24G 4G 5G30G 7G 9
 -13227027.60649 -10295592.27145  22671138.100    22671136.894    22671145.767
       206.000         139.000
 -31057301.63749 -24167337.85847  18203723.252    18203722.688    18203728.798
       233.000         195.000
 -14952212.88649 -11634697.62247  19353241.523    19353241.256    19353246.520
       243.000         202.000
 -25562666.29149 -19903220.86947  18903427.100    18903426.239    18903432.099
       241.000         201.000
  -8302608.87349  -6445169.60646  21507135.031    21507135.058    21507142.090
       225.000         169.000
   6172393.50649   4811436.37146  21845629.704    21845628.460    21845636.443
       218.000         166.000
 -10966725.35349  -8532768.88347  20283078.087    20283077.299    20283083.246
       238.000         193.000
 00  5 24 16 31 29.9930000  0  8G16G24G 4G 5G30G 7G 9G10
 -13219046.87449 -10289373.58545  22672656.605    22672655.600    22672664.365
       203.000         140.000
 -31098243.97149 -24199240.97347  18195932.108    18195931.604    18195937.731
       231.000         195.000
 -14920075.50949 -11609655.54447  19359357.176    19359356.845    19359362.119
       240.000         203.000
 -25650383.73449 -19971572.11647  18886735.040    18886734.170    18886740.029
       239.000         202.000
  -8434082.27349  -6547616.37546  21482116.363    21482116.446    21482123.471
       226.000         175.000
   6206821.24449   4838263.09846  21852181.301    21852179.969    21852187.829
       221.000         167.000
 -10927232.31949  -8501995.16347  20290593.402    20290592.616    20290598.619
       237.000         193.000
   -353985.41259   -256434.32055  22010846.081    22010846.142    22010856.085
       207.000         150.000
 00  5 24 16 31 59.9930000  0  8G16G24G 4G 5G30G 7G 9G10
 -13210561.21449 -10282761.41545  22674271.484    22674270.454    22674279.228
       202.000         138.000
 -31138672.90249 -24230744.04547  18188238.712    18188238.218    18188244.362
       232.000         194.000
 -14887557.54049 -11584316.90647  19365545.231    19365544.863    19365550.111
       242.000         202.000
 -25737765.18249 -20039661.55247  18870106.918    18870106.034    18870111.882
       241.000         202.000
  -8565470.49749  -6649996.72846  21457113.908    21457114.016    21457121.112
       224.000         172.000
   6241278.31349   4865112.66546  21858738.284    21858737.003    21858744.884
       220.000         165.000
 -10887414.49349  -8470968.37447  20298170.584    20298169.786    20298175.771
       239.000         193.000
   -487654.20349   -360591.74645  21985410.241    21985409.689    21985420.180
       209.000         151.000
 00  5 24 16 32 29.9930000  0  8G16G24G 4G 5G30G 7G 9G10
 -13201569.16449 -10275754.67945  22675982.644    22675981.517    22675990.395
       201.000         139.000
 -31178586.67049 -24261845.68347  18180643.379    18180642.905    18180649.055
       231.000         195.000
 -14854659.22649 -11558681.89247  19371805.574    19371805.251    19371810.492
       240.000         202.000
 -25824806.35349 -20107485.83747  18853543.597    18853542.690    18853548.495
       239.000         203.000
  -8696769.00549  -6752307.18446  21432128.591    21432128.666    21432135.849
       223.000         170.000
   6275767.14049   4891986.97746  21865301.388    21865300.094    21865307.964
       218.000         167.000
 -10847272.15449  -8439688.70547  20305809.514    20305808.708    20305814.731
       237.000         194.000
   -621311.55859   -464740.27355  21959976.522    21959976.431    21959985.803
       209.000         151.000
 00  5 24 16 32 59.9930000  0  8G16G24G 4G 5G30G 7G 9G10
 -13192065.27349 -10268349.10445  22677791.062    22677789.967    22677799.006
       204.000         137.000
 -31217979.49649 -24292541.40447  18173147.172    18173146.706    18173152.861
       231.000         195.000
 -14821376.59349 -11532747.41647  19378139.107    19378138.753    19378144.007
       240.000         202.000
 -25911498.58649 -20175038.22747  18837046.603    18837045.709    18837051.508
       238.000         202.000
  -8827969.30149  -6854541.18846  21407162.057    21407162.099    21407169.100
       225.000         170.000
   6310294.21849   4918891.09946  21871871.798    21871870.493    21871878.313
       219.000         166.000
 -10806801.65449  -8408153.32647  20313510.806    20313510.051    20313516.107
       236.000         194.000
   -754948.00949   -568872.50145  21934546.373    21934545.978    21934555.582
       208.000         151.000
 00  5 24 16 33 29.9930000  0  8G16G24G 4G 5G30G 7G 9G10
 -13182054.95149 -10260548.90545  22679696.015    22679694.805    22679703.929
       197.000         138.000
 -31256856.13149 -24322834.89447  18165749.248    18165748.742    18165754.872
       231.000         195.000
 -14787716.33149 -11506518.68347  19384544.488    19384544.141    19384549.392
       241.000         203.000
 -25997844.13049 -20242320.46847  18820615.540    18820614.693    18820620.504
       240.000         202.000
  -8959073.48249  -6956700.23846  21382213.732    21382213.768    21382220.743
       228.000         176.000
   6344855.47649   4945821.88146  21878448.616    21878447.403    21878455.134
       219.000         166.000
 -10766009.77649  -8376367.53447  20321273.296    20321272.554    20321278.616
       238.000         194.000
   -888564.40049   -672989.10745  21909120.166    21909119.507    21909129.133
       209.000         152.000
 00  5 24 16 33 59.9930000  0  8G16G24G 4G 5G30G 7G 9G10
 -13171514.20149 -10252335.40045  22681701.594    22681700.558    22681709.843
       195.000         138.000
 -31295191.73549 -24352706.79347  18158454.229    18158453.712    18158459.857
       231.000         195.000
 -14753655.61649 -11479977.90347  19391026.057    19391025.718    19391030.973
       240.000         202.000
 -26083815.50249 -20309311.14247  18804255.725    18804254.901    18804260.680
       239.000         203.000
  -9090053.78849  -7058762.75146  21357288.904    21357288.997    21357295.996
       223.000         172.000
   6379476.20849   4972798.99946  21885036.929    21885035.661    21885043.338
       217.000         165.000
 -10724873.88549  -8344313.67147  20329101.282    20329100.530    20329106.596
       236.000         194.000
  -1022132.18049   -777067.83345  21883703.205    21883702.454    21883712.055
       210.000         153.000
 00  5 24 16 34 29.9930000  0  8G16G24G 4G 5G30G 7G 9G10
 -13160464.22049 -10243725.09245  22683804.116    22683803.295    22683812.691
       199.000         138.000
 -31333007.30149 -24382173.47347  18151258.184    18151257.655    18151263.801
       230.000         195.000
 -14719217.13449 -11453142.76347  19397579.512    19397579.183    19397584.446
       239.000         202.000
 -26169431.05349 -20376024.55947  18787963.654    18787962.809    18787968.586
       238.000         203.000
  -9220928.71149  -7160743.16646  21332384.234    21332384.295    21332391.262
       224.000         175.000
   6414136.32049   4999806.77846  21891632.631    21891631.375    21891638.956
       219.000         165.000
 -10683416.86349  -8312009.59847  20336990.364    20336989.612    20336995.675
       236.000         194.000
  -1155668.70149   -881122.20745  21858292.161    21858291.328    21858300.868
       210.000         154.000
 00  5 24 16 34 59.9930000  0  8G16G24G 4G 5G30G 7G 9G10
 -13148908.65149 -10234720.81745  22686003.050    22686002.315    22686011.718
       201.000         141.000
 -31370306.07049 -24411237.46047  18144160.455    18144159.937    18144166.087
       231.000         194.000
 -14684405.87649 -11426017.15747  19404203.909    19404203.577    19404208.848
       239.000         202.000
 -26254691.03749 -20442460.91747  18771739.224    18771738.370    18771744.146
       238.000         203.000
  -9351698.36349  -7262641.52646  21307499.467    21307499.575    21307506.634
       227.000         174.000
   6448833.30649   5026843.28746  21898235.358    21898234.093    21898241.729
       219.000         165.000
 -10641643.98649  -8279459.42147  20344939.590    20344938.803    20344944.863
       237.000         194.000
  -1289173.19349   -985151.61745  21832887.204    21832886.265    21832895.777
       212.000         154.000
 00  5 24 16 35 29.9930000  0  8G16G24G 4G 5G30G 7G 9G10
 -13136835.83249 -10225313.48745  22688300.762    22688299.824    22688309.143
       200.000         145.000
 -31407075.91249 -24439889.29047  18137163.384    18137162.882    18137169.019
       231.000         196.000
 -14649211.43749 -11398592.94947  19410901.152    19410900.873    19410906.161
       239.000         202.000
 -26339580.42749 -20508608.48547  18755585.328    18755584.452    18755590.242
       238.000         203.000
  -9482347.98349  -7364446.38646  21282637.738    21282637.777    21282644.750
       225.000         173.000
   6483580.25049   5053918.73546  21904847.327    21904846.198    21904853.922
       218.000         166.000
 -10599545.28349  -8246655.33847  20352950.826    20352949.997    20352956.069
       238.000         194.000
  -1422629.61849  -1089143.57945  21807491.586    21807490.364    21807499.912
       211.000         155.000
 00  5 24 16 35 59.9930000  0  8G16G24G 4G 5G30G 7G 9G10
 -13124245.81449 -10215503.13545  22690696.825    22690695.781    22690705.000
       205.000         145.000
 -31443315.92749 -24468128.26047  18130267.174    18130266.654    18130272.778
       232.000         195.000
 -14613635.17649 -11370871.22747  19417671.106    19417670.820    19417676.149
       241.000         202.000
 -26424096.07749 -20574464.83347  18739502.554    18739501.670    18739507.439
       240.000         203.000
  -9612873.97749  -7466154.91846  21257799.519    21257799.527    21257806.451
       229.000         176.000
   6518378.24649   5081033.97546  21911469.266    21911468.090    21911475.851
       216.000         163.000
 -10557122.30449  -8213598.58947  20361023.730    20361022.902    20361028.948
       238.000         194.000
  -1556033.50149  -1193094.60445  21782105.741    21782104.528    21782113.963
       213.000         154.000
 00  5 24 16 36 29.9930000  0  8G16G24G 4G 5G30G 7G 9G10
 -13111149.40749 -10205298.20945  22693188.939    22693187.971    22693197.189
       204.000         146.000
 -31479036.58549 -24495962.54647  18123469.818    18123469.253    18123475.391
       231.000         195.000
 -14577688.83849 -11342861.13647  19424511.538    19424511.228    19424516.541
       240.000         202.000
 -26508245.00649 -20640035.42447  18723489.545    18723488.661    18723494.415
       239.000         203.000
  -9743283.55349  -7567772.73146  21232983.336    21232983.368    21232990.263
       226.000         175.000
   6553218.21849   5108181.91345  21918099.081    21918097.946    21918105.851
       214.000         162.000
 -10514386.87749  -8180298.36847  20369156.061    20369155.238    20369161.298
       237.000         194.000
  -1689390.90349  -1297009.40345  21756728.814    21756727.479    21756736.893
       212.000         154.000
 00  5 24 16 36 59.9930000  0  8G16G24G 4G 5G30G 7G 9G10
 -13097534.28649 -10194689.06945  22695779.880    22695778.910    22695788.141
       207.000         148.000
 -31514225.33249 -24523382.35647  18116773.671    18116773.085    18116779.216
       232.000         195.000
 -14541361.91149 -11314554.47947  19431424.356    19431424.056    19431429.345
       242.000         201.000
 -26592012.06049 -20705308.45547  18707549.229    18707548.331    18707554.084
       241.000         203.000
  -9873561.50749  -7669287.96146  21208192.225    21208192.288    21208199.153
       228.000         177.000
   6588113.40649   5135372.90145  21924739.398    21924738.286    21924746.287
       218.000         162.000
 -10471328.73849  -8146746.68547  20377349.804    20377348.972    20377355.074
       238.000         192.000
  -1822685.66249  -1400875.39145  21731363.622    21731362.367    21731371.731
       211.000         153.000
 00  5 24 16 37 29.9930000  0  8G16G24G 4G 5G30G 7G 9G10
 -13083418.97549 -10183690.18745  22698466.013    22698464.997    22698474.220
       208.000         149.000
 -31548899.54449 -24550401.22547  18110175.398    18110174.789    18110180.946
       231.000         195.000
 -14504673.59549 -11285966.22347  19438405.966    19438405.655    19438410.913
       241.000         201.000
 -26675411.72649 -20770295.20847  18691678.744    18691677.874    18691683.641
       239.000         203.000
 -10003722.06549  -7770711.74446  21183423.597    21183423.585    21183430.400
       228.000         177.000
   6623047.17149   5162593.92945  21931387.266    21931386.010    21931394.014
       219.000         162.000
 -10427967.45349  -8112958.79047  20385601.167    20385600.409    20385606.508
       235.000         192.000
  -1955931.21449  -1504703.03445  21706007.728    21706006.580    21706015.871
       212.000         153.000
 00  5 24 16 37 59.9930000  0  8G16G24G 4G 5G30G 7G 9G10
 -13068799.45949 -10172298.39045  22701248.176    22701247.067    22701256.288
       206.000         150.000
 -31583055.12449 -24577015.97347  18103675.826    18103675.231    18103681.365
       230.000         196.000
 -14467621.42149 -11257094.44047  19445456.824    19445456.481    19445461.732
       240.000         201.000
 -26758437.02749 -20834990.25147  18675879.537    18675878.674    18675884.467
       238.000         203.000
 -10133758.24549  -7872038.59646  21158678.263    21158678.409    21158685.290
       226.000         174.000
   6658024.60549   5189848.97045  21938043.179    21938041.995    21938050.156
       216.000         160.000
 -10384300.71349  -8078932.88047  20393910.724    20393909.984    20393916.093
       236.000         192.000
  -2089119.61049  -1608486.13545  21680662.885    21680661.693    21680670.969
       213.000         153.000
 00  5 24 16 38 29.9930000  0  8G16G24G 4G 5G30G 7G 9G10
 -13053690.79249 -10160525.44545  22704123.357    22704122.219    22704131.414
       207.000         151.000
 -31616706.63949 -24603237.94347  18097272.186    18097271.598    18097277.688
       233.000         195.000
 -14430221.84049 -11227951.96147  19452573.741    19452573.434    19452578.680
       242.000         201.000
 -26841099.98849 -20899402.94947  18660149.243    18660148.429    18660154.235
       241.000         203.000
 -10263681.73249  -7973277.64046  21133954.637    21133954.759    21133961.644
       230.000         177.000
   6693031.91849   5217127.31345  21944704.938    21944703.754    21944711.822
       219.000         161.000
 -10340345.01349  -8044681.81347  20402275.339    20402274.563    20402280.671
       238.000         191.000
  -2222261.45549  -1712232.96745  21655327.001    21655325.664    21655334.901
       216.000         154.000
 00  5 24 16 38 59.9930000  0  8G16G24G 4G 5G30G 7G 9G10
 -13038093.52249 -10148371.77045  22707091.321    22707090.309    22707099.472
       209.000         152.000
 -31649853.80049 -24629066.89947  18090964.536    18090963.936    18090970.001
       231.000         195.000
 -14392476.28949 -11198539.87147  19459756.520    19459756.207    19459761.432
       239.000         200.000
 -26923397.36849 -20963530.76747  18644488.560    18644487.744    18644493.563
       237.000         203.000
 -10393489.25349  -8074426.32446  21109253.046    21109253.184    21109260.004
       226.000         175.000
   6728070.22549   5244429.80746  21951372.857    21951371.498    21951379.445
       219.000         163.000
 -10296102.08549  -8010206.90647  20410694.676    20410693.827    20410699.887
       237.000         192.000
  -2355352.18749  -1815939.95845  21630000.803    21629999.364    21630008.533
       215.000         153.000
 00  5 24 16 39 29.9930000  0  8G16G24G 4G 5G30G 7G 9G10
 -13021994.70949 -10135827.29445  22710154.873    22710153.883    22710162.987
       209.000         151.000
 -31682483.59949 -24654492.73047  18084755.309    18084754.710    18084760.760
       232.000         195.000
 -14354372.95149 -11168848.99747  19467007.356    19467007.060    19467012.292
       243.000         200.000
 -27005313.00649 -21027361.14147  18628900.527    18628899.729    18628905.535
       242.000         204.000
 -10523164.21549  -8175471.70746  21084576.697    21084576.796    21084583.622
       229.000         177.000
   6763153.90249   5271767.64546  21958049.243    21958047.792    21958055.708
       219.000         163.000
 -10251560.55049  -7975499.32647  20419170.786    20419169.894    20419175.967
       239.000         192.000
  -2488374.44049  -1919593.60845  21604687.406    21604686.046    21604695.124
       215.000         154.000
 00  5 24 16 39 59.9930000  0  8G16G24G 4G 5G30G 7G 9G10
 -13005415.20949 -10122908.26345  22713309.917    22713308.955    22713317.994
       210.000         152.000
 -31714615.85249 -24679530.85147  18078640.795    18078640.165    18078646.196
       231.000         196.000
 -14315933.69549 -11138896.36847  19474322.107    19474321.822    19474327.077
       239.000         200.000
 -27086863.92849 -21090907.31447  18613381.975    18613381.116    18613386.900
       238.000         204.000
 -10652724.10149  -8276427.41946  21059922.233    21059922.345    21059929.177
       226.000         177.000
   6798263.83449   5299125.93245  21964730.509    21964729.060    21964736.992
       219.000         160.000
 -10206742.44049  -7940576.22347  20427699.578    20427698.635    20427704.694
       237.000         192.000
  -2621344.10649  -2023206.26745  21579383.926    21579382.727    21579391.727
       216.000         155.000
 00  5 24 16 40 29.9930000  0  8G16G24G 4G 5G30G 7G 9G10
 -12988347.43049 -10109608.74545  22716558.002    22716556.890    22716565.942
       209.000         152.000
 -31746242.62649 -24704175.10847  18072622.439    18072621.815    18072627.821
       231.000         194.000
 -14277152.37849 -11108677.19947  19481701.965    19481701.706    19481706.966
       241.000         200.000
 -27168039.62449 -21154161.10947  18597934.790    18597933.909    18597939.675
       240.000         203.000
 -10782157.66449  -8377284.68646  21035291.697    21035291.868    21035298.751
       229.000         175.000
   6833408.89949   5326511.61445  21971418.425    21971417.021    21971424.997
       218.000         162.000
 -10161641.99749  -7905433.13347  20436282.015    20436281.074    20436287.138
       236.000         190.000
  -2754249.59449  -2126768.93245  21554092.652    21554091.581    21554100.576
       217.000         154.000
 00  5 24 16 40 59.9930000  0  8G16G24G 4G 5G30G 7G 9G10
 -12970781.47549 -10095921.03645  22719900.755    22719899.649    22719908.651
       209.000         152.000
 -31777353.43649 -24728417.30247  18066702.116    18066701.602    18066707.618
       230.000         194.000
 -14238020.16849 -11078184.60747  19489148.536    19489148.329    19489153.627
       240.000         200.000
 -27248826.68549 -21217112.06647  18582561.510    18582560.655    18582566.389
       240.000         203.000
 -10911451.32749  -8478032.96946  21010687.991    21010688.079    21010694.901
       227.000         173.000
   6868600.55949   5353933.59545  21978115.145    21978113.839    21978121.903
       213.000         157.000
 -10116250.32349  -7870063.11547  20444919.828    20444918.903    20444925.001
       236.000         191.000
  -2887076.22649  -2230270.13945  21528816.403    21528815.412    21528824.441
       217.000         155.000
 00  5 24 16 41 29.9920000  0  8G16G24G 4G 5G30G 7G 9G10
 -12952705.61949 -10081836.00745  22723340.305    22723339.366    22723348.420
       209.000         152.000
 -31807934.71249 -24752246.87247  18060882.687    18060882.176    18060888.216
       232.000         195.000
 -14198527.31049 -11047410.99547  19496663.798    19496663.602    19496668.921
       241.000         199.000
 -27329206.57049 -21279745.74847  18567265.745    18567264.866    18567270.618
       242.000         204.000
 -11040584.85049  -8578656.46146  20986114.732    20986114.769    20986121.535
       228.000         178.000
   6903851.33049   5381401.63945  21984823.484    21984822.012    21984829.978
       217.000         160.000
 -10070558.42549  -7834459.14947  20453614.764    20453613.857    20453619.987
       237.000         190.000
  -3019802.56649  -2333693.20545  21503559.454    21503558.355    21503567.389
       219.000         157.000
 00  5 24 16 41 59.9920000  0  8G16G24G 4G 5G30G 7G 9G10
 -12934142.32949 -10067371.14745  22726872.896    22726871.884    22726880.967
       211.000         153.000
 -31838011.22049 -24775683.12247  18055159.212    18055158.782    18055164.840
       230.000         195.000
 -14158695.52749 -11016373.28647  19504243.482    19504243.346    19504248.700
       239.000         199.000
 -27409204.51649 -21342081.81247  18552042.578    18552041.753    18552047.511
       240.000         204.000
 -11169586.37749  -8679177.06846  20961566.403    20961566.512    20961573.333
       229.000         176.000
   6939141.92649   5408900.71945  21991538.942    21991537.633    21991545.581
       213.000         157.000
 -10024587.82549  -7798638.01947  20462362.716    20462361.837    20462368.030
       235.000         190.000
  -3152456.36049  -2437059.72645  21478316.281    21478315.159    21478324.185
       218.000         159.000
 00  5 24 16 42 29.9920000  0  8G16G24G 4G 5G30G 7G 9G10
 -12915086.64449 -10052522.61645  22730499.183    22730498.144    22730507.219
       210.000         152.000
 -31867575.89949 -24798720.56047  18049533.303    18049532.832    18049538.880
       233.000         195.000
 -14118521.45949 -10985068.86347  19511888.363    19511888.227    19511893.611
       242.000         200.000
 -27488808.88449 -21404111.20247  18536894.384    18536893.553    18536899.303
       243.000         204.000
 -11298442.38949  -8779584.32046  20937046.070    20937046.044    20937052.782
       230.000         178.000
   6974478.13349   5436435.33045  21998263.306    21998262.003    21998269.885
       219.000         157.000
  -9978335.74049  -7762597.55547  20471164.282    20471163.402    20471169.642
       235.000         190.000
  -3285022.53849  -2540357.99345  21453089.860    21453088.634    21453097.646
       220.000         160.000
 00  5 24 16 42 59.9920000  0  8G16G24G 4G 5G30G 7G 9G10
 -12895549.67649 -10037299.05345  22734216.963    22734216.000    22734225.003
       211.000         153.000
 -31896639.54049 -24821367.55647  18044002.738    18044002.210    18044008.241
       231.000         195.000
 -14078017.62449 -10953507.46747  19519595.990    19519595.858    19519601.251
       240.000         200.000
 -27568027.31649 -21465839.84447  18521819.643    18521818.794    18521824.517
       241.000         203.000
 -11427160.45149  -8879884.05946  20912551.681    20912551.708    20912558.460
       227.000         175.000
   7009850.51849   5463998.13145  22004994.549    22004993.220    22005001.065
       218.000         159.000
  -9931814.74149  -7726347.52247  20480016.908    20480016.116    20480022.448
       234.000         190.000
  -3417507.72949  -2643593.13345  21427878.821    21427877.528    21427886.561
       217.000         161.000
 00  5 24 16 43 29.9920000  0  8G16G24G 4G 5G30G 7G 9G10
 -12875526.85749 -10021696.91545  22738027.357    22738026.331    22738035.261
       210.000         152.000
 -31925196.77249 -24843619.96647  18038568.472    18038567.956    18038574.002
       232.000         195.000
 -14037180.45449 -10921686.34447  19527367.080    19527366.943    19527372.333
       240.000         199.000
 -27646851.73449 -21527261.47047  18506819.880    18506819.004    18506824.729
       241.000         204.000
 -11555732.12549  -8980069.74746  20888085.443    20888085.378    20888092.019
       228.000         175.000
   7045265.21849   5491593.90645  22011733.682    22011732.444    22011740.383
       216.000         158.000
  -9885021.60449  -7689885.45147  20488921.445    20488920.650    20488927.015
       234.000         188.000
  -3549902.65249  -2746757.94245  21402684.548    21402683.542    21402692.592
       218.000         160.000
 00  5 24 16 43 59.9920000  0  8G16G24G 4G 5G30G 7G 9G10
 -12855031.54449 -10005726.59245  22741927.589    22741926.498    22741935.374
       210.000         151.000
 -31953260.44149 -24865487.76347  18033228.135    18033227.627    18033233.668
       231.000         195.000
 -13996024.26949 -10889616.62347  19535198.826    19535198.738    19535204.114
       240.000         199.000
 -27725291.86949 -21588383.64847  18491893.196    18491892.354    18491898.038
       241.000         203.000
 -11684167.00149  -9080148.81246  20863645.022    20863644.960    20863651.659
       228.000         179.000
   7080710.58149   5519213.58245  22018478.742    22018477.573    22018485.500
       215.000         159.000
  -9837970.92849  -7653222.67747  20497874.989    20497874.170    20497880.551
       233.000         188.000
  -3682215.66549  -2849858.91245  21377505.880    21377505.065    21377514.215
       217.000         162.000
 00  5 24 16 44 29.9920000  0  8G16G24G 4G 5G30G 7G 9G10
 -12834028.21449  -9989360.42145  22745924.257    22745923.244    22745932.234
       208.000         149.000
 -31980794.61549 -24886942.97647  18027988.594    18027988.056    18027994.119
       231.000         196.000
 -13954514.48949 -10857271.38247  19543097.937    19543097.820    19543103.193
       240.000         200.000
 -27803308.71649 -21649175.99747  18477047.066    18477046.249    18477051.927
       241.000         204.000
 -11812425.63549  -9180090.59246  20839238.341    20839238.191    20839244.743
       229.000         177.000
   7116223.84549   5546886.15445  22025236.832    22025235.586    22025243.504
       218.000         160.000
  -9790628.59649  -7616332.67446  20506884.001    20506883.182    20506889.580
       234.000         187.000
  -3814406.49149  -2952864.67646  21352350.774    21352349.950    21352359.096
       220.000         163.000
 00  5 24 16 44 59.9920000  0  8G16G24G 4G 5G30G 7G 9G10
 -12812551.90349  -9972625.69245  22750011.105    22750010.030    22750019.093
       207.000         148.000
 -32007833.82349 -24908012.49647  18022843.261    18022842.696    18022848.749
       232.000         196.000
 -13912687.10149 -10824678.65047  19551057.484    19551057.355    19551062.704
       240.000         199.000
 -27880933.73649 -21709663.02547  18462275.478    18462274.674    18462280.369
       241.000         204.000
 -11940539.32349  -9279919.36946  20814858.955    20814858.934    20814865.558
       226.000         177.000
   7151771.69649   5574585.68845  22032001.615    22032000.256    22032008.148
       216.000         160.000
  -9743030.78149  -7579243.57246  20515941.615    20515940.794    20515947.235
       232.000         186.000
  -3946505.61449  -3055798.97446  21327213.146    21327212.273    21327221.440
       217.000         164.000
 00  5 24 16 45 29.9920000  0  8G16G24G 4G 5G30G 7G 9G10
 -12790592.59149  -9955514.59245  22754189.739    22754188.796    22754197.842
       206.000         148.000
 -32034367.53749 -24928688.12747  18017794.038    18017793.483    18017799.564
       230.000         195.000
 -13870533.12249 -10791831.43847  19559079.195    19559079.023    19559084.372
       239.000         199.000
 -27958153.22049 -21769834.05647  18447581.103    18447580.301    18447585.994
       240.000         204.000
 -12068494.06149  -9379624.32446  20790509.877    20790509.891    20790516.542
       226.000         177.000
   7187365.76349   5602321.23245  22038774.926    22038773.605    22038781.538
       215.000         157.000
  -9695168.70849  -7541948.58146  20525049.519    20525048.726    20525055.181
       233.000         187.000
  -4078497.77549  -3158649.93046  21302095.759    21302094.915    21302104.118
       216.000         163.000
 00  5 24 16 45 59.9920000  0  8G16G24G 4G 5G30G 7G 9G10
 -12768147.16049  -9938024.72645  22758460.942    22758460.040    22758469.090
       208.000         147.000
 -32060391.96249 -24948966.91847  18012841.661    18012841.177    18012847.308
       230.000         195.000
 -13828050.34949 -10758728.02147  19567163.409    19567163.246    19567168.610
       240.000         199.000
 -28034960.63849 -21829683.99247  18432965.121    18432964.327    18432970.022
       240.000         204.000
 -12196282.95449  -9479200.05546  20766192.475    20766192.473    20766199.056
       227.000         176.000
   7223011.02449   5630096.65445  22045557.783    22045556.642    22045564.726
       213.000         157.000
  -9647040.44649  -7504446.17346  20534208.114    20534207.311    20534213.782
       233.000         187.000
  -4210375.29549  -3261411.54045  21277000.042    21276999.325    21277008.625
       215.000         162.000
 00  5 24 16 46 29.9920000  0  8G16G24G 4G 5G30G 7G 9G10
 -12745224.90249  -9920163.26945  22762823.017    22762822.014    22762831.136
       207.000         147.000
 -32085915.78449 -24968855.62147  18007984.632    18007984.133    18007990.277
       231.000         196.000
 -13785248.79349 -10725376.19847  19575308.385    19575308.149    19575313.494
       240.000         199.000
 -28111361.49149 -21889217.12247  18418426.562    18418425.748    18418431.423
       241.000         204.000
 -12323911.00349  -9578650.41646  20741905.506    20741905.550    20741912.213
       228.000         179.000
   7258700.03049   5657906.19545  22052349.238    22052348.080    22052356.170
       216.000         157.000
  -9598656.29649  -7466744.36846  20543415.441    20543414.584    20543421.111
       233.000         187.000
  -4342141.87049  -3364086.70245  21251925.619    21251924.896    21251934.191
       214.000         162.000
 00  5 24 16 46 59.9920000  0  8G16G24G 4G 5G30G 7G 9G10
 -12721815.52849  -9901922.25245  22767277.641    22767276.709    22767285.861
       207.000         146.000
 -32110928.44649 -24988346.02247  18003224.886    18003224.379    18003230.530
       231.000         195.000
 -13742119.43849 -10691768.94547  19583515.641    19583515.413    19583520.783
       239.000         198.000
 -28187342.30349 -21948422.95447  18403967.950    18403967.091    18403972.763
       240.000         204.000
 -12451364.38649  -9677964.70746  20717651.838    20717651.936    20717658.565
       229.000         179.000
   7294444.78949   5685759.14545  22059151.275    22059150.108    22059158.283
       214.000         157.000
  -9550007.66049  -7428836.45146  20552673.027    20552672.184    20552678.799
       233.000         187.000
  -4473783.09349  -3466664.18745  21226875.127    21226874.296    21226883.595
       216.000         162.000
 00  5 24 16 47 29.9920000  0  8G16G24G 4G 5G30G 7G 9G10
 -12697919.77249  -9883302.22445  22771825.042    22771823.947    22771833.146
       208.000         144.000
 -32135429.99749 -25007438.15247  17998562.441    17998561.910    17998568.058
       231.000         195.000
 -13698663.70249 -10657907.37847  19591785.012    19591784.785    19591790.188
       239.000         198.000
 -28262900.14249 -22007299.19347  18389589.739    18389588.905    18389594.599
       240.000         204.000
 -12578639.54649  -9777140.11046  20693432.185    20693432.267    20693438.885
       226.000         176.000
   7330246.26149   5713656.32245  22065964.057    22065962.981    22065971.108
       216.000         155.000
  -9501096.31249  -7390723.83746  20561980.606    20561979.798    20561986.447
       232.000         185.000
  -4605294.48249  -3569140.51545  21201849.283    21201848.502    21201857.762
       214.000         160.000
 00  5 24 16 47 59.9920000  0  8G16G24G 4G 5G30G 7G 9G10
 -12673565.54649  -9864324.95045  22776459.407    22776458.443    22776467.699
       206.000         143.000
 -32159447.53349 -25026153.12447  17993992.057    17993991.539    17993997.684
       230.000         195.000
 -13654910.37349 -10623813.91547  19600111.094    19600110.800    19600116.228
       240.000         197.000
 -28338059.15549 -22065864.65247  18375287.467    18375286.601    18375292.318
       240.000         203.000
 -12705760.26049  -9876195.18546  20669241.979    20669242.020    20669248.550
       229.000         181.000
   7366078.60049   5741577.52745  22072782.852    22072781.701    22072789.799
       216.000         155.000
  -9451951.22649  -7352429.07346  20571332.639    20571331.849    20571338.565
       234.000         185.000
  -4736698.92149  -3671533.49145  21176844.008    21176843.061    21176852.264
       213.000         160.000
 00  5 24 16 48 29.9920000  0  8G16G24G 4G 5G30G 7G 9G10
 -12648749.53149  -9844987.83145  22781181.734    22781180.845    22781190.128
       204.000         142.000
 -32182977.52849 -25044488.20647  17989514.511    17989513.961    17989520.080
       231.000         195.000
 -13610856.94649 -10589486.60647  19608494.287    19608493.939    19608499.361
       239.000         198.000
 -28412812.31149 -22124113.86947  18361062.397    18361061.532    18361067.267
       240.000         203.000
 -12832719.46249  -9975124.39046  20645082.504    20645082.457    20645089.015
       229.000         179.000
   7401946.81949   5769526.67245  22079608.330    22079607.219    22079615.564
       215.000         158.000
  -9402570.16049  -7313950.41946  20580729.610    20580728.823    20580735.573
       234.000         186.000
  -4867988.16049  -3773836.70645  21151860.554    21151859.509    21151868.660
       213.000         160.000
 00  5 24 16 48 59.9920000  0  8G16G24G 4G 5G30G 7G 9G10
 -12623451.82849  -9825275.38445  22785995.944    22785994.927    22786004.108
       205.000         139.000
 -32205999.38949 -25062427.32547  17985133.662    17985133.055    17985139.180
       231.000         195.000
 -13566484.24649 -10554910.51647  19616938.142    19616937.811    19616943.242
       239.000         197.000
 -28487135.92349 -22182028.37047  18346919.112    18346918.222    18346923.947
       240.000         203.000
 -12959492.84249 -10073908.79346  20620958.333    20620958.282    20620964.805
       231.000         182.000
   7437872.96249   5797520.98145  22086444.929    22086443.856    22086452.132
       213.000         152.000
  -9352934.40249  -7275273.31346  20590175.004    20590174.245    20590181.063
       232.000         185.000
  -4999137.04149  -3876030.54645  21126903.671    21126902.608    21126911.745
       212.000         159.000
 00  5 24 16 49 29.9920000  0  8G16G24G 4G 5G30G 7G 9G10
 -12597685.48259  -9805197.65355  22790899.304    22790898.203    22790907.245
       206.000         135.000
 -32228525.86649 -25079980.33147  17980846.994    17980846.426    17980852.566
       231.000         195.000
 -13521806.47459 -10520096.60457  19625440.043    19625439.707    19625445.208
       238.000         197.000
 -28561039.74649 -22239615.65747  18332855.667    18332854.784    18332860.536
       240.000         203.000
 -13086089.84049 -10172555.65546  20596867.684    20596867.608    20596874.166
       228.000         179.000
   7473845.40349   5825551.48745  22093290.073    22093289.148    22093297.478
       214.000         156.000
  -9303058.46449  -7236408.94146  20599666.197    20599665.405    20599672.251
       232.000         185.000
  -5130153.94259  -3978121.41155  21101971.862    21101970.769    21101979.973
       214.000         160.000
 00  5 24 16 49 59.9920000  0  8G16G24G 4G 5G30G 7G 9G10
 -12571469.23859  -9784769.55155  22795888.109    22795887.109    22795896.082
       205.000         134.000
 -32250573.89549 -25097160.52247  17976651.352    17976650.811    17976656.977
       231.000         194.000
 -13476842.88359 -10485060.19457  19633996.330    19633996.015    19634001.501
       240.000         197.000
 -28634538.48949 -22296887.51947  18318869.364    18318868.444    18318874.181
       241.000         204.000
 -13212524.59449 -10271076.34246  20572807.991    20572807.864    20572814.316
       230.000         177.000
   7509847.69349   5853604.99945  22100141.255    22100140.306    22100148.674
       215.000         155.000
  -9252960.68949  -7197371.72246  20609199.575    20609198.754    20609205.635
       234.000         184.000
  -5261051.15659  -4080119.06055  21077062.769    21077061.687    21077071.004
       216.000         161.000
 00  5 24 16 50 29.9920000  0  8G16G24G 4G 5G30G 7G 9G10
 -12544783.56149  -9763975.58945  22800966.281    22800965.171    22800974.116
       202.000         135.000
 -32272125.28849 -25113953.82847  17972550.161    17972549.687    17972555.879
       230.000         196.000
 -13431574.67649 -10449786.30747  19642610.634    19642610.302    19642615.801
       239.000         197.000
 -28707608.98149 -22353825.56747  18304964.559    18304963.605    18304969.348
       240.000         204.000
 -13338773.66449 -10369452.20046  20548783.603    20548783.438    20548789.870
       230.000         180.000
   7545901.34249   5881698.65645  22107002.246    22107001.241    22107009.513
       215.000         155.000
  -9202624.83449  -7158149.10046  20618778.208    20618777.418    20618784.275
       232.000         185.000
  -5391806.00849  -4182005.87746  21052180.707    21052179.802    21052189.090
       218.000         164.000
 00  5 24 16 50 59.9920000  0  8G16G24G 4G 5G30G 7G 9G10
 -12517624.57249  -9742812.76444  22806134.524    22806133.288    22806142.308
       199.000         130.000
 -32293174.94849 -25130356.17447  17968544.545    17968544.058    17968550.268
       233.000         196.000
 -13385998.72649 -10414272.63347  19651283.414    19651283.117    19651288.642
       239.000         195.000
 -28780243.70749 -22410424.06347  18291142.685    18291141.687    18291147.412
       242.000         204.000
 -13464828.83949 -10467676.98046  20524796.214    20524795.973    20524802.354
       233.000         183.000
   7582012.01249   5909836.74545  22113873.977    22113872.936    22113881.189
       214.000         154.000
  -9152046.99149  -7118737.92146  20628403.066    20628402.161    20628408.979
       236.000         185.000
  -5522409.09449  -4283774.43046  21027327.754    21027326.819    21027336.018
       220.000         165.000
 00  5 24 16 51 29.9920000  0  8G16G24G 4G 5G30G 7G 9G10
 -12489998.17849  -9721285.75944  22811391.852    22811390.569    22811399.499
       199.000         127.000
 -32313727.74549 -25146371.35447  17964633.538    17964632.982    17964639.191
       231.000         196.000
 -13340121.65949 -10378524.31547  19660013.465    19660013.260    19660018.781
       238.000         195.000
 -28852444.90049 -22466684.73347  18277403.300    18277402.293    18277407.990
       239.000         204.000
 -13590691.96349 -10565752.09446  20500845.062    20500844.922    20500851.347
       231.000         181.000
   7618175.89149   5938016.29845  22120756.046    22120754.729    22120762.925
       214.000         154.000
  -9101233.88649  -7079143.40946  20638072.538    20638071.657    20638078.479
       234.000         183.000
  -5652860.70249  -4385424.95946  21002503.468    21002502.616    21002511.743
       218.000         165.000
 00  5 24 16 51 59.9920000  0  8G16G24G 4G 5G30G 7G 9G10
 -12461930.06549  -9699414.53044  22816733.093    22816731.760    22816740.892
       198.000         126.000
 -32333809.23149 -25162019.28147  17960812.165    17960811.588    17960817.804
       231.000         196.000
 -13293970.14049 -10342562.13347  19668795.897    19668795.641    19668801.150
       239.000         195.000
 -28924234.70949 -22522624.84447  18263742.135    18263741.139    18263746.840
       238.000         203.000
 -13716384.67849 -10663694.45446  20476926.657    20476926.453    20476932.780
       232.000         185.000
   7654369.02349   5966218.64945  22127643.554    22127642.167    22127650.402
       213.000         155.000
  -9050212.85749  -7039386.88846  20647781.638    20647780.706    20647787.542
       234.000         184.000
  -5783181.52749  -4486973.56946  20977704.042    20977703.301    20977712.424
       219.000         166.000
 00  5 24 16 52 29.9920000  0  8G16G24G 4G 5G30G 7G 9G10
 -12433406.92849  -9677188.78844  22822160.944    22822159.752    22822168.639
       200.000         126.000
 -32353405.48449 -25177289.10047  17957083.139    17957082.554    17957088.741
       231.000         195.000
 -13247531.25949 -10306376.03047  19677633.039    19677632.722    19677638.222
       238.000         195.000
 -28995596.14749 -22578231.16047  18250162.503    18250161.516    18250167.195
       238.000         204.000
 -13841889.38749 -10761490.28546  20453043.820    20453043.635    20453049.969
       231.000         180.000
   7690607.08749   5994455.98945  22134539.367    22134538.030    22134546.428
       212.000         153.000
  -8998971.25749  -6999458.48946  20657532.603    20657531.743    20657538.584
       233.000         184.000
  -5913353.16949  -4588405.95046  20952933.300    20952932.437    20952941.511
       220.000         165.000
 00  5 24 16 52 59.9920000  0  8G16G24G 4G 5G30G 7G 9G10
 -12404439.55648  -9654616.83744  22827673.204    22827672.191    22827681.135
       194.000         124.000
 -32372526.69749 -25192188.76547  17953444.523    17953443.919    17953450.105
       231.000         196.000
 -13200816.83949 -10269975.23647  19686522.493    19686522.221    19686527.732
       237.000         195.000
 -29066536.20649 -22633509.12847  18236663.047    18236662.091    18236667.775
       238.000         204.000
 -13967212.61249 -10859144.72346  20429195.464    20429195.373    20429201.697
       231.000         183.000
   7726880.87049   6022721.20345  22141442.261    22141440.836    22141449.159
       214.000         154.000
  -8947521.13349  -6959367.60646  20667323.320    20667322.483    20667329.308
       233.000         184.000
  -6043381.33349  -4689726.51546  20928189.654    20928188.807    20928197.918
       218.000         167.000
 00  5 24 16 53 29.9920000  0  8G16G24G 4G 5G30G 7G 9G10
 -12375006.49259  -9631682.01954  22833274.216    22833273.274    22833282.027
       195.000         122.000
 -32391150.95649 -25206701.18347  17949900.528    17949899.865    17949906.009
       232.000         196.000
 -13153805.97149 -10233343.43847  19695468.404    19695468.128    19695473.646
       238.000         194.000
 -29137029.65349 -22688439.08947  18223248.551    18223247.619    18223253.328
       238.000         203.000
 -14092328.71249 -10956637.74246  20405386.607    20405386.543    20405392.859
       232.000         185.000
   7763214.14649   6051032.74145  22148356.287    22148354.761    22148363.224
       215.000         155.000
  -8895842.04949  -6919098.31146  20677157.583    20677156.752    20677163.590
       232.000         183.000
  -6173239.42849  -4790914.56646  20903478.293    20903477.529    20903486.612
       220.000         168.000
 00  5 24 16 53 59.9920000  0  8G16G24G 4G 5G30G 7G 9G10
 -12345122.29749  -9608395.66644  22838961.221    22838959.928    22838968.847
       195.000         121.000
 -32409292.14749 -25220837.19347  17946448.399    17946447.707    17946453.854
       232.000         196.000
 -13106513.72549 -10196492.38347  19704467.878    19704467.583    19704473.105
       239.000         195.000
 -29207087.31549 -22743029.48047  18209916.934    18209916.060    18209921.805
       239.000         203.000
 -14217247.70649 -11053977.21146  20381615.370    20381615.268    20381621.463
       235.000         183.000
   7799594.38649   6079380.90145  22155279.538    22155277.841    22155286.308
       216.000         156.000
  -8843949.43149  -6878662.64046  20687032.452    20687031.649    20687038.522
       234.000         184.000
  -6302936.53549  -4891977.17646  20878797.956    20878796.999    20878805.949
       223.000         168.000
 00  5 24 16 54 29.9920000  0  8G16G24G 4G 5G30G 7G 9G10
 -12314786.15648  -9584757.17944  22844733.777    22844732.781    22844741.903
       191.000         122.000
 -32426948.85749 -25234595.68347  17943088.371    17943087.745    17943093.893
       232.000         195.000
 -13058939.85749 -10159421.88347  19713520.924    19713520.635    19713526.160
       239.000         194.000
 -29276704.52149 -22797276.65947  18196669.183    18196668.329    18196674.110
       240.000         203.000
 -14341964.62449 -11151159.18846  20357882.572    20357882.433    20357888.615
       233.000         183.000
   7836024.51749   6107767.91845  22162212.162    22162210.371    22162218.872
       216.000         154.000
  -8791843.38149  -6838060.67146  20696947.932    20696947.149    20696954.071
       234.000         184.000
  -6432466.68449  -4992909.68246  20854149.272    20854148.201    20854157.115
       220.000         169.000
 00  5 24 16 54 59.9920000  0  8G16G24G 4G 5G30G 7G 9G10
 -12284019.90148  -9560783.51144  22850588.297    22850587.366    22850596.599
       192.000         120.000
 -32444142.41549 -25247993.27547  17939816.595    17939815.945    17939822.045
       232.000         195.000
 -13011106.83549 -10122149.45147  19722623.200    19722622.976    19722628.525
       238.000         194.000
 -29345899.35649 -22851194.71647  18183501.852    18183500.996    18183506.769
       239.000         203.000
 -14466496.72249 -11248197.14246  20334184.858    20334184.731    20334190.936
       233.000         182.000
   7872484.73649   6136178.37045  22169150.366    22169148.599    22169157.257
       213.000         152.000
  -8739546.69549  -6797310.14246  20706899.812    20706898.966    20706905.950
       233.000         183.000
  -6561846.62449  -5093725.14846  20829528.930    20829527.910    20829536.863
       221.000         167.000
 00  5 24 16 55 29.9920000  0  8G16G24G 4G 5G30G 7G 9G10
 -12252805.43858  -9536460.64754  22856528.301    22856527.371    22856536.506
       191.000         119.000
 -32460854.16049 -25261015.42547  17936636.457    17936635.829    17936641.920
       232.000         196.000
 -12962997.33549 -10084661.57947  19731778.241    19731777.928    19731783.499
       239.000         194.000
 -29414650.25949 -22904766.85247  18170419.060    18170418.160    18170423.925
       240.000         203.000
 -14590821.67549 -11345073.70946  20310526.538    20310526.431    20310532.626
       232.000         185.000
   7908995.19949   6164627.99145  22176098.072    22176096.328    22176104.998
       215.000         151.000
  -8687042.45749  -6756397.87646  20716891.232    20716890.298    20716897.335
       232.000         183.000
  -6691052.75049  -5194405.17946  20804941.808    20804940.740    20804949.623
       223.000         168.000
 00  5 24 16 55 59.9920000  0  8G16G24G 4G 5G30G 7G 9G10
 -12221134.49258  -9511782.01554  22862554.794    22862553.938    22862563.384
       188.000         121.000
 -32477075.22549 -25273655.23147  17933549.679    17933549.055    17933555.162
       231.000         195.000
 -12914603.43049 -10046952.08747  19740987.391    19740987.032    19740992.602
       238.000         194.000
 -29482945.05649 -22957983.57747  18157423.036    18157422.102    18157427.851
       238.000         203.000
 -14714926.75649 -11441778.92246  20286910.096    20286909.994    20286916.218
       232.000         183.000
   7945566.48849   6193125.03045  22183057.451    22183055.695    22183064.306
       216.000         153.000
  -8634323.12149  -6715317.99246  20726923.480    20726922.541    20726929.646
       231.000         182.000
  -6820071.66049  -5294939.32746  20780390.362    20780389.193    20780398.055
       221.000         169.000
 00  5 24 16 56 29.9920000  0  7G24G 4G 5G30G 7G 9G10
 -32492843.49549 -25285942.21147  17930549.021    17930548.438    17930554.555
       230.000         195.000
 -12865964.19649 -10009051.43247  19750243.144    19750242.805    19750248.370
       237.000         194.000
 -29550818.52549 -23010871.99747  18144507.134    18144506.225    18144511.936
       238.000         203.000
 -14838845.99849 -11538339.35646  20263328.967    20263328.913    20263335.089
       231.000         182.000
   7982162.33049   6221641.15545  22190021.362    22190019.699    22190028.445
       215.000         152.000
  -8581428.06149  -6674101.19146  20736988.912    20736988.162    20736995.371
       229.000         181.000
  -6948936.40249  -5395353.34746  20755867.988    20755866.987    20755875.833
       221.000         168.000
 00  5 24 16 56 59.9920000  0  7G24G 4G 5G30G 7G 9G10
 -32508158.56849 -25297876.04647  17927634.644    17927634.058    17927640.182
       232.000         195.000
 -12817080.21449  -9970960.06847  19759545.532    19759545.145    19759550.705
       238.000         193.000
 -29618267.07949 -23063429.31847  18131672.119    18131671.211    18131676.894
       239.000         203.000
 -14962575.52849 -11634751.93646  20239783.984    20239783.899    20239790.111
       233.000         184.000
   8018784.58449   6250177.90145  22196990.455    22196988.838    22196997.543
       214.000         152.000
  -8528358.42049  -6632748.35846  20747087.779    20747087.024    20747094.316
       231.000         181.000
  -7077641.99349  -5495643.35946  20731375.989    20731375.081    20731383.940
       222.000         168.000
 00  5 24 16 57 29.9920000  0  8G24G 4G 5G30G 7G 9G 6G10
 -32523005.92449 -25309445.42847  17924809.282    17924808.709    17924814.822
       231.000         195.000
 -12767938.31949  -9932667.73247  19768896.998    19768896.570    19768902.143
       237.000         194.000
 -29685272.98449 -23115641.71447  18118921.345    18118920.425    18118926.101
       238.000         203.000
 -15086096.71149 -11731002.17946  20216278.642    20216278.631    20216284.796
       232.000         184.000
   8055449.47849   6278747.83545  22203967.771    22203966.157    22203974.817
       216.000         155.000
  -8475101.10049  -6591249.27146  20757222.488    20757221.652    20757228.964
       231.000         181.000
   -188376.23255                  22179139.539
       205.000         136.000
  -7206168.87949  -5595794.11646  20706918.193    20706917.183    20706925.989
       220.000         167.000
